[[{"header":{"parameterUnit":"m.s-1","parameterCategory":1,"la1":30.6,"la2":29.2853,"lo1":-89.7004,"lo2":-87.6739,"dy":0.0162,"dx":0.0183,"nx":112,"ny":82,"refTime":"2024-04-29T12:00:00:Z","depth":0,"parameterNumber":2,"parameterNumberName":"U-component_of_WINDS"},"data":[0.0,0.0,0.0,0.0,0.0,0.0,0.0,0.0,0.0,0.0,0.0,0.0,0.0,0.0,0.0,0.0,0.0,0.0,0.0,0.0,0.0,0.0,0.0,0.0,0.0,0.0,0.0,0.0,0.0,0.0,0.0,0.0,0.0,0.0,0.0,0.0,0.0,0.0,0.0,0.0,0.0,0.0,0.0,0.0,0.0,0.0,0.0,0.0,0.0,0.0,0.0,0.0,0.0,0.0,0.0,0.0,0.0,0.0,0.0,0.0,0.0,0.0,0.0,0.0,0.0,0.0,0.0,0.0,0.0,0.0,0.0,0.0,0.0,0.0,0.0,0.0,0.0,0.0,0.0,0.0,0.0,0.0,0.0,0.0,0.0,0.0,0.0,0.0,0.0,0.0,-2.3252,-2.3896,-2.3316,-2.2677,-2.2226,-2.2171,-2.1971,-2.1532,0.0,0.0,0.0,0.0,0.0,0.0,0.0,0.0,0.0,0.0,0.0,0.0,0.0,0.0,0.0,0.0,0.0,0.0,0.0,0.0,0.0,0.0,0.0,0.0,0.0,0.0,0.0,0.0,0.0,0.0,0.0,0.0,0.0,0.0,0.0,0.0,0.0,0.0,0.0,0.0,0.0,0.0,0.0,0.0,0.0,0.0,0.0,0.0,0.0,0.0,0.0,0.0,0.0,0.0,0.0,0.0,0.0,0.0,0.0,0.0,0.0,0.0,0.0,0.0,0.0,0.0,0.0,0.0,0.0,0.0,0.0,0.0,0.0,0.0,0.0,0.0,0.0,0.0,0.0,0.0,0.0,0.0,0.0,0.0,0.0,0.0,0.0,0.0,0.0,0.0,0.0,0.0,0.0,0.0,0.0,0.0,0.0,0.0,0.0,0.0,0.0,0.0,0.0,0.0,-2.4758,-2.4816,-2.4554,-2.4009,-2.3082,-2.2879,-2.2383,-2.1559,0.0,0.0,0.0,0.0,0.0,0.0,0.0,0.0,0.0,0.0,0.0,0.0,0.0,0.0,0.0,0.0,0.0,0.0,0.0,0.0,0.0,0.0,0.0,0.0,0.0,0.0,0.0,0.0,0.0,0.0,0.0,0.0,0.0,0.0,0.0,0.0,0.0,0.0,0.0,0.0,0.0,0.0,0.0,0.0,0.0,0.0,0.0,0.0,0.0,0.0,0.0,0.0,0.0,0.0,0.0,0.0,0.0,0.0,0.0,0.0,0.0,0.0,0.0,0.0,0.0,0.0,0.0,0.0,0.0,0.0,0.0,0.0,0.0,0.0,0.0,0.0,0.0,0.0,0.0,0.0,0.0,0.0,0.0,0.0,0.0,0.0,0.0,0.0,0.0,0.0,0.0,0.0,0.0,0.0,0.0,0.0,0.0,0.0,0.0,0.0,0.0,0.0,0.0,-2.6505,-2.6459,-2.6426,-2.5918,-2.5303,-2.4625,-2.4059,-2.3428,-2.2801,-2.2383,0.0,0.0,0.0,0.0,0.0,0.0,0.0,0.0,0.0,0.0,0.0,0.0,0.0,0.0,0.0,0.0,0.0,0.0,0.0,0.0,0.0,0.0,0.0,0.0,0.0,0.0,0.0,0.0,0.0,0.0,0.0,0.0,0.0,0.0,0.0,0.0,0.0,0.0,0.0,0.0,0.0,0.0,0.0,0.0,0.0,0.0,0.0,0.0,0.0,0.0,0.0,0.0,0.0,0.0,0.0,0.0,0.0,0.0,0.0,0.0,0.0,0.0,0.0,0.0,0.0,0.0,0.0,0.0,0.0,0.0,0.0,0.0,0.0,0.0,0.0,0.0,0.0,0.0,0.0,0.0,0.0,0.0,0.0,0.0,0.0,0.0,0.0,0.0,0.0,0.0,0.0,0.0,0.0,0.0,0.0,0.0,0.0,0.0,0.0,0.0,0.0,0.0,-2.7642,-2.7601,-2.7587,-2.6925,-2.629,-2.5995,-2.5079,-2.4402,-2.4106,-2.3216,0.0,0.0,0.0,0.0,0.0,0.0,0.0,0.0,0.0,0.0,0.0,0.0,0.0,0.0,0.0,0.0,0.0,0.0,0.0,0.0,0.0,0.0,0.0,0.0,0.0,0.0,0.0,0.0,0.0,0.0,0.0,0.0,0.0,0.0,0.0,0.0,0.0,0.0,0.0,0.0,0.0,0.0,0.0,0.0,0.0,0.0,0.0,0.0,0.0,0.0,0.0,0.0,0.0,0.0,0.0,0.0,0.0,0.0,0.0,0.0,0.0,0.0,0.0,0.0,0.0,0.0,0.0,0.0,0.0,0.0,0.0,0.0,0.0,0.0,0.0,0.0,0.0,0.0,0.0,0.0,0.0,0.0,0.0,0.0,0.0,0.0,0.0,0.0,0.0,0.0,0.0,0.0,0.0,0.0,0.0,0.0,0.0,0.0,0.0,0.0,0.0,0.0,-2.7631,-2.7597,-2.7594,-2.7169,-2.6832,-2.6721,-2.5654,-2.4951,-2.4918,-2.3531,0.0,0.0,0.0,0.0,0.0,0.0,0.0,0.0,0.0,0.0,0.0,0.0,0.0,0.0,0.0,0.0,0.0,0.0,0.0,0.0,0.0,0.0,0.0,0.0,0.0,0.0,0.0,0.0,0.0,0.0,0.0,0.0,0.0,0.0,0.0,0.0,0.0,0.0,0.0,0.0,0.0,0.0,0.0,0.0,0.0,0.0,0.0,0.0,0.0,0.0,0.0,0.0,0.0,0.0,0.0,0.0,0.0,0.0,0.0,0.0,0.0,0.0,0.0,0.0,0.0,0.0,0.0,0.0,0.0,0.0,0.0,0.0,0.0,0.0,0.0,0.0,0.0,0.0,0.0,0.0,0.0,0.0,0.0,0.0,0.0,0.0,0.0,0.0,0.0,0.0,0.0,0.0,0.0,0.0,0.0,0.0,0.0,0.0,0.0,0.0,0.0,0.0,-2.9195,-2.9167,0.0,-2.8495,-2.798,-2.769,-2.6716,-2.6031,-2.5762,0.0,0.0,0.0,0.0,0.0,0.0,0.0,0.0,0.0,0.0,0.0,0.0,0.0,0.0,0.0,0.0,0.0,0.0,0.0,0.0,0.0,0.0,0.0,0.0,0.0,0.0,0.0,0.0,0.0,0.0,0.0,0.0,0.0,0.0,0.0,0.0,0.0,0.0,0.0,0.0,0.0,0.0,0.0,0.0,0.0,0.0,0.0,0.0,0.0,0.0,0.0,0.0,0.0,0.0,0.0,0.0,0.0,0.0,0.0,0.0,0.0,0.0,0.0,0.0,0.0,0.0,0.0,0.0,0.0,0.0,0.0,0.0,0.0,0.0,0.0,0.0,0.0,0.0,0.0,0.0,0.0,0.0,0.0,0.0,0.0,0.0,0.0,0.0,0.0,0.0,0.0,0.0,0.0,0.0,0.0,0.0,0.0,0.0,0.0,0.0,0.0,0.0,-3.0109,-3.0164,-3.0135,0.0,-2.9498,-2.8998,-2.868,-2.7716,-2.6985,-2.6722,0.0,0.0,0.0,0.0,0.0,0.0,0.0,0.0,0.0,0.0,0.0,0.0,0.0,0.0,0.0,0.0,0.0,0.0,0.0,0.0,0.0,0.0,0.0,0.0,0.0,0.0,0.0,0.0,0.0,0.0,0.0,0.0,0.0,0.0,0.0,0.0,0.0,0.0,0.0,0.0,0.0,0.0,0.0,0.0,0.0,0.0,0.0,0.0,0.0,0.0,0.0,0.0,0.0,0.0,0.0,0.0,0.0,0.0,0.0,0.0,0.0,0.0,0.0,0.0,0.0,0.0,0.0,0.0,0.0,0.0,0.0,0.0,0.0,0.0,0.0,0.0,0.0,0.0,0.0,0.0,0.0,0.0,0.0,0.0,0.0,0.0,0.0,0.0,0.0,0.0,0.0,0.0,0.0,0.0,0.0,0.0,0.0,0.0,0.0,0.0,0.0,0.0,-3.0192,-3.0192,-3.0171,-3.0128,-2.9907,-2.9767,-2.9717,-2.8562,-2.7827,0.0,0.0,0.0,0.0,0.0,0.0,0.0,0.0,0.0,0.0,0.0,0.0,0.0,0.0,0.0,0.0,0.0,0.0,0.0,0.0,0.0,0.0,0.0,0.0,0.0,0.0,0.0,0.0,0.0,0.0,0.0,0.0,0.0,0.0,0.0,0.0,0.0,0.0,0.0,0.0,0.0,0.0,0.0,0.0,0.0,0.0,0.0,0.0,0.0,0.0,0.0,0.0,0.0,0.0,0.0,0.0,0.0,0.0,0.0,0.0,0.0,0.0,0.0,0.0,0.0,0.0,0.0,0.0,0.0,0.0,0.0,0.0,0.0,0.0,0.0,0.0,0.0,0.0,0.0,0.0,0.0,0.0,0.0,0.0,0.0,0.0,0.0,0.0,0.0,0.0,0.0,0.0,0.0,0.0,0.0,0.0,0.0,0.0,0.0,0.0,0.0,0.0,0.0,-3.0192,-3.0192,-3.0185,-3.0171,-3.006,-2.9859,-2.9533,-2.9096,-2.8724,-2.8373,0.0,0.0,0.0,0.0,0.0,0.0,0.0,0.0,0.0,0.0,0.0,0.0,0.0,0.0,0.0,0.0,0.0,0.0,0.0,0.0,0.0,0.0,0.0,0.0,0.0,0.0,0.0,0.0,0.0,0.0,0.0,0.0,0.0,0.0,0.0,0.0,0.0,0.0,0.0,0.0,0.0,0.0,0.0,0.0,0.0,0.0,0.0,0.0,0.0,0.0,0.0,0.0,0.0,0.0,0.0,0.0,0.0,0.0,0.0,0.0,0.0,0.0,0.0,0.0,0.0,0.0,0.0,0.0,0.0,0.0,0.0,0.0,0.0,0.0,0.0,0.0,0.0,0.0,0.0,0.0,0.0,0.0,0.0,0.0,0.0,0.0,0.0,0.0,0.0,0.0,0.0,0.0,0.0,0.0,0.0,0.0,0.0,0.0,0.0,0.0,0.0,0.0,-3.0192,-3.0192,-3.0192,-3.0192,-3.0164,-2.9984,-2.9551,-2.9409,-2.9153,-2.8761,0.0,0.0,0.0,0.0,0.0,0.0,0.0,0.0,0.0,0.0,0.0,0.0,0.0,0.0,0.0,0.0,0.0,0.0,0.0,0.0,0.0,0.0,0.0,0.0,0.0,0.0,0.0,0.0,0.0,0.0,0.0,0.0,0.0,0.0,0.0,0.0,0.0,0.0,0.0,0.0,0.0,0.0,0.0,0.0,0.0,0.0,0.0,0.0,0.0,0.0,0.0,0.0,0.0,0.0,0.0,0.0,0.0,0.0,0.0,0.0,0.0,0.0,0.0,0.0,0.0,0.0,0.0,0.0,0.0,0.0,0.0,0.0,0.0,0.0,0.0,0.0,0.0,0.0,0.0,0.0,0.0,0.0,0.0,0.0,0.0,0.0,0.0,0.0,0.0,0.0,0.0,0.0,0.0,0.0,0.0,0.0,0.0,0.0,0.0,0.0,0.0,0.0,-3.03,-3.0268,-3.0192,-3.0192,-3.0192,-3.0053,-2.975,-2.9514,-2.9306,-2.9007,0.0,0.0,0.0,0.0,0.0,0.0,0.0,0.0,0.0,0.0,0.0,0.0,0.0,0.0,0.0,0.0,0.0,0.0,0.0,0.0,0.0,0.0,0.0,0.0,0.0,0.0,0.0,0.0,0.0,0.0,0.0,0.0,0.0,0.0,0.0,0.0,0.0,0.0,0.0,0.0,0.0,0.0,0.0,0.0,0.0,0.0,0.0,0.0,0.0,0.0,0.0,0.0,0.0,0.0,0.0,0.0,0.0,0.0,0.0,0.0,-3.3876,0.0,0.0,0.0,0.0,0.0,0.0,0.0,0.0,0.0,0.0,0.0,0.0,0.0,0.0,0.0,0.0,0.0,0.0,0.0,0.0,0.0,0.0,0.0,0.0,0.0,0.0,0.0,0.0,0.0,0.0,0.0,0.0,0.0,0.0,0.0,0.0,0.0,0.0,0.0,0.0,0.0,-3.1217,-3.0605,-3.0192,-3.0192,-3.0192,-3.0106,-2.9809,-2.9542,-2.9279,-2.9016,-2.8737,0.0,0.0,0.0,0.0,0.0,0.0,0.0,0.0,0.0,0.0,0.0,0.0,0.0,0.0,0.0,0.0,0.0,0.0,0.0,0.0,0.0,0.0,0.0,0.0,0.0,0.0,0.0,0.0,0.0,0.0,0.0,0.0,0.0,0.0,0.0,0.0,0.0,0.0,0.0,0.0,0.0,0.0,0.0,0.0,0.0,0.0,0.0,0.0,0.0,0.0,0.0,0.0,0.0,0.0,0.0,0.0,0.0,0.0,0.0,0.0,-3.4486,0.0,0.0,0.0,0.0,0.0,0.0,0.0,0.0,0.0,0.0,0.0,0.0,0.0,0.0,0.0,0.0,0.0,0.0,0.0,0.0,0.0,0.0,0.0,0.0,0.0,0.0,0.0,0.0,0.0,0.0,0.0,0.0,0.0,0.0,0.0,0.0,0.0,0.0,0.0,0.0,-3.2088,-3.1668,-3.1255,-3.0873,-3.0835,-3.0571,-2.9864,-2.9651,-2.9418,-2.9038,-2.8855,0.0,0.0,0.0,0.0,0.0,0.0,0.0,0.0,0.0,0.0,0.0,0.0,0.0,0.0,0.0,0.0,0.0,0.0,0.0,0.0,0.0,0.0,0.0,0.0,0.0,0.0,0.0,0.0,0.0,0.0,0.0,0.0,0.0,0.0,0.0,0.0,0.0,0.0,0.0,0.0,0.0,0.0,0.0,0.0,0.0,0.0,0.0,0.0,0.0,0.0,0.0,0.0,0.0,-3.7256,-3.7581,-3.7985,-3.8033,-3.8106,-3.8094,-3.7283,-3.6443,-3.5649,0.0,0.0,0.0,0.0,0.0,0.0,0.0,0.0,0.0,0.0,0.0,0.0,0.0,0.0,0.0,0.0,0.0,0.0,0.0,0.0,0.0,0.0,0.0,0.0,0.0,-3.3158,-3.3158,0.0,0.0,0.0,0.0,0.0,0.0,0.0,0.0,0.0,0.0,0.0,0.0,-3.2928,-3.2776,-3.2432,-3.179,-3.1713,-3.1264,-3.0178,-3.0028,-2.9739,-2.9137,-2.9004,-2.8868,0.0,0.0,0.0,0.0,0.0,0.0,0.0,0.0,0.0,0.0,0.0,0.0,0.0,0.0,0.0,0.0,0.0,0.0,0.0,0.0,0.0,0.0,0.0,0.0,0.0,0.0,0.0,0.0,0.0,0.0,0.0,0.0,-3.5995,-3.6105,0.0,0.0,0.0,0.0,0.0,0.0,0.0,0.0,0.0,0.0,0.0,0.0,0.0,-3.8395,-3.8395,-3.8395,-3.841,-3.8419,-3.8702,-3.9335,-4.0252,-3.9818,-3.9726,-3.9919,-3.9049,0.0,-3.7368,-3.7368,0.0,0.0,0.0,0.0,0.0,0.0,0.0,0.0,0.0,0.0,0.0,0.0,0.0,0.0,0.0,0.0,0.0,0.0,0.0,0.0,0.0,0.0,-3.4877,-3.4877,-3.4877,-3.4877,0.0,-3.3731,-3.2699,-3.2699,-3.3318,0.0,0.0,0.0,0.0,0.0,0.0,0.0,-3.3815,-3.3158,-3.2661,-3.2546,-3.2546,-3.2195,-3.1333,-3.0918,-3.0339,-2.9503,-2.8993,-2.8713,-2.87,-2.8637,0.0,0.0,0.0,0.0,0.0,0.0,0.0,0.0,0.0,0.0,0.0,0.0,0.0,0.0,0.0,0.0,0.0,0.0,0.0,0.0,0.0,0.0,0.0,0.0,0.0,0.0,0.0,0.0,0.0,-3.6046,-3.645,-3.6942,-3.6978,-3.7147,0.0,0.0,0.0,0.0,0.0,0.0,0.0,0.0,0.0,-3.8851,-3.9203,-3.9606,-4.0031,-4.0031,-4.0126,-4.0273,-4.037,-4.0843,-4.1578,-4.1382,-4.1396,-4.1686,-4.1304,-4.0922,-4.0425,-3.8476,-3.7712,-3.7712,0.0,0.0,0.0,0.0,-3.6896,-3.6499,-3.6578,-3.6552,0.0,0.0,0.0,0.0,0.0,0.0,0.0,0.0,0.0,0.0,0.0,0.0,0.0,-3.6604,-3.6604,-3.6604,-3.6604,-3.5679,-3.4686,0.0,-3.4426,-3.4655,-3.4655,0.0,0.0,0.0,0.0,-3.4655,-3.4655,-3.435,-3.3922,-3.3471,-3.3433,-3.305,-3.2099,-3.1823,-3.1195,-3.0102,-2.9806,-2.9392,-2.8773,-2.87,-2.8662,0.0,0.0,0.0,0.0,0.0,0.0,0.0,0.0,0.0,0.0,0.0,0.0,0.0,0.0,0.0,0.0,0.0,0.0,0.0,0.0,0.0,0.0,0.0,0.0,0.0,0.0,0.0,0.0,-3.6927,-3.7147,-3.7749,-3.7823,-3.8028,0.0,0.0,0.0,0.0,0.0,0.0,-3.9019,-3.9203,-3.9606,-4.0194,-4.0194,-4.0487,-4.1095,-4.1095,-4.1188,-4.1385,-4.1385,-4.1754,-4.2398,-4.2197,-4.238,-4.2884,-4.2656,-4.258,-4.239,-3.9996,-3.8831,-3.8556,-3.8556,-3.8252,-3.7823,-3.7823,-3.7642,-3.7413,-3.75,-3.7519,-3.7538,-3.7584,0.0,-3.7712,-3.7712,0.0,0.0,0.0,0.0,-3.7712,-3.7712,-3.7712,-3.7712,-3.7712,-3.7712,-3.7712,-3.7712,-3.7215,-3.6557,0.0,-3.5335,-3.519,-3.519,0.0,0.0,0.0,0.0,-3.519,-3.519,-3.519,-3.4961,-3.435,-3.4312,-3.3857,-3.2785,-3.2646,-3.2079,-3.0817,-3.0468,-2.9961,-2.9162,-2.8883,-2.8724,-2.8712,0.0,0.0,0.0,0.0,0.0,0.0,0.0,0.0,0.0,0.0,0.0,0.0,0.0,0.0,0.0,0.0,0.0,0.0,0.0,0.0,0.0,0.0,0.0,0.0,0.0,0.0,0.0,0.0,0.0,-3.8615,-3.8652,0.0,0.0,0.0,0.0,-3.8689,-3.9423,-3.9827,-3.9827,-4.0561,-4.0985,-4.1022,-4.1022,-4.1058,-4.1095,-4.1095,-4.1111,-4.1128,-4.1128,-4.1652,-4.2634,-4.1898,-4.2132,-4.3031,-4.228,-4.1942,-4.1982,-4.2379,-4.1919,-4.0919,-4.0919,-3.98,-3.8174,-3.8174,-3.753,-3.6695,-3.6855,-3.6998,-3.7066,-3.7261,-3.7471,-3.7712,-3.7712,-3.7712,0.0,0.0,-3.7712,-3.7712,-3.7712,-3.7712,-3.7712,-3.7712,-3.7712,-3.7712,-3.7712,-3.7674,-3.7406,0.0,-3.5755,-3.519,-3.519,0.0,-3.519,-3.519,-3.519,-3.519,-3.519,-3.519,-3.519,-3.5152,-3.5152,-3.4696,-3.3628,-3.3373,-3.2772,-3.1715,-3.0673,-3.01,-3.0052,-2.9235,-2.8761,-2.8712,-2.8712,0.0,0.0,0.0,0.0,0.0,0.0,0.0,0.0,0.0,0.0,0.0,0.0,0.0,0.0,0.0,0.0,0.0,0.0,0.0,0.0,0.0,0.0,0.0,0.0,0.0,0.0,0.0,0.0,-3.8689,-3.9166,0.0,-3.946,-3.9937,-4.0251,-4.0251,-4.0508,-4.0671,-4.0671,-4.1442,-4.2103,-4.2616,-4.3167,-4.3681,-4.4195,-4.4195,-4.4195,-4.4195,-4.4195,-4.4495,-4.5085,-4.4772,-4.4944,-4.5467,-4.5167,-4.4754,-4.428,-4.4497,-4.3429,-4.1607,-4.1607,-4.1292,-4.0835,-4.0835,-4.0742,-4.0604,-4.0669,-4.0359,-3.981,-3.9375,-3.929,-3.9355,-3.9355,-3.9355,-3.9355,-3.9355,-3.9355,-3.9355,-3.9355,-3.9355,-3.9355,-3.9355,-3.9355,-3.9355,-3.9355,-3.8935,-3.8438,-3.8171,-3.7406,-3.6795,-3.6795,-3.6795,-3.6795,-3.6795,-3.6375,-3.6023,-3.6023,-3.5564,-3.519,-3.519,-3.519,-3.5001,-3.4472,-3.422,-3.3623,-3.2593,-3.2023,-3.1237,-3.021,-2.9832,-2.9381,-2.8846,-2.8761,-2.87,0.0,0.0,0.0,0.0,0.0,0.0,0.0,0.0,0.0,0.0,0.0,0.0,0.0,0.0,0.0,0.0,0.0,0.0,0.0,0.0,0.0,0.0,0.0,0.0,0.0,0.0,-3.9093,-3.9093,-3.9827,-4.0414,-4.0671,-4.1185,-4.1625,-4.1882,-4.2176,-4.2306,-4.2306,-4.3094,-4.3754,-4.4268,-4.4819,-4.5369,-4.5883,-4.5883,-4.5883,-4.5883,-4.5883,-4.601,-4.6237,-4.6237,-4.6318,-4.6494,-4.6494,-4.6196,-4.569,-4.569,-4.4743,-4.3163,-4.2473,-4.2061,-4.1892,-4.1892,-4.2046,-4.2269,-4.2432,-4.2199,-4.1749,-4.1275,-4.1141,-4.1113,-4.0807,-4.0692,-4.0654,-4.0377,-4.0301,-4.0301,-4.0301,-4.0301,-4.0301,-4.0301,-4.0301,-4.0301,-4.0301,-3.9843,-3.9431,-3.9431,-3.8514,-3.7712,-3.7712,-3.7712,-3.7712,-3.7712,-3.7254,-3.6901,-3.6901,-3.6175,-3.5641,-3.5641,-3.5381,-3.5115,-3.4927,-3.4743,-3.4304,-3.3549,-3.3031,-3.2256,-3.1187,-3.0736,-3.0296,-2.971,-2.9332,-2.8954,-2.8675,0.0,0.0,0.0,0.0,0.0,0.0,0.0,0.0,0.0,0.0,0.0,0.0,0.0,0.0,0.0,0.0,0.0,0.0,0.0,0.0,0.0,0.0,0.0,-3.8836,-3.9423,-3.9937,-3.9974,-4.0708,-4.1499,-4.2286,-4.2396,-4.2727,-4.3515,-4.4305,-4.4745,-4.4745,-4.5516,-4.5957,-4.5957,-4.5993,-4.603,-4.6067,-4.6067,-4.6067,-4.6067,-4.603,-4.603,-4.5993,-4.5993,-4.5957,-4.5957,-4.5957,-4.5957,-4.5957,-4.5957,-4.592,-4.5699,-4.3585,-4.2115,-4.1222,-4.1185,-4.1201,-4.1261,-4.1791,-4.2159,-4.2458,-4.2713,-4.2784,-4.2631,-4.18,-4.1533,-4.138,-4.0616,-4.0377,-4.0377,-4.0377,-4.0377,-4.0377,-4.0339,-4.0339,-4.0339,-4.0301,-4.0301,-4.0301,-4.0301,-3.8935,-3.7789,-3.7789,-3.7789,-3.7789,-3.7789,-3.775,0.0,-3.775,-3.7024,-3.6557,-3.6557,-3.5755,-3.5153,-3.4965,-3.4898,-3.4773,-3.4508,-3.3563,-3.3015,-3.2978,-3.1974,-3.1396,-3.1247,-3.0339,-2.9473,-2.86,0.0,0.0,0.0,0.0,0.0,0.0,0.0,0.0,0.0,0.0,0.0,0.0,0.0,0.0,0.0,0.0,0.0,0.0,0.0,0.0,0.0,-3.9778,-4.0487,-3.968,-4.0267,-4.1001,-4.1552,-4.2359,-4.3167,-4.3975,-4.4562,-4.5002,-4.5223,-4.5443,-4.5553,-4.5553,-4.6324,-4.7058,-4.7609,-4.8233,-4.8857,-4.9444,-4.9444,-4.9444,-4.9444,-4.8857,-4.8582,-4.8582,-4.7939,-4.7645,-4.7645,-4.7645,-4.7315,-4.6746,-4.6746,-4.6434,-4.5791,-4.4593,-4.412,-4.3992,-4.3399,-4.3348,-4.3422,-4.2963,-4.2833,-4.2875,-4.2538,-4.2427,-4.2422,-4.2438,-4.245,-4.2412,-4.2183,-4.2106,-4.2106,-4.2106,-4.2106,-4.1953,-4.1304,-4.1151,-4.0998,-4.0416,-4.0301,-4.0301,-4.0301,-3.9919,-3.9584,-3.9584,-3.9584,-3.9584,-3.9584,-3.9049,0.0,-3.8629,-3.7903,-3.7368,-3.7368,-3.6634,-3.603,-3.5799,-3.5073,-3.4508,-3.4298,-3.3858,-3.3337,-3.2735,-3.2414,-3.1664,-3.0379,-3.0059,-2.9473,0.0,0.0,0.0,0.0,0.0,0.0,0.0,0.0,0.0,0.0,0.0,0.0,0.0,0.0,0.0,0.0,0.0,0.0,0.0,0.0,0.0,0.0,-4.094,-4.1956,-4.1479,-4.1809,-4.2396,-4.3204,-4.4011,-4.4819,-4.5608,-4.6434,-4.7058,-4.7425,-4.7755,-4.7939,-4.7939,-4.8416,-4.8837,-4.9334,-4.9848,-5.0325,-5.0802,-5.0802,-5.0802,-5.0802,-5.0325,-5.0105,-5.0088,-4.9591,-4.915,0.0,-4.882,-4.8379,-4.759,-4.759,-4.7352,0.0,0.0,0.0,0.0,0.0,-4.4469,-4.4595,-4.3758,-4.3545,-4.3608,-4.329,-4.3264,-4.3334,-4.3178,-4.3209,-4.3252,-4.2908,-4.2794,-4.2794,-4.2794,-4.2794,-4.2679,-4.2183,-4.203,-4.18,-4.0998,-4.0807,-4.0692,-4.0377,-4.0301,0.0,-4.0301,-4.0301,-4.0301,-4.0301,-3.9881,-3.9509,-3.9395,-3.8613,-3.8042,-3.7915,-3.7174,-3.6583,-3.6459,-3.555,0.0,0.0,0.0,-3.3705,-3.3146,-3.3096,0.0,0.0,0.0,-2.9984,-2.9119,0.0,0.0,0.0,-2.7912,-2.7658,0.0,0.0,0.0,0.0,0.0,0.0,0.0,0.0,0.0,0.0,0.0,0.0,0.0,0.0,0.0,0.0,-4.2356,-4.3681,-4.3864,-4.3901,-4.4158,-4.4874,-4.57,-4.6507,-4.7296,-4.8122,-4.8893,-4.9684,-5.0398,-5.0802,-5.0802,0.0,0.0,0.0,0.0,-5.0986,-5.1059,-5.1059,-5.1059,-5.1059,-5.0986,-5.0949,-5.0949,-5.0839,-5.0398,-4.9757,-4.9757,-4.9224,-4.8453,-4.8453,-4.8379,-4.8159,-4.6617,-4.5993,-4.581,-4.5112,-4.5029,-4.5185,-4.4443,0.0,0.0,-4.4557,-4.471,-4.4751,-4.3992,-4.3889,-4.3927,-4.3212,-4.3021,-4.3031,-4.3051,-4.3061,-4.3061,-4.2947,-4.2947,-4.2717,-4.1839,-4.1571,-4.1304,-4.0578,-4.0339,-4.0301,-4.0301,-4.0301,-4.0301,-4.0301,-4.0301,-4.0206,-3.9986,-3.926,-3.8672,-3.8435,0.0,0.0,-3.7004,-3.6267,-3.5754,-3.5607,-3.4709,-3.4067,-3.382,-3.3793,-3.3336,-3.2447,-3.1704,-3.0836,-2.9797,-2.9083,-2.8708,-2.86,-2.86,-2.8612,0.0,0.0,0.0,0.0,0.0,0.0,0.0,0.0,0.0,0.0,0.0,0.0,0.0,0.0,0.0,-4.2266,-4.3579,-4.4929,-4.6195,-4.6379,-4.6452,-4.6636,-4.7352,-4.8159,-4.9003,-4.9848,-5.0398,-5.0545,-5.0729,-5.0802,-5.0802,-5.0802,-5.1096,-5.1756,-5.1756,-5.2087,-5.2747,-5.2726,-5.2726,-5.2747,0.0,0.0,-5.1756,-5.1096,-5.0729,-5.0582,-5.0582,-5.0105,-4.9353,-4.9353,-4.893,-4.8196,-4.7223,-4.6471,-4.5883,-4.5736,-4.5717,-4.5734,-4.5587,-4.5566,-4.5574,-4.5432,-4.5411,-4.5358,-4.4764,-4.4597,0.0,-4.4455,-4.4417,-4.4501,-4.4739,-4.4819,-4.4628,-4.393,-4.3777,-4.3548,-4.2717,-4.1991,-4.1457,-4.1304,-4.0731,-4.0301,-4.0301,-4.0301,-4.0301,-4.0301,-4.0301,-4.0291,-4.0215,-4.0091,-3.986,-3.9613,-3.8775,-3.8116,-3.7739,-3.6905,-3.6072,-3.5182,-3.4355,-3.386,-3.3807,-3.3753,-3.3346,-3.2491,-3.2224,-3.1342,-2.9886,-2.9652,-2.9228,-2.86,-2.86,-2.8724,0.0,0.0,0.0,0.0,0.0,0.0,0.0,0.0,0.0,0.0,0.0,-3.9997,-4.085,0.0,-4.2649,-4.3857,-4.5075,-4.6195,-4.7003,-4.7829,-4.8343,-4.8343,-4.871,-4.926,-5.0105,-5.0912,-5.1389,-5.1389,-5.1793,-5.2013,-5.2013,-5.2013,-5.2197,-5.2601,-5.2601,-5.2784,-5.3203,-5.3203,-5.3203,-5.3203,-5.2784,-5.2601,-5.2601,-5.2197,-5.1793,-5.1389,-5.1389,-5.0949,-5.0178,-4.9757,-4.9353,-4.8857,-4.8049,-4.7443,-4.7058,-4.6654,-4.6507,-4.6434,-4.603,-4.5883,-4.5864,-4.5786,-4.5976,-4.62,-4.594,-4.5773,-4.5635,-4.5635,-4.5369,-4.5098,-4.5256,-4.5288,-4.5201,-4.4743,-4.4666,-4.4437,-4.3596,-4.3061,-4.2641,-4.2221,-4.1457,-4.0845,-4.0708,-4.0383,-4.0157,-4.0291,-4.0301,-4.0273,-4.0127,-4.0117,-3.9996,-3.9728,-3.9199,-3.8752,-3.8515,-3.7609,-3.6445,-3.5078,-3.4601,-3.4211,-3.3807,-3.3766,-3.3556,-3.3126,-3.2657,-3.1955,-3.1111,-3.0249,-2.9629,-2.9192,-2.8781,-2.8675,0.0,0.0,0.0,0.0,0.0,0.0,0.0,-4.0422,-4.0894,-4.0894,-4.0998,-4.1475,-4.261,-4.3265,-4.4032,-4.5365,-4.6409,-4.7223,-4.7516,-4.8746,-4.9721,-5.0051,-5.0088,-5.0345,-5.0986,-5.1756,-5.2234,-5.2234,-5.2821,-5.3203,-5.3203,-5.3203,-5.3203,-5.3203,-5.3203,-5.3203,-5.3203,-5.3203,-5.3203,-5.3203,-5.3203,-5.3203,-5.3203,-5.3203,-5.2858,-5.2197,-5.205,-5.161,-5.0986,-5.0141,-4.9831,-4.9757,-4.8893,-4.8563,-4.8453,-4.7626,-4.7333,-4.7223,-4.6581,-4.6361,-4.6342,-4.6268,-4.6591,-4.6997,-4.6847,-4.669,-4.6584,-4.6584,-4.6172,-4.5682,-4.5573,-4.5545,-4.5468,-4.5326,-4.5246,-4.5023,-4.4325,-4.3977,-4.364,-4.2965,-4.2165,-4.1466,-4.109,-4.0488,-4.0073,-4.0214,-4.0206,-4.0166,-4.0007,-3.9986,-3.984,-3.9539,-3.9363,-3.9205,-3.9096,-3.811,-3.6927,-3.5555,-3.5334,-3.4894,-3.4064,-3.4027,-3.3913,-3.3698,-3.304,-3.257,-3.2324,-3.0988,-3.0223,-3.0002,-2.9228,-2.8782,-4.0446,-4.0653,-4.0653,-4.0653,-4.0722,-4.0791,0.0,-4.086,-4.0894,-4.0894,-4.1412,-4.2182,-4.3166,-4.3907,-4.4941,-4.6593,-4.7002,-4.7626,-4.9133,-4.95,-5.0124,-5.1536,-5.172,-5.1777,-5.1867,-5.2601,-5.3078,-5.3078,-5.313,-5.3203,-5.3203,-5.3203,-5.3203,-5.3203,-5.3203,-5.3203,-5.3203,-5.3203,-5.3203,-5.3203,-5.3203,-5.3203,-5.3203,-5.3203,-5.313,-5.3041,-5.2307,-5.194,-5.1793,-5.0986,-5.0655,-5.0582,-4.9794,-4.9463,-4.9353,-4.8489,-4.8196,-4.8159,-4.8049,-4.8049,-4.7959,-4.7549,-4.7482,-4.74,-4.6657,-4.6629,-4.6864,-4.6864,-4.6981,-4.7035,-4.6484,-4.6385,-4.6194,-4.5468,-4.5076,-4.4837,-4.4723,-4.392,-4.316,-4.3098,-4.2408,-4.1606,-4.0879,-4.0678,-4.0477,-3.9998,-3.9954,-4.0017,-4.0215,-4.0273,-4.0048,-3.9563,-3.9693,-3.9623,-3.9124,-3.811,-3.7419,-3.7235,-3.656,-3.5789,-3.4894,-3.4857,-3.45,-3.3735,-3.3556,-3.3085,-3.2324,-3.2073,-3.156,-3.0871,-3.0038,-2.9404,-4.0825,-4.0894,-4.0894,-4.0894,-4.0894,-4.0998,-4.1447,-4.155,-4.1688,-4.2137,-4.269,-4.336,-4.4175,-4.5064,-4.6019,0.0,-4.8041,-4.8783,-4.95,-5.0418,-5.1263,-5.1903,-5.2417,-5.2711,-5.2711,-5.3004,-5.3203,-5.3203,-5.3203,-5.3203,-5.3203,-5.3203,-5.3203,-5.3203,-5.3203,-5.3203,-5.3203,-5.3203,-5.3203,-5.3203,-5.3203,-5.3203,-5.3203,-5.3203,-5.3203,-5.3167,-5.2858,-5.2711,-5.2637,-5.183,-5.1499,-5.1426,-5.0618,-5.0288,-5.0141,-4.8783,-4.8306,-4.8306,-4.8306,-4.8306,-4.8288,-4.8071,-4.8123,-4.8241,-4.7907,-4.7708,-4.7597,-4.7597,-4.749,-4.729,-4.7048,-4.7114,-4.7035,-4.6194,-4.575,-4.5407,-4.4914,-4.4308,-4.3844,-4.3844,-4.3192,-4.2449,-4.1974,-4.1073,-4.0368,-4.0163,-3.9876,-3.9705,-3.9807,-3.9818,-3.9682,-3.9311,-3.9376,-3.9285,-3.8892,-3.8471,-3.7991,-3.7529,-3.7199,-3.6597,-3.5789,-3.5261,-3.4844,-3.4449,-3.394,-3.3469,-3.3071,-3.2528,-3.2073,-3.1691,-3.0871,-3.0449,-4.0894,-4.0894,-4.0963,-4.117,-4.1205,-4.1412,-4.2171,-4.2344,-4.2516,-4.3069,-4.3631,-4.4248,-4.5059,-4.598,-4.6876,-4.7663,-4.8826,-4.9684,-4.9904,-5.1132,-5.2087,-5.2307,-5.2858,-5.3203,-5.3203,-5.3203,-5.3203,-5.3203,-5.3203,-5.3203,-5.3203,-5.3203,-5.3203,-5.3203,-5.3203,-5.3203,-5.3203,-5.3203,-5.3203,-5.3203,-5.3203,-5.3203,-5.3203,-5.3203,-5.3203,-5.3203,-5.3203,-5.3203,-5.313,-5.2564,-5.2344,-5.2234,-5.1463,-5.1132,-5.0949,-4.9517,-4.8857,-4.8673,-4.8673,-4.8489,-4.8306,-4.8306,-4.8458,-4.864,-4.864,-4.8492,-4.8268,-4.8268,-4.81,-4.7813,-4.7573,-4.7694,-4.7654,-4.678,-4.6455,-4.6063,-4.5205,-4.4804,-4.457,-4.4345,-4.3721,-4.3066,-4.2668,-4.1622,-4.0696,-4.0252,-3.9844,-3.9599,-3.9527,-3.9439,-3.935,-3.9219,-3.9092,-3.8935,-3.8825,-3.8735,-3.8469,-3.786,-3.7823,-3.7492,-3.6684,-3.6009,-3.5591,-3.5306,-3.443,-3.3972,-3.3915,-3.3029,-3.2595,-3.2552,-3.1705,-3.1451,-4.0894,-4.0894,-4.1067,-4.1792,-4.1964,-4.2206,-4.2965,-4.3172,-4.3172,-4.3172,-4.3784,-4.4595,-4.5498,-4.632,-4.7168,-4.8114,-4.904,-4.9867,-5.0655,-5.1463,-5.227,-5.3057,-5.3188,-5.3203,0.0,-5.3203,-5.3203,-5.3203,-5.3203,-5.3203,-5.3203,-5.3203,-5.3203,-5.3203,-5.3203,-5.3203,-5.3203,-5.3203,-5.3203,-5.3203,-5.3203,-5.3203,-5.3203,-5.3203,-5.3203,-5.3203,-5.3203,-5.3203,-5.3203,-5.3167,-5.3188,-5.3078,-5.227,-5.194,-5.1867,-5.1022,-5.0215,-4.9574,-4.9574,-4.9003,-4.8306,-4.8306,-4.8306,-4.8325,-4.8325,-4.8513,-4.8779,-4.8779,-4.9011,-4.9055,-4.8288,-4.8101,-4.7875,-4.6997,-4.6824,-4.6651,-4.5758,-4.5387,-4.4947,-4.415,-4.373,-4.3238,-4.245,-4.2266,-4.1715,-4.0136,-3.9895,-3.9793,-3.9514,-3.9272,-3.9205,-3.9464,-3.9036,-3.8825,-3.9078,-3.887,-3.8689,-3.8689,-3.8652,-3.8285,-3.7492,-3.7456,-3.7008,-3.6076,-3.5214,-3.4783,-3.4768,-3.3807,-3.3401,-3.3437,-3.2567,-3.2176,-4.1516,-4.1654,-4.1826,-4.262,-4.2792,-4.3,-4.3759,-4.3931,-4.4069,-4.4561,-4.5145,-4.5758,-4.6384,-4.698,-4.7569,-4.8209,-4.9481,-5.0472,-5.0765,-5.194,-5.2894,-5.3167,-5.3203,0.0,0.0,0.0,0.0,-5.3203,-5.3203,-5.3203,-5.3203,-5.3203,-5.3203,-5.3203,-5.3203,-5.3203,-5.3203,-5.3203,-5.3203,-5.3203,-5.3203,-5.3203,-5.3203,-5.3203,-5.3203,-5.3203,-5.3203,-5.3203,-5.3203,-5.3203,-5.3203,-5.3167,-5.2894,-5.2821,-5.2747,-5.2491,-5.1867,-5.1116,-5.0582,-4.9848,-4.915,-4.915,-4.8783,-4.8306,-4.8306,-4.8401,-4.8458,-4.8458,-4.8711,-4.8911,-4.865,-4.8717,-4.8701,-4.7845,-4.752,-4.7138,-4.6323,-4.5469,-4.479,-4.4515,-4.3951,-4.3404,-4.313,-4.2653,-4.1735,-4.012,-3.946,-3.9059,-3.8987,-3.8877,-3.8848,-3.8964,-3.881,-3.8735,-3.884,-3.875,-3.8689,-3.8689,-3.8689,-3.8579,-3.8322,-3.7786,-3.7331,-3.7044,-3.6128,-3.5645,-3.5645,-3.4732,-3.4258,-3.4287,-3.3401,-3.311,-4.1895,-4.2206,-4.262,-4.3414,-4.3586,-4.3793,-4.4527,-4.4699,-4.4837,-4.5294,-4.5649,-4.6045,-4.6578,-4.7026,-4.7442,-4.7772,-4.932,-5.0519,-5.0503,-5.1892,-5.2995,-5.3203,-5.3203,-5.3203,0.0,0.0,0.0,-5.3203,-5.3203,-5.3203,-5.3203,-5.3203,-5.3203,-5.3203,-5.3203,-5.3203,-5.3203,-5.3203,-5.3203,-5.3203,-5.3203,-5.3203,-5.3203,-5.3203,-5.3203,-5.3203,-5.3203,-5.3203,-5.3203,-5.3203,-5.3203,-5.3203,-5.3203,-5.3203,-5.3203,-5.3203,-5.2858,-5.2307,-5.1499,-5.0692,-5.0031,-5.0031,-4.9444,-4.8746,-4.8746,-4.8563,-4.8306,-4.8306,-4.8458,-4.8604,-4.8604,-4.8799,-4.882,-4.8282,-4.8103,-4.7813,-4.6999,-4.6237,-4.5582,-4.4974,-4.4355,-4.3828,-4.3551,-4.2837,-4.1956,-4.0891,-3.9827,-3.9019,-3.8726,-3.8689,-3.8689,-3.8689,-3.8689,-3.8689,-3.8689,-3.8689,-3.8689,-3.8689,-3.8689,-3.8689,-3.8689,-3.8212,-3.7918,-3.7851,-3.7021,-3.6537,-3.6507,-3.5584,-3.4978,-3.4687,-3.4075,-3.3786,-4.2102,-4.2689,-4.3414,-4.4173,-4.438,-4.4552,-4.5225,-4.5397,-4.5397,-4.5397,-4.5397,-4.5546,-4.6105,-4.6578,-4.6868,-4.6913,-4.8659,-5.0017,-5.0047,-5.1439,-5.2649,0.0,0.0,0.0,0.0,0.0,0.0,-5.3203,0.0,-5.3203,-5.3203,-5.3203,-5.3203,-5.3203,-5.3203,-5.3203,-5.3203,-5.3203,-5.3203,-5.3203,-5.3203,-5.3203,-5.3203,-5.3203,-5.3203,-5.3203,-5.3203,-5.3203,-5.3203,-5.3203,-5.3203,-5.3203,-5.3203,-5.3203,-5.3203,-5.3203,-5.3203,-5.3115,-5.2344,-5.1536,-5.0875,-5.0875,-5.0325,-4.9647,-4.961,-4.9003,-4.8379,-4.8306,-4.8306,-4.8306,-4.8306,-4.8306,-4.8306,-4.8306,-4.855,-4.8578,-4.7782,-4.7593,-4.7127,-4.5588,-4.4989,-4.4452,-4.3644,-4.2873,-4.2359,-4.2323,-4.0965,-3.968,-3.8872,-3.8726,-3.8689,-3.8689,-3.8689,-3.8689,-3.8689,-3.8689,-3.8689,-3.8689,-3.8689,-3.8689,-3.8689,-3.8689,-3.8643,-3.8491,-3.7811,-3.74,-3.727,-3.6391,-3.5545,-3.4803,-3.4727,-3.4226,-4.3414,-4.3862,-4.4207,-4.4941,-4.5147,-4.5156,-4.5363,-4.5397,-4.5397,-4.5397,-4.5397,-4.5546,-4.6105,-4.6291,-4.6625,-4.7313,-4.8866,0.0,-5.0561,-5.1993,0.0,-5.3203,-5.3203,-5.3203,-5.3203,-5.3203,0.0,0.0,-5.3203,-5.3203,-5.3203,-5.3203,-5.3203,-5.3203,-5.3203,-5.3203,-5.3203,-5.3203,-5.3203,-5.3203,-5.3203,-5.3203,-5.3203,-5.3203,-5.3203,-5.3203,-5.3203,-5.3203,-5.3203,-5.3203,-5.3203,-5.3203,-5.3203,-5.3203,-5.3203,-5.3203,-5.3203,-5.3167,-5.2968,-5.238,-5.1683,-5.1683,-5.1132,-5.0362,-4.9794,-4.9463,-4.9114,-4.8489,-4.8306,-4.8306,-4.8306,-4.8306,-4.8306,-4.8306,-4.8382,-4.8384,-4.8181,-4.7629,-4.7132,-4.6709,-4.557,-4.4452,-4.3644,-4.3331,-4.2983,-4.2396,-4.1442,-4.0524,-3.968,-3.9056,-3.8689,-3.8689,-3.8689,-3.8689,-3.8689,-3.8689,-3.8689,-3.8689,-3.8689,-3.8689,-3.8689,-3.8689,-3.8643,-3.8491,-3.8308,-3.8167,-3.8072,-3.7228,-3.6671,-3.6453,-3.5815,-3.5044,-4.3966,-4.4552,-4.4872,-4.5294,-4.5397,-4.5397,-4.5397,-4.5397,-4.5397,-4.5397,-4.5397,-4.5502,-4.5803,-4.6193,-4.6625,0.0,0.0,0.0,-5.042,-5.1828,-5.2952,0.0,-5.3203,0.0,-5.3203,-5.3203,-5.3203,0.0,-5.3203,-5.3203,-5.3203,-5.3203,-5.3203,-5.3203,-5.3203,-5.3203,-5.3203,-5.3203,-5.3203,-5.3203,-5.3203,-5.3203,-5.3203,-5.3203,-5.3203,-5.3203,0.0,-5.3203,-5.3203,-5.3203,-5.3203,-5.3203,-5.3203,-5.3203,-5.3203,-5.3203,-5.3203,-5.3203,-5.3203,-5.2894,-5.2527,-5.2527,-5.1977,-5.1242,-5.0785,-5.0418,-4.9958,-4.9114,-4.8857,-4.8783,-4.8416,-4.8306,-4.8306,-4.8306,-4.8306,-4.8306,-4.8306,-4.7976,-4.7516,-4.7186,-4.5792,-4.4562,-4.4085,-4.3718,-4.3368,-4.2873,-4.2139,-4.1332,-4.0524,-3.9423,-3.8689,-3.8689,-3.8689,-3.8689,-3.8689,-3.8689,-3.8689,-3.8689,-3.8689,-3.8689,-3.8689,-3.8689,-3.8627,-3.8444,-3.8476,-3.8449,-3.8303,-3.7851,-3.7419,-3.7023,-3.654,-3.5892,-4.4242,-4.4906,-4.5397,-4.5397,-4.5397,-4.5397,-4.5397,-4.5397,-4.5397,-4.5397,-4.5397,-4.5397,-4.5397,-4.6119,-4.6625,-4.6339,-4.827,-4.9884,-5.0069,-5.1439,-5.2627,-5.3124,-5.3203,-5.3203,-5.3203,-5.3203,-5.3203,-5.3203,-5.3203,-5.3203,-5.3203,-5.3203,-5.3203,-5.3203,-5.3203,-5.3203,-5.3203,-5.3203,-5.3203,-5.3203,-5.3203,-5.3203,-5.3203,-5.3203,-5.3203,-5.3203,0.0,0.0,-5.3203,-5.3203,-5.3203,-5.3203,-5.3203,-5.3203,-5.3203,-5.3203,-5.3203,-5.3203,-5.3203,-5.3203,-5.3203,-5.3203,-5.2747,-5.2123,-5.2013,-5.1499,-5.0802,-5.0014,-4.9684,-4.9427,-4.8673,-4.8379,-4.8306,-4.8306,-4.8306,-4.8306,-4.8306,-4.8306,-4.8086,-4.7259,-4.5902,-4.4856,-4.4728,-4.4011,-4.3515,-4.3515,-4.28,-4.2066,-4.1352,-3.9848,-3.8836,-3.8726,-3.8689,-3.8689,-3.8689,-3.8689,-3.8689,-3.8689,-3.8689,-3.8689,-3.8689,-3.8689,-3.8611,-3.8433,-3.8444,-3.8401,-3.8207,-3.8257,-3.7894,-3.7176,-3.7176,-3.6725,-4.501,-4.5294,-4.5397,-4.5397,-4.5397,-4.5397,-4.5397,-4.5397,-4.5397,-4.5397,-4.5397,-4.5397,-4.5397,-4.5554,-4.593,-4.6672,-4.7913,-4.9198,-5.0462,-5.1675,-5.2627,0.0,-5.3203,-5.3203,-5.3203,-5.3203,0.0,0.0,0.0,-5.3203,-5.3203,-5.3203,-5.3203,-5.3203,-5.3203,-5.3203,-5.3203,-5.3203,-5.3203,-5.3203,-5.3203,-5.3203,-5.3203,-5.3203,-5.3203,-5.3203,-5.3203,0.0,-5.3203,-5.3203,-5.3203,-5.3203,-5.3203,-5.3203,-5.3203,-5.3203,-5.3203,-5.3203,-5.3203,-5.3203,-5.3203,-5.3203,-5.3115,-5.2858,-5.2197,-5.1903,-5.161,-5.0802,-5.0105,-4.9574,-4.9427,-4.882,-4.8306,-4.8306,-4.8306,-4.8306,-4.8306,-4.8306,-4.8086,-4.7259,-4.6361,-4.548,-4.4801,-4.4011,-4.3515,-4.3515,-4.28,-4.2249,-4.2103,-4.0671,-3.9423,-3.8762,-3.8689,-3.8689,-3.8689,-3.8689,-3.8689,-3.8689,-3.8689,-3.8689,-3.8689,-3.8689,-3.8643,-3.8476,-3.8428,-3.8368,-3.829,-3.8241,-3.8118,-3.8009,-3.8009,-3.7575,-4.5087,-4.5397,-4.5397,-4.5397,-4.5397,-4.5397,-4.5397,-4.5397,-4.5397,-4.5397,-4.5397,-4.5397,-4.5397,-4.5658,-4.598,-4.6459,-4.7829,-4.921,-5.0235,-5.1528,-5.2477,-5.2761,-5.3039,-5.3082,-5.2806,-5.3039,-5.3203,0.0,0.0,-5.3203,-5.3203,-5.3203,-5.3203,-5.3203,-5.3203,-5.3203,-5.3203,-5.3203,-5.3203,-5.3203,-5.3203,-5.3203,-5.3203,-5.3203,-5.3203,-5.3203,-5.3203,0.0,-5.3203,-5.3203,-5.3203,-5.3203,-5.3203,-5.3203,-5.3203,-5.3203,-5.3203,-5.3203,-5.3203,-5.3203,-5.3203,-5.3203,-5.3203,-5.3151,-5.2747,-5.2637,-5.2454,-5.1646,-5.1132,-5.0675,-4.9831,-4.928,-4.8857,-4.8416,-4.8306,-4.8306,-4.8306,-4.8306,-4.8196,-4.7773,-4.7076,-4.6287,-4.548,-4.4672,-4.3975,-4.3534,-4.3167,-4.2763,-4.2359,-4.1258,-4.023,-3.9423,-3.8946,-3.8689,-3.8689,-3.8689,-3.8689,-3.8689,-3.8689,-3.8689,-3.8689,-3.8689,-3.8643,-3.8491,-3.846,-3.8401,-3.8307,-3.8257,-3.8224,-3.8191,-3.8191,-3.8009,-4.5018,-4.5397,-4.5397,-4.5397,-4.5397,-4.5397,-4.5397,-4.5397,-4.5397,-4.5397,-4.5397,-4.5397,-4.5397,-4.5727,-4.608,-4.6204,-4.7565,-4.8936,-4.9744,-5.0984,-5.191,-5.2185,-5.2627,0.0,-5.2268,-5.2627,0.0,0.0,0.0,0.0,-5.3167,-5.3203,-5.3203,-5.3203,-5.3203,-5.3203,-5.3203,-5.3203,-5.3203,-5.3203,-5.3203,-5.3203,-5.3203,-5.3203,-5.3203,-5.3203,-5.3203,0.0,0.0,-5.3203,-5.3203,-5.3203,-5.3203,-5.3203,-5.3203,-5.3203,-5.3203,-5.3203,-5.3203,-5.3203,-5.3203,-5.3203,-5.3203,-5.3203,-5.3203,-5.3203,-5.3057,-5.2417,-5.2123,-5.1646,-5.0235,-4.9721,-4.939,-4.8526,-4.8306,-4.8306,-4.8306,-4.8306,-4.8306,-4.8306,-4.7626,-4.6819,-4.603,-4.5223,-4.4452,-4.3608,-4.3515,-4.3294,-4.2653,-4.1846,-4.1111,-4.0487,-3.9386,-3.8689,-3.8689,-3.8689,-3.8689,-3.8689,-3.8689,-3.8689,-3.8689,-3.8689,-3.8643,-3.8491,-3.8491,-3.8449,-3.8307,-3.8307,-3.8257,-3.8191,-3.8191,-3.8191,-4.5156,-4.5397,-4.5397,-4.5397,-4.5397,-4.5397,-4.5397,-4.5397,-4.5397,-4.5397,-4.5397,-4.5397,-4.5397,-4.545,-4.5624,-4.613,-4.656,-4.7405,-4.9031,-4.9614,-5.0301,-5.153,0.0,0.0,-5.1676,-5.1701,0.0,0.0,0.0,0.0,-5.3146,-5.3203,-5.3203,-5.3203,-5.3203,-5.3203,-5.3203,-5.3203,-5.3203,-5.3203,-5.3203,-5.3203,-5.3203,-5.3203,-5.3203,-5.3203,-5.3203,0.0,0.0,-5.3203,-5.3203,-5.3203,-5.3203,-5.3203,-5.3203,-5.3203,-5.3203,-5.3203,-5.3203,-5.3203,-5.3203,-5.3203,-5.3203,-5.3203,-5.3203,-5.3203,-5.3167,-5.3115,-5.2564,-5.1793,-5.0912,-5.0141,-4.939,-4.8526,-4.8306,-4.8306,-4.8306,-4.8306,-4.8306,-4.8306,-4.7626,-4.6819,-4.603,-4.5223,-4.4452,-4.3608,-4.3515,-4.3478,-4.3387,-4.269,-4.2176,-4.2103,-4.0047,-3.8689,-3.8689,-3.8689,-3.8689,-3.8689,-3.8689,-3.8689,-3.8689,-3.8689,-3.8643,-3.8491,-3.8491,-3.8449,-3.8307,-3.8307,-3.8257,-3.8191,-3.8191,-3.8191,-4.4527,-4.5079,-4.5397,-4.5397,-4.5397,-4.5371,-4.5318,-4.5291,-4.5264,-4.5184,-4.5157,-4.5184,-4.5257,-4.5291,-4.5363,-4.5649,-4.6212,-4.7133,-4.8574,-4.9248,-4.9969,-5.0991,-5.1398,0.0,0.0,0.0,0.0,0.0,0.0,0.0,-5.2244,-5.2828,-5.3203,-5.3203,-5.3203,-5.3203,-5.3203,-5.3203,-5.3203,-5.3203,-5.3203,-5.3203,-5.3203,-5.3203,-5.3203,-5.3203,-5.3203,0.0,0.0,-5.3203,-5.3203,-5.3203,-5.3203,-5.3203,-5.3203,-5.3203,-5.3203,-5.3203,-5.3203,-5.3203,-5.3203,-5.3203,-5.3203,-5.3203,-5.3203,-5.3203,-5.3203,-5.3203,-5.2968,-5.2527,-5.172,-5.0565,-4.939,-4.8526,-4.8306,-4.8306,-4.8306,-4.8306,-4.8306,-4.8306,-4.8049,-4.7553,-4.6746,-4.5957,-4.5149,-4.4342,-4.3791,-4.3515,-4.3515,-4.28,-4.2286,-4.2286,-4.0561,-3.9423,-3.9423,-3.8982,-3.8689,-3.8689,-3.8689,-3.8658,-3.8575,-3.8575,-3.8544,-3.8428,-3.8428,-3.8401,-3.8307,-3.8307,-3.8257,-3.8191,-3.8191,-3.8191,-4.4104,-4.4837,-4.5397,-4.5397,-4.5371,-4.5318,-4.5203,-4.515,-4.5096,-4.5022,-4.5022,-4.5049,-4.5177,-4.5203,-4.523,-4.5371,-4.588,-4.6731,-4.8094,-4.8705,-4.9412,-5.0425,0.0,-5.0991,0.0,-5.091,0.0,0.0,0.0,0.0,0.0,-5.2315,-5.2806,-5.2974,-5.3103,-5.3203,-5.3203,-5.3203,-5.3203,-5.3203,-5.3203,-5.3203,-5.3203,-5.3203,-5.3203,-5.3203,0.0,0.0,0.0,-5.3203,-5.3203,-5.3203,-5.3203,-5.3203,-5.3203,-5.3203,-5.3203,-5.3203,-5.3203,-5.3203,-5.3203,-5.3203,-5.3203,-5.3203,-5.3203,-5.3203,-5.3203,-5.3203,-5.3041,-5.2674,-5.183,-5.0639,-4.939,-4.8526,-4.8306,-4.8306,-4.8306,-4.8306,-4.8306,-4.8306,-4.8306,-4.8049,-4.7223,-4.6654,-4.592,-4.4838,-4.4232,-4.3754,-4.3551,-4.302,-4.2653,-4.2653,-4.1442,-4.0414,-3.9905,-3.9339,-3.8899,-3.8611,-3.8611,-3.8559,-3.846,-3.846,-3.8449,-3.8368,-3.8401,-3.8352,-3.8274,-3.829,-3.8257,-3.8191,-3.8191,-3.8191,-4.4053,-4.4837,-4.5397,-4.5397,-4.5318,-4.5203,-4.5203,-4.5096,-4.5022,-4.5022,-4.5022,-4.5049,-4.5177,-4.5203,-4.523,-4.5371,-4.5397,-4.5949,-4.7493,-4.77,-4.8286,0.0,0.0,-5.0011,-5.0011,0.0,0.0,0.0,0.0,0.0,0.0,-5.1601,-5.1848,-5.2384,-5.2893,-5.3203,-5.3203,-5.3203,-5.3203,-5.3203,-5.3203,-5.3203,-5.3203,-5.3203,-5.3203,0.0,0.0,0.0,0.0,-5.3203,-5.3203,-5.3203,-5.3203,-5.3203,-5.3203,-5.3203,-5.3203,-5.3203,-5.3203,-5.3203,-5.3203,-5.3203,-5.3203,-5.3203,-5.3203,-5.3203,-5.3203,-5.3203,-5.2637,-5.183,-5.1022,-5.0215,-4.939,-4.8526,-4.8306,-4.8306,-4.8306,-4.8306,-4.8306,-4.8306,-4.8306,-4.8049,-4.7223,-4.7076,-4.6526,-4.4948,-4.4691,-4.4415,-4.3625,-4.3515,-4.3515,-4.3515,-4.2763,-4.1592,-3.9918,-3.9808,-3.941,-3.8453,-3.8417,-3.8417,-3.8417,-3.8417,-3.8368,-3.8307,-3.8368,-3.832,-3.8191,-3.8257,-3.8257,-3.8191,-3.8191,-3.8191,-4.4061,-4.4627,-4.5157,-4.523,-4.515,-4.5049,-4.4968,-4.4886,-4.4831,-4.4748,-4.472,-4.4776,-4.4913,-4.494,-4.4968,-4.5103,-4.513,-4.5672,-4.7327,0.0,0.0,-4.9809,-5.0011,-5.0011,0.0,0.0,0.0,0.0,0.0,0.0,0.0,-5.0857,-5.1296,-5.1824,-5.2361,-5.2672,-5.2672,-5.3017,-5.3203,-5.3203,-5.3203,-5.3203,-5.3203,-5.3203,0.0,0.0,0.0,0.0,0.0,-5.3203,-5.3203,-5.3203,-5.3203,-5.3203,-5.3203,-5.3203,-5.3203,-5.3203,-5.3203,-5.3203,-5.3203,-5.3203,-5.3203,-5.3203,-5.3203,-5.3203,-5.3203,-5.3203,-5.3041,-5.2527,-5.1169,-5.0618,-5.0068,-4.8636,-4.8306,-4.8306,-4.8306,-4.8306,-4.8306,-4.8306,-4.8306,-4.8233,-4.7957,-4.7443,-4.6746,-4.57,-4.5039,-4.4415,-4.3625,-4.3515,-4.3515,-4.3515,-4.3294,-4.269,-4.1576,-4.0903,-4.0195,-3.941,-3.9272,-3.8968,-3.8356,-3.832,-3.8307,-3.8224,-3.8257,-3.8241,-3.8191,-3.8207,-3.8207,-3.8191,-3.8191,-3.8191,-4.4076,-4.4495,-4.5022,-4.5096,-4.5015,-4.4913,-4.4831,-4.4748,-4.4692,-4.4615,-4.4615,-4.4643,-4.4776,-4.4803,-4.4831,-4.4995,-4.5049,-4.5617,-4.7186,0.0,0.0,-4.9809,0.0,0.0,0.0,0.0,0.0,0.0,0.0,0.0,0.0,-5.032,-5.064,-5.0991,-5.1701,-5.2126,-5.2126,-5.2431,-5.2694,-5.2908,-5.2908,-5.3017,-5.3203,-5.3203,0.0,0.0,0.0,0.0,0.0,-5.3203,-5.3203,-5.3203,-5.3203,-5.3203,-5.3203,-5.3203,-5.3203,-5.3203,-5.3203,-5.3203,-5.3203,-5.3203,-5.3203,-5.3203,-5.3203,-5.3203,-5.3203,-5.3203,-5.3203,-5.2894,-5.1573,-5.1022,-5.0472,-4.9114,-4.8526,-4.8306,-4.8306,-4.8306,-4.8306,-4.8306,-4.8306,-4.8306,-4.8306,-4.7883,-4.7259,-4.6471,-4.5663,-4.4856,-4.4048,-4.3681,-4.3515,-4.3515,-4.3515,-4.3294,-4.28,-4.1874,-4.0985,-4.0185,-3.9736,-3.9288,-3.8729,-3.8403,-3.8241,-3.8191,-3.8191,-3.8191,-3.8191,-3.8191,-3.8191,-3.8191,-3.8191,-3.8191,0.0,-4.4448,-4.4995,-4.4995,-4.4886,-4.4776,-4.4776,-4.4665,0.0,-4.4615,-4.4615,-4.4643,-4.4748,-4.4776,-4.4831,-4.4968,-4.5138,-4.5679,0.0,-4.7545,0.0,0.0,-5.0011,0.0,0.0,0.0,0.0,0.0,0.0,0.0,0.0,-5.0011,-5.0011,-5.0011,-5.0964,-5.15,-5.1525,-5.1576,-5.1848,-5.2338,-5.2338,-5.2627,-5.3124,-5.3124,0.0,0.0,0.0,0.0,0.0,-5.3203,-5.3203,-5.3203,-5.3203,-5.3203,-5.3203,-5.3203,-5.3203,-5.3203,-5.3203,-5.3203,-5.3203,-5.3203,-5.3203,-5.3203,-5.3203,-5.3203,-5.3203,-5.3203,-5.3203,-5.3004,-5.2197,-5.1389,-5.0618,-4.9794,-4.893,-4.8306,-4.8306,-4.8306,-4.8306,-4.8306,-4.8306,-4.8306,-4.8306,-4.8306,-4.8049,-4.7223,-4.6471,-4.5663,-4.4801,-4.4048,-4.3534,-4.3515,-4.3497,-4.3497,-4.3497,-4.2627,-4.1721,-4.085,-4.0019,-3.955,-3.9478,-3.8753,-3.8372,-3.8372,-3.8299,-3.8299,-3.8299,-3.8227,-3.8191,-3.8191,-3.8191,-3.8191,-4.4461,0.0,-4.472,-4.4831,-4.4748,-4.4671,0.0,-4.4643,-4.4615,-4.4615,-4.4615,-4.4615,-4.4643,-4.4671,-4.4671,-4.4665,-4.5279,-4.6045,-4.6907,0.0,0.0,-4.9947,-5.0011,0.0,0.0,0.0,0.0,0.0,0.0,0.0,0.0,-5.0011,-5.0011,-5.0011,-5.0235,-5.0592,-5.0991,-5.1373,-5.1651,-5.1775,-5.1775,-5.2042,-5.2604,-5.2604,0.0,0.0,0.0,0.0,-5.2627,-5.3039,-5.3203,-5.3203,-5.3203,-5.3203,-5.3203,-5.3203,-5.3203,-5.3203,-5.3203,-5.3203,-5.3203,-5.3203,-5.3203,-5.3203,-5.3203,-5.3203,-5.3203,-5.3203,-5.3203,-5.3004,-5.2197,-5.1389,-5.0618,-4.9794,-4.893,-4.8306,-4.8306,-4.8306,-4.8306,-4.8306,-4.8306,-4.8306,-4.8306,-4.8306,-4.8049,-4.7223,-4.6929,-4.6305,-4.4874,-4.4525,-4.4195,-4.3588,-4.3445,-4.3429,-4.3429,-4.3104,-4.2577,-4.1738,-4.1343,-4.0872,-4.0274,-4.0057,-3.9948,-3.9948,-3.9405,-3.9133,-3.9133,-3.8517,-3.8191,-3.8191,-3.8191,-3.8191,-4.4615,-4.4615,-4.4615,-4.4665,-4.4637,-4.4615,-4.4615,-4.4615,-4.4615,-4.4615,-4.4615,-4.4615,-4.4615,-4.4615,-4.4615,-4.4615,-4.5337,0.0,0.0,0.0,-4.9649,-4.9772,-4.9923,0.0,0.0,0.0,0.0,0.0,0.0,0.0,0.0,-5.0011,-5.0011,-5.0011,-5.0011,-5.012,-5.0425,-5.0694,-5.0991,-5.1218,-5.1218,-5.15,-5.2018,-5.2018,-5.2018,0.0,0.0,0.0,-5.2408,-5.2717,-5.2995,-5.3203,-5.3203,-5.3203,-5.3203,-5.3203,-5.3203,-5.3203,-5.3203,-5.3203,-5.3203,-5.3203,-5.3203,-5.3203,-5.3203,-5.3203,-5.3203,-5.3203,-5.3203,-5.3093,-5.2674,-5.1683,-5.0692,-5.0251,-4.9187,-4.8306,-4.8306,-4.8306,-4.8306,-4.8306,-4.8306,-4.8306,-4.8306,-4.8306,-4.8159,-4.77,-4.7295,-4.6763,-4.5883,-4.5077,-4.4382,-4.3943,-4.3541,-4.3304,-4.3304,-4.3196,-4.296,-4.2523,-4.2014,-4.1488,-4.1053,-4.0691,-4.051,-4.051,-4.013,-3.9912,-3.9912,-3.9478,-3.926,-3.926,-3.926,-3.926,-4.4615,-4.4615,-4.4615,-4.4615,-4.4615,-4.4615,-4.4615,-4.4615,-4.4615,-4.4615,-4.4615,-4.4615,-4.4615,-4.4615,-4.4649,0.0,0.0,0.0,-4.8377,-4.9095,-4.9441,-4.9505,0.0,0.0,0.0,0.0,0.0,0.0,0.0,0.0,0.0,-4.9918,-4.9947,-4.9947,-4.9982,-5.0011,-5.0011,-5.0011,-5.0235,-5.0667,-5.0667,-5.0964,-5.1475,-5.1475,-5.1475,-5.1475,0.0,0.0,-5.2173,-5.2244,-5.2568,-5.3082,-5.3082,-5.3082,-5.3082,-5.3124,-5.3103,-5.306,-5.3124,-5.3167,-5.3203,-5.3203,-5.3203,-5.3146,-5.3146,-5.3146,-5.3146,-5.3146,-5.3167,-5.3203,-5.3203,-5.2013,-5.0802,-5.0802,-4.9517,-4.8306,-4.8306,-4.8306,-4.8306,-4.8306,-4.8306,-4.8306,-4.8306,-4.8306,-4.8306,-4.8306,-4.766,-4.7163,-4.6997,-4.5715,-4.4654,-4.4436,-4.378,-4.3342,-4.3196,-4.3105,-4.3067,-4.3067,-4.2304,-4.1886,-4.1886,-4.1234,-4.0872,-4.0872,-4.0727,-4.0691,-4.0691,-4.0546,-4.051,-4.051,-4.051,-4.051,-4.4615,-4.4615,-4.4615,-4.4615,-4.4615,-4.4615,-4.4615,-4.4615,-4.4615,-4.4615,-4.4615,-4.4615,-4.4615,-4.4615,-4.4818,0.0,0.0,-4.7988,0.0,0.0,-4.932,0.0,0.0,0.0,0.0,0.0,0.0,0.0,0.0,0.0,0.0,-4.9679,-4.9737,-4.9737,-4.9889,-5.0011,-5.0011,-5.0011,-5.004,-5.012,-5.012,-5.0397,-5.0937,-5.0937,-5.0937,-5.0964,0.0,-5.1373,-5.1096,-5.1525,-5.2018,-5.2522,-5.2522,-5.2522,-5.2545,-5.2893,-5.2761,-5.2431,-5.2872,-5.3103,-5.3203,-5.3203,-5.3124,-5.3039,-5.3039,-5.3039,-5.3039,-5.3039,-5.3103,-5.3203,-5.3203,-5.2013,-5.0802,-5.0802,-4.9517,-4.8306,-4.8306,-4.8306,-4.8306,-4.8306,-4.8306,-4.8306,-4.8306,-4.8306,-4.8306,-4.8306,-4.8136,-4.7785,-4.709,-4.6664,-4.5894,-4.4545,-4.4234,-4.3869,-4.3159,-4.2994,-4.292,-4.292,-4.2792,-4.2701,-4.2701,-4.2592,-4.252,-4.252,-4.185,-4.1524,-4.1524,-4.0836,-4.051,-4.051,-4.051,-4.051,-4.4468,-4.4615,-4.4615,-4.4615,-4.4615,-4.4615,-4.4615,-4.4615,-4.4615,-4.4615,-4.4615,-4.4615,-4.4615,-4.4615,-4.4987,-4.6109,0.0,-4.8203,-4.9097,-4.9199,0.0,0.0,0.0,0.0,0.0,0.0,0.0,0.0,0.0,0.0,0.0,0.0,-4.959,-4.959,-4.9683,-4.9742,-4.9742,-4.9801,-4.9889,-5.0011,-5.0011,-5.012,-5.0341,-5.0285,-5.0194,-5.0194,0.0,-5.0495,-5.055,-5.0867,-5.1337,-5.1813,-5.1922,-5.1922,-5.1861,-5.2278,-5.2315,-5.2161,-5.2717,-5.2915,-5.2995,-5.306,-5.3017,-5.2893,-5.2959,-5.2937,-5.2893,-5.2959,-5.3103,-5.3203,-5.3203,-5.1972,-5.0684,-5.0684,-4.9438,-4.8265,-4.8265,-4.8267,-4.8306,-4.8306,-4.8306,-4.8306,-4.8306,-4.8306,-4.8306,-4.8306,-4.8246,-4.8021,-4.7597,-4.7097,-4.627,-4.5011,-4.4464,-4.3864,-4.3066,-4.2956,-4.2901,-4.2901,-4.2901,-4.2901,-4.2901,-4.2901,-4.2901,-4.2901,-4.252,-4.2339,-4.2339,-4.1977,-4.1796,-4.1796,-4.1796,-4.1796,-4.415,-4.4355,-4.4384,-4.4559,-4.4615,-4.4615,-4.4615,-4.4615,-4.4615,-4.4615,-4.4615,-4.4615,-4.4615,-4.4886,0.0,-4.6853,-4.7699,-4.8376,-4.8917,0.0,0.0,0.0,0.0,0.0,0.0,0.0,0.0,0.0,0.0,0.0,0.0,0.0,-4.9411,-4.9411,-4.9471,-4.95,-4.95,-4.959,-4.9772,-4.9918,-4.9982,-5.0011,-5.0011,-4.9801,-4.9708,-4.9708,-4.956,-4.9732,-5.0131,-5.0209,-5.0562,-5.1095,-5.1235,-5.126,-5.1251,-5.1465,-5.1725,-5.1994,-5.2431,-5.2672,-5.2806,-5.2915,-5.285,-5.2783,-5.2872,-5.2828,-5.2783,-5.2872,-5.3017,-5.3103,-5.3203,-5.1894,-5.0602,-5.0602,-4.9338,-4.8168,-4.8187,-4.8246,-4.8267,-4.8267,-4.8267,-4.8267,-4.8229,-4.8248,-4.8267,-4.8267,-4.8246,-4.8148,-4.8012,-4.7381,-4.6626,-4.5691,-4.4874,-4.3969,-4.2955,-4.2901,-4.2901,-4.2901,-4.2901,-4.2901,-4.2901,-4.2901,-4.2901,-4.2901,-4.2901,-4.2901,-4.2901,-4.2901,-4.2901,-4.2901,-4.2901,-4.2901,-4.341,-4.3588,-4.3735,-4.444,-4.4615,-4.4615,-4.4615,-4.4615,-4.4615,-4.4615,-4.4615,-4.4615,-4.4615,-4.5732,-4.6887,-4.7669,-4.8443,-4.8951,0.0,0.0,0.0,0.0,0.0,0.0,0.0,0.0,0.0,0.0,0.0,0.0,0.0,0.0,0.0,-4.9229,-4.9381,-4.95,-4.95,-4.95,-4.956,-4.9708,-4.9889,-5.0011,-5.0011,-4.9801,-4.9708,-4.9708,-4.956,-4.95,-4.956,-4.956,-4.9907,-5.0377,-5.0404,-5.0589,-5.0885,-5.0404,-5.0893,-5.1824,-5.1873,-5.2291,-5.2806,-5.2806,-5.2739,-5.2613,-5.2613,-5.2613,-5.2613,-5.2613,-5.2739,-5.2908,-5.3161,-5.1894,-5.0602,-5.0602,-4.9297,-4.8032,-4.8168,-4.8207,-4.8207,-4.8207,-4.8207,-4.8168,-4.8032,-4.8111,-4.8207,-4.8207,-4.8207,-4.8148,-4.8012,-4.7891,-4.7461,-4.6504,-4.5707,-4.4584,-4.3046,-4.2901,-4.2901,-4.2901,-4.2901,-4.2901,-4.2901,-4.2901,-4.2901,-4.2901,-4.2901,-4.2901,-4.2901,-4.2901,-4.2901,-4.2901,-4.2901,-4.2901,-4.3196,-4.3495,-4.3676,-4.4412,-4.4615,-4.4615,-4.4615,-4.4615,-4.4615,-4.4615,-4.4959,-4.5399,-4.5872,0.0,-4.7597,-4.7838,-4.8545,-4.9018,0.0,0.0,0.0,0.0,0.0,0.0,0.0,0.0,0.0,0.0,0.0,0.0,0.0,0.0,0.0,-4.9077,-4.9138,-4.9168,-4.9168,-4.926,-4.935,-4.9381,-4.9594,-4.9683,-4.9683,-4.9471,-4.9381,-4.9381,-4.9229,-4.9168,-4.9202,-4.926,-4.9406,-4.9644,-4.9644,-4.9698,-4.9873,-4.993,-5.0272,-5.0706,-5.1449,-5.1824,-5.2114,-5.2545,-5.2604,-5.2536,-5.2568,-5.2581,-5.2536,-5.2568,-5.2635,-5.2761,-5.3017,-5.2111,-5.1034,-5.0571,-4.956,-4.8566,-4.8113,-4.8088,-4.8168,-4.8108,-4.8148,-4.8168,-4.8012,-4.8032,-4.8088,-4.8088,-4.8088,-4.8048,-4.7947,-4.7922,-4.7534,-4.6576,-4.5345,-4.4295,-4.3679,-4.3191,-4.2901,-4.2901,-4.2901,-4.2901,-4.2901,-4.2901,-4.2901,-4.2901,-4.2901,-4.2901,-4.2901,-4.2901,-4.2901,-4.2901,-4.2901,-4.2901,-4.2892,-4.3347,-4.3676,-4.4412,-4.4615,-4.4615,-4.4615,-4.4615,-4.4682,-4.4919,-4.5534,-4.6278,-4.7022,-4.7564,0.0,0.0,-4.868,0.0,0.0,0.0,0.0,0.0,0.0,0.0,0.0,0.0,0.0,0.0,0.0,0.0,0.0,-4.9018,-4.9018,0.0,-4.9018,-4.9018,-4.9018,-4.9077,-4.9138,-4.9138,-4.926,-4.9381,-4.9471,-4.929,-4.9199,-4.9199,-4.9046,-4.9018,-4.9018,-4.9077,-4.9138,-4.9138,-4.9138,-4.9138,-4.9168,-4.9496,-4.9762,-5.0017,-5.0786,-5.1157,-5.1414,-5.2066,-5.2244,-5.2233,-5.2268,-5.2397,-5.248,-5.2315,-5.2408,-5.2627,-5.2828,-5.2215,-5.1304,-5.0554,-4.9689,-4.8841,-4.8063,-4.8004,-4.8068,-4.7988,-4.8048,-4.8048,-4.7947,-4.7931,-4.7988,-4.7988,-4.7972,-4.7988,-4.7902,-4.7881,-4.7534,-4.6576,-4.5526,-4.4657,-4.415,-4.3607,-4.3191,-4.2937,-4.2901,-4.2901,-4.2901,-4.2901,-4.2901,-4.2901,-4.2901,-4.2901,-4.2901,-4.2901,-4.2901,-4.2901,-4.2901,-4.2901,-4.23,-4.2984,-4.3676,-4.4412,-4.4587,-4.4587,-4.4587,-4.4615,-4.4818,-4.5568,-4.6312,-4.7022,-4.777,-4.7906,0.0,-4.8883,0.0,0.0,0.0,0.0,0.0,0.0,0.0,0.0,0.0,0.0,0.0,0.0,0.0,0.0,0.0,-4.9018,-4.9018,-4.9018,-4.9018,-4.9018,-4.9018,-4.9018,-4.9018,-4.9018,-4.9018,-4.9168,-4.9471,-4.929,-4.9199,-4.9199,-4.9046,-4.9018,-4.9018,-4.9018,-4.9018,-4.9018,-4.9018,-4.9018,-4.9018,-4.9018,-4.9376,-4.9873,-4.9873,-5.0237,-5.0805,-5.1424,-5.1576,-5.1576,-5.1576,-5.1982,-5.2364,-5.1761,-5.2042,-5.2503,-5.2545,-5.2045,-5.1318,-5.0482,-4.9597,-4.8735,-4.8042,-4.7881,-4.7881,-4.7881,-4.7881,-4.7861,-4.7699,-4.7819,-4.7881,-4.7881,-4.7947,-4.7951,-4.7902,-4.7881,-4.7513,-4.6613,-4.6504,-4.5852,-4.4258,-4.4114,-4.3751,-4.2955,-4.2901,-4.2901,-4.2901,-4.2901,-4.2901,-4.2901,-4.2901,-4.2901,-4.2901,-4.2901,-4.2901,-4.2901,-4.2901,-4.2901,-4.1624,-4.23,-4.2862,-4.3045,-4.3469,-4.3989,-4.4556,-4.5014,-4.5737,-4.6989,-4.7428,-4.78,-4.8545,-4.868,0.0,-4.8951,0.0,0.0,0.0,0.0,0.0,0.0,0.0,0.0,0.0,0.0,0.0,0.0,0.0,0.0,0.0,-4.9018,-4.9018,-4.9018,-4.9018,-4.9018,-4.9018,-4.9018,-4.9018,-4.9018,-4.9018,-4.908,-4.9172,-4.9111,-4.9046,-4.908,-4.9018,-4.9018,-4.9018,-4.9018,-4.9018,-4.9018,-4.9018,-4.9018,-4.9018,-4.9018,-4.9107,-4.935,-4.9762,-5.0017,-5.0209,-5.0778,-5.0964,-5.0964,-5.0964,-5.1069,-5.1209,-5.0991,-5.1388,-5.1884,-5.1873,-5.162,-5.1193,-5.0461,-4.9597,-4.8713,-4.7901,-4.784,-4.7861,-4.7798,-4.784,-4.7861,-4.7699,-4.772,-4.7777,-4.7777,-4.7762,-4.7783,-4.7741,-4.7777,-4.7648,-4.7373,-4.683,-4.6323,-4.5816,-4.4729,-4.4005,-4.3751,-4.3227,-4.2901,-4.2901,-4.2901,-4.2901,-4.2901,-4.2901,-4.2901,-4.2901,-4.2901,-4.2901,-4.2901,-4.2901,-4.2901,-4.1459,-4.2173,-4.2831,-4.2583,-4.28,-4.3462,-4.4823,-4.5868,-4.6853,-4.7703,-4.8108,-4.8477,-4.8917,-4.9018,0.0,0.0,0.0,0.0,0.0,0.0,0.0,0.0,0.0,0.0,0.0,0.0,0.0,0.0,0.0,0.0,0.0,-4.9018,-4.9018,-4.9018,-4.9018,-4.9018,-4.9018,-4.9018,-4.9018,-4.9018,-4.9018,-4.9018,-4.9018,-4.9018,-4.9018,-4.9018,-4.9018,-4.9018,-4.9018,-4.9018,-4.9018,-4.9018,-4.9018,-4.9018,-4.9018,-4.9018,-4.9018,-4.9046,-4.9406,-4.9526,-4.9644,-5.0209,-5.0404,-5.0404,-5.0404,-5.0535,-5.067,-5.0425,-5.0813,-5.1164,-5.0906,-5.0456,-5.0139,-5.0198,-4.9554,-4.8656,-4.788,-4.7593,-4.7551,-4.7678,-4.7593,-4.7515,-4.7678,-4.7699,-4.7699,-4.7699,-4.7699,-4.7699,-4.7699,-4.7699,-4.7699,-4.7699,-4.7265,-4.6866,-4.654,-4.5599,-4.4765,-4.415,-4.3643,-4.3208,-4.2918,-4.2901,-4.2901,-4.2901,-4.2901,-4.2901,-4.2901,-4.2901,-4.2901,-4.2901,-4.2901,-4.2901,-4.1591,-4.2332,-4.3166,-4.2489,-4.246,-4.3166,-4.523,-4.6879,-4.7912,-4.7973,-4.8545,-4.9018,-4.9018,-4.9018,-4.9018,0.0,0.0,0.0,0.0,0.0,0.0,0.0,0.0,0.0,0.0,0.0,0.0,0.0,0.0,0.0,0.0,-4.9018,-4.9018,-4.9018,-4.9018,-4.9018,-4.9018,-4.9018,-4.9018,-4.9018,-4.9018,-4.9018,-4.9018,-4.9018,-4.9018,-4.9018,-4.9018,-4.9018,-4.9018,-4.9018,-4.9018,-4.9018,-4.9018,-4.9018,-4.9018,-4.9018,-4.9018,-4.9018,-4.9018,-4.9018,-4.9077,-4.9644,-4.9849,-4.9849,-4.9849,-5.0153,-5.0425,-4.9959,-5.0209,-5.0468,-4.9732,-4.8951,-4.8635,-4.9631,-4.9278,-4.8518,-4.7781,-4.7218,-4.7039,-4.7551,-4.7173,-4.7017,-4.7515,-4.7636,-4.7636,-4.7678,-4.7699,-4.7699,-4.7699,-4.7699,-4.7699,-4.7699,-4.7699,-4.7409,-4.6685,-4.654,-4.5888,-4.4403,-4.4186,-4.3751,-4.3046,-4.2937,-4.2901,-4.2901,-4.2901,-4.2901,-4.2901,-4.2901,-4.2901,-4.2901,-4.2901,-4.2901,-4.0749,-4.1294,-4.1787,-4.1091,-4.221,-4.3706,-4.4756,-4.6518,-4.8055,-4.8624,-4.8883,-4.9018,-4.9018,-4.9018,0.0,0.0,0.0,0.0,0.0,0.0,0.0,0.0,0.0,0.0,0.0,0.0,0.0,0.0,0.0,0.0,-4.9018,-4.9018,-4.9018,-4.9018,-4.9018,-4.9018,-4.9018,-4.9018,-4.9018,0.0,-4.9018,-4.9018,-4.9018,-4.9018,-4.9018,-4.9018,-4.9018,-4.9018,-4.9018,-4.9018,-4.9018,-4.9018,-4.9018,-4.9018,-4.9018,-4.9018,-4.9018,-4.9018,-4.9018,-4.9018,-4.9049,-4.9138,-4.9199,-4.9199,-4.9199,-4.9256,-4.9346,-4.9229,-4.9644,-4.9901,-4.9167,-4.8695,-4.8317,-4.8003,-4.7595,-4.7299,-4.712,-4.6994,-4.6913,-4.7062,-4.6637,-4.6448,-4.6994,-4.7062,-4.7196,-4.7636,-4.7699,-4.7699,-4.7699,-4.7699,-4.7699,-4.7699,-4.7699,-4.7627,-4.7482,-4.6866,-4.6359,-4.5997,-4.4802,-4.4005,-4.386,-4.3263,-4.2901,-4.2901,-4.2901,-4.2901,-4.2901,-4.2901,-4.2901,-4.2901,-4.2901,-4.2901,-4.047,-4.0888,-4.126,-4.0646,-4.2119,-4.3783,-4.4191,-4.6159,-4.8032,-4.8418,-4.8767,-4.9018,-4.9018,0.0,0.0,0.0,0.0,0.0,0.0,0.0,0.0,0.0,0.0,0.0,0.0,0.0,0.0,0.0,0.0,-4.9018,-4.9018,-4.9018,-4.9018,-4.9018,-4.9018,-4.9018,-4.9018,-4.9018,-4.9018,-4.9018,-4.9018,-4.9018,-4.9018,-4.9018,-4.9018,-4.9018,-4.9018,-4.9018,-4.9018,-4.9018,-4.9018,-4.9018,-4.9018,-4.9018,-4.9018,-4.9018,-4.9018,-4.9018,-4.9018,-4.9018,-4.9018,-4.9018,-4.9018,-4.9018,-4.9018,-4.9018,-4.9018,-4.9018,-4.8957,-4.8783,-4.803,-4.747,-4.6926,-4.6167,-4.6265,-4.6519,-4.6519,-4.6328,-4.6196,-4.6472,-4.6074,-4.5875,-4.6412,-4.673,-4.7084,-4.7615,-4.7472,-4.7407,-4.7657,-4.7472,-4.7407,-4.7678,-4.7699,-4.7699,-4.7699,-4.7337,-4.6902,-4.654,-4.5707,-4.491,-4.4114,-4.3679,-4.33,-4.2901,-4.2901,-4.2901,-4.2901,-4.2901,-4.2901,-4.2901,-4.2901,-4.2901,-4.0401,-4.0715,-4.1057,-4.0612,-4.2015,-4.3539,-4.3677,-4.5658,-4.7572,-4.7869,-4.8482,-4.8954,-4.8829,0.0,0.0,0.0,0.0,0.0,0.0,0.0,0.0,0.0,0.0,0.0,0.0,0.0,0.0,0.0,0.0,-4.9018,-4.9018,-4.9018,-4.9018,-4.9018,-4.9018,-4.9018,-4.9018,-4.9018,-4.9018,-4.9018,-4.9018,-4.9018,-4.9018,-4.9018,-4.9018,-4.9018,-4.9018,-4.9018,-4.9018,-4.9018,-4.9018,-4.9018,-4.9018,-4.9018,-4.9018,-4.9018,-4.9018,-4.9018,-4.9018,-4.9018,-4.9018,-4.9018,-4.9018,-4.9018,-4.9018,-4.9018,-4.9018,-4.9018,-4.8477,-4.7733,-4.6989,-4.6244,-4.55,-4.4784,-4.5249,-4.585,-4.5925,-4.5597,-4.5416,-4.5875,-4.5597,-4.5416,-4.5875,-4.6424,-4.6913,-4.7472,-4.7107,-4.6972,-4.7472,-4.7173,-4.7062,-4.7493,-4.7636,-4.7699,-4.7699,-4.7699,-4.7409,-4.6757,-4.6576,-4.5888,-4.4584,-4.4258,-4.3788,-4.3118,-4.2973,-4.2901,-4.2901,-4.2901,-4.2901,-4.2901,-4.2901,-4.2901,-4.0261,-4.047,-4.0578,-4.0539,-4.1626,-4.2931,-4.3539,-4.4897,-4.6343,0.0,-4.8482,-4.8798,0.0,0.0,0.0,0.0,0.0,0.0,0.0,0.0,0.0,0.0,0.0,0.0,0.0,0.0,0.0,0.0,-4.9018,-4.9018,-4.9018,-4.9018,-4.9018,-4.9018,-4.9018,-4.9018,-4.9018,-4.9018,-4.9018,-4.9018,-4.9018,-4.9018,-4.9018,-4.9018,-4.9018,-4.9018,-4.9018,-4.9018,-4.9018,-4.9018,-4.9018,-4.9018,-4.9018,-4.9018,-4.9018,-4.9018,-4.9018,-4.9018,-4.9018,-4.9018,-4.9018,-4.9018,-4.9018,-4.9018,-4.9018,-4.9018,-4.9018,-4.9018,-4.8477,-4.7733,-4.6989,-4.6244,-4.55,-4.4784,-4.4692,-4.4906,-4.532,-4.5372,-4.5346,-4.539,-4.5372,-4.5312,-4.539,-4.585,-4.6365,-4.6949,-4.6566,-4.6389,-4.6949,-4.6913,-4.6949,-4.7017,-4.7428,-4.7699,-4.7699,-4.7699,-4.7663,-4.7554,-4.6902,-4.6395,-4.6178,-4.4838,-4.4041,-4.3932,-4.3263,-4.2901,-4.2901,-4.2901,-4.2901,-4.2901,-4.2901,-4.2901,-4.0046,-4.0261,-4.0401,-4.0505,-4.1309,-4.2248,-4.2945,-4.4149,-4.5437,-4.6488,-4.7238,0.0,0.0,0.0,0.0,0.0,0.0,0.0,0.0,0.0,0.0,0.0,0.0,0.0,0.0,0.0,0.0,0.0,-4.9018,-4.9018,-4.9018,-4.9018,-4.9018,-4.9018,-4.9018,-4.9018,-4.9018,-4.9018,-4.9018,-4.9018,-4.9018,-4.9018,-4.9018,-4.9018,-4.9018,-4.9018,-4.9018,-4.9018,-4.9018,-4.9018,-4.9018,-4.9018,-4.9018,-4.9018,-4.9018,-4.9018,-4.9018,-4.9018,-4.9018,-4.9018,-4.9018,-4.9018,-4.9018,-4.9018,-4.9018,-4.9018,-4.9018,-4.9018,-4.8173,-4.7225,-4.6887,-4.594,-4.4993,-4.4682,-4.4615,-4.4637,-4.4852,-4.4906,-4.4906,-4.4906,-4.4906,-4.4981,-4.5267,-4.5494,-4.5925,-4.6776,-4.6172,-4.595,-4.6776,-4.64,-4.622,-4.6822,-4.7107,-4.7385,-4.7678,-4.7699,-4.7572,-4.7276,-4.6916,-4.639,-4.5624,-4.4793,-4.4094,-4.3663,-4.3165,-4.2901,-4.2901,-4.2901,-4.2901,-4.2901,-4.2901,-4.2901,-3.9839,-4.0051,-4.0261,-4.0401,-4.0957,-4.1633,-4.2196,0.0,-4.4526,0.0,0.0,0.0,0.0,0.0,0.0,0.0,0.0,0.0,0.0,0.0,0.0,0.0,0.0,0.0,0.0,0.0,0.0,0.0,-4.9018,-4.9018,-4.9018,-4.9018,-4.9018,-4.9018,-4.9018,-4.9018,-4.9018,-4.9018,-4.9018,-4.9018,-4.9018,-4.9018,-4.9018,-4.9018,-4.9018,-4.9018,-4.9018,-4.9018,-4.9018,-4.9018,-4.9018,-4.9018,-4.9018,-4.9018,-4.9018,-4.9018,-4.9018,-4.9018,-4.9018,-4.9018,-4.9018,-4.9018,-4.9018,-4.9018,-4.9018,-4.9018,-4.9018,-4.9018,-4.8071,-4.7022,-4.6853,-4.5838,-4.4852,-4.4649,-4.4615,-4.4615,-4.4615,-4.4615,-4.4615,-4.4615,-4.4615,-4.472,-4.5062,-4.5108,-4.5451,-4.6341,-4.5734,-4.5451,-4.64,-4.58,-4.5597,-4.6424,-4.673,-4.7062,-4.745,-4.7615,-4.745,-4.6913,-4.689,-4.6376,-4.5256,-4.4845,-4.4245,-4.3429,-4.314,-4.291,-4.2729,-4.2844,-4.2844,-4.2729,-4.2844,-4.2901,-3.9732,-3.9839,-4.0081,-4.0261,-4.0675,-4.1157,0.0,0.0,-4.363,0.0,0.0,0.0,0.0,0.0,0.0,0.0,0.0,0.0,0.0,0.0,0.0,0.0,0.0,0.0,0.0,0.0,0.0,0.0,-4.9018,-4.9018,-4.9018,-4.9018,-4.9018,-4.9018,-4.9018,-4.9018,-4.9018,-4.9018,-4.9018,-4.9018,-4.9018,-4.9018,-4.9018,-4.9018,-4.9018,-4.9018,-4.9018,-4.9018,-4.9018,-4.9018,-4.9018,-4.9018,-4.9018,-4.9018,-4.9018,-4.9018,-4.9018,-4.9018,-4.9018,-4.9018,-4.9018,-4.9018,-4.9018,-4.9018,-4.9018,-4.9018,-4.9018,-4.9018,-4.8443,-4.7699,-4.6989,-4.621,-4.5466,-4.4784,-4.4615,-4.4615,-4.4615,-4.4615,-4.4615,-4.4615,-4.4615,-4.4615,-4.4643,-4.4643,-4.4797,-4.532,-4.4961,-4.4797,-4.532,-4.5312,-4.5346,-4.5399,-4.6293,-4.689,-4.6949,-4.7407,-4.745,-4.6913,-4.689,-4.6624,-4.6088,-4.5291,-4.4518,-4.3804,-4.3442,-4.2929,-4.2257,-4.2674,-4.2655,-4.2257,-4.2674,-4.2901,-3.9661,-3.9768,-3.9839,-4.0081,-4.0198,-4.0502,-4.1102,-4.1967,-4.2879,-4.3648,0.0,0.0,0.0,0.0,0.0,0.0,0.0,0.0,0.0,0.0,0.0,0.0,0.0,0.0,0.0,0.0,0.0,0.0,0.0,-4.7999,-4.8956,-4.8545,-4.8513,-4.9018,-4.9018,-4.9018,-4.9018,-4.9018,-4.9018,-4.9018,-4.9018,-4.9018,-4.9018,-4.9018,-4.9018,-4.9018,-4.9018,-4.9018,-4.9018,-4.9018,-4.9018,-4.9018,-4.9018,-4.9018,-4.9018,-4.9018,-4.9018,-4.9018,-4.9018,-4.9018,-4.9018,-4.9018,-4.9018,-4.9018,-4.9018,-4.9018,-4.9018,-4.9018,-4.8477,-4.7838,-4.7597,-4.6955,-4.6346,-4.6041,-4.6036,-4.6036,-4.6036,-4.5292,-4.4615,-4.4615,-4.4615,-4.4615,-4.4615,-4.4615,-4.4776,-4.5241,-4.4906,-4.4776,-4.5241,-4.5035,-4.4954,-4.5267,-4.5648,-4.6,-4.6376,-4.6868,-4.6799,-4.5925,-4.6196,-4.6035,-4.5169,-4.4673,-4.4029,-4.3291,-4.2998,-4.2494,-4.176,-4.2518,-4.2671,-4.2216,-4.2691,-4.2901,-3.9884,-3.9739,-3.9661,-3.9839,-3.9869,-3.9924,-4.0521,0.0,-4.198,-4.2687,0.0,0.0,0.0,0.0,0.0,0.0,0.0,0.0,0.0,0.0,0.0,0.0,0.0,0.0,0.0,0.0,0.0,0.0,0.0,0.0,-4.8226,-4.7803,-4.7869,-4.8608,-4.8861,-4.9018,-4.9018,-4.9018,-4.9018,-4.9018,-4.9018,-4.9018,-4.9018,-4.9018,-4.9018,-4.9018,-4.9018,-4.9018,-4.9018,-4.9018,-4.9018,-4.9018,-4.9018,-4.9018,-4.9018,-4.9018,-4.9018,-4.9018,-4.9018,-4.9018,-4.9018,-4.9018,-4.9018,-4.9018,-4.9018,-4.9018,-4.9018,-4.9018,-4.8646,-4.821,-4.7939,-4.7361,-4.6786,-4.6786,-4.6786,-4.6786,-4.6786,-4.6007,-4.5292,-4.4993,-4.4987,-4.4886,-4.4649,-4.4615,-4.4692,-4.5008,-4.4797,-4.472,-4.5035,-4.4769,-4.472,-4.5035,-4.5214,-4.5442,-4.58,-4.6317,-4.6244,-4.5372,-4.5622,-4.5451,-4.4643,-4.4402,-4.3802,-4.2775,-4.2722,-4.2149,-4.1024,-4.1973,-4.2262,-4.1973,-4.2458,-4.2768,0.0,0.0,0.0,-3.9661,-3.9553,-3.9481,-3.9905,0.0,-4.0945,0.0,0.0,0.0,0.0,0.0,0.0,0.0,0.0,0.0,0.0,0.0,0.0,0.0,0.0,0.0,0.0,0.0,0.0,0.0,-4.6759,-4.6759,-4.6828,-4.6828,-4.7137,-4.7901,-4.8576,-4.8987,-4.9018,-4.9018,-4.9018,-4.9018,-4.9018,-4.9018,-4.9018,-4.9018,-4.9018,-4.9018,-4.9018,-4.9018,-4.9018,-4.9018,-4.9018,-4.9018,-4.9018,-4.9018,-4.9018,-4.9018,-4.9018,-4.9018,-4.9018,-4.9018,-4.9018,-4.9018,-4.9018,-4.9018,-4.9018,-4.9018,-4.9018,-4.9018,-4.9018,-4.8849,-4.8108,-4.7394,-4.6853,-4.6853,-4.6853,-4.6853,-4.6853,-4.6853,-4.665,-4.5872,-4.5737,-4.55,-4.4784,-4.4649,-4.4649,-4.4615,-4.4615,-4.4615,-4.4615,-4.4615,-4.4615,-4.4615,-4.5008,-4.5294,-4.5294,-4.5775,-4.585,-4.532,-4.5294,-4.5089,-4.4643,-4.4615,-4.3904,-4.2354,-4.2749,-4.2055,-4.0146,-4.1047,-4.1521,-4.1521,-4.1994,-4.2458,-4.0516,0.0,0.0,0.0,0.0,0.0,-3.9517,-4.0136,-4.0909,0.0,0.0,0.0,0.0,0.0,0.0,0.0,0.0,0.0,0.0,0.0,0.0,0.0,0.0,0.0,0.0,0.0,0.0,0.0,-4.5515,-4.566,-4.6726,-4.6828,-4.7137,-4.7901,-4.8096,-4.8482,-4.8984,-4.9018,-4.9018,-4.9018,-4.9018,-4.9018,-4.9018,-4.9018,-4.9018,-4.9018,-4.9018,-4.9018,-4.9018,-4.9018,-4.9018,-4.9018,-4.9018,-4.9018,-4.9018,-4.9018,-4.9018,-4.9018,-4.9018,-4.9018,-4.9018,-4.9018,-4.9018,-4.9018,-4.9018,-4.9018,-4.9018,-4.9018,-4.9018,-4.8951,-4.8748,-4.8545,-4.8376,-4.8376,-4.8376,-4.8376,-4.8376,-4.8376,-4.8003,-4.6752,-4.6481,-4.6244,-4.5534,-4.5399,-4.5196,-4.4682,-4.4615,-4.4615,-4.4615,-4.4615,-4.4615,-4.4615,-4.472,-4.4769,-4.4769,-4.5241,-4.532,-4.4824,-4.5115,-4.5089,-4.4643,-4.4615,-4.4113,-4.3132,-4.269,-4.197,-4.0899,-4.1302,-4.1521,-4.1543,-4.2338,-4.2787,-4.1324,-4.0816,-4.0307,-3.9918,0.0,0.0,-3.9373,-3.9781,-4.0341,0.0,0.0,0.0,0.0,0.0,0.0,0.0,0.0,0.0,0.0,0.0,0.0,0.0,0.0,0.0,0.0,-4.461,-4.4799,-4.5216,-4.4836,-4.4955,-4.5841,-4.6198,-4.6518,-4.6967,-4.7572,-4.8096,-4.8545,-4.8861,-4.9018,-4.9018,-4.9018,-4.9018,-4.9018,-4.9018,-4.9018,-4.9018,-4.9018,-4.9018,-4.9018,-4.9018,-4.9018,-4.9018,-4.9018,-4.9018,-4.9018,-4.9018,-4.9018,-4.9018,-4.9018,-4.9018,-4.9018,-4.9018,-4.9018,-4.9018,-4.9018,-4.9018,-4.9018,-4.9018,-4.9018,-4.9018,-4.9018,-4.9018,-4.9018,-4.9018,-4.9018,-4.9018,-4.9018,-4.9018,-4.8646,-4.7496,-4.7259,-4.7022,-4.6278,-4.5906,-4.5568,-4.5128,-4.4818,-4.4615,-4.4615,-4.4615,-4.4615,-4.4615,-4.4615,-4.4615,-4.4615,-4.4852,-4.4906,-4.4643,-4.4852,-4.4879,-4.4615,-4.4615,-4.4215,-4.3409,-4.2692,-4.1779,-4.073,-4.0841,-4.1116,-4.1543,-4.2241,-4.2729,-4.241,-4.1542,-4.0576,-4.0427,-3.9948,0.0,-3.9439,-3.9373,-3.9619,-4.0277,0.0,0.0,0.0,0.0,0.0,0.0,0.0,0.0,0.0,0.0,0.0,0.0,0.0,0.0,-4.4496,-4.4534,-4.4572,-4.4572,-4.4572,-4.461,-4.461,-4.5216,-4.5624,-4.5697,-4.6967,-4.7671,-4.7803,-4.8418,-4.8798,-4.8861,-4.8861,-4.8923,-4.9018,-4.9018,-4.8954,-4.8892,-4.8954,-4.8923,-4.8892,-4.8987,-4.9018,-4.9018,-4.9018,-4.9018,-4.9018,-4.9018,-4.9018,-4.9018,-4.9018,-4.9018,-4.9018,-4.9018,-4.9018,-4.9018,-4.9018,-4.9018,-4.9018,-4.9018,-4.9018,-4.9018,-4.9018,-4.9018,-4.9018,-4.9018,-4.9018,-4.9018,-4.9018,-4.9018,-4.8815,-4.8142,-4.8007,-4.78,-4.7056,-4.638,-4.5906,-4.5737,-4.5128,-4.4716,-4.4615,-4.4615,-4.4615,-4.4615,-4.4615,-4.4615,-4.4615,-4.4615,-4.4615,-4.4615,-4.4615,-4.4615,-4.4615,-4.4615,-4.4248,-4.3572,-4.2726,-4.161,-4.0214,-4.0197,-4.0611,-4.1455,-4.1952,-4.2418,-4.253,-4.2201,-4.1752,0.0,0.0,0.0,-3.9493,-3.9373,-3.9619,0.0,0.0,0.0,0.0,0.0,0.0,0.0,0.0,0.0,0.0,0.0,0.0,0.0,0.0,0.0,-4.4104,-4.4228,-4.4343,-4.4343,-4.4496,-4.461,-4.461,-4.4761,-4.5104,-4.566,-4.5985,-4.6413,-4.7033,-4.7169,-4.7539,-4.8129,-4.8129,-4.8418,-4.9018,-4.9018,-4.8704,-4.8161,-4.8767,-4.8639,-4.8161,-4.8767,-4.9018,-4.9018,-4.9018,-4.9018,-4.9018,-4.9018,-4.9018,-4.9018,-4.9018,-4.9018,-4.9018,-4.9018,-4.9018,-4.9018,-4.9018,-4.9018,-4.9018,-4.9018,-4.9018,-4.9018,-4.9018,-4.9018,-4.9018,-4.9018,-4.9018,-4.9018,-4.9018,-4.9018,-4.8951,-4.8815,-4.8781,-4.8545,-4.7834,-4.7567,-4.709,-4.5872,-4.5568,-4.5263,-4.4682,-4.4615,-4.4615,-4.4615,-4.4615,-4.4615,-4.4615,-4.4615,-4.4615,-4.4615,-4.4615,-4.4615,-4.4615,-4.4615,-4.4547,-4.4378,-4.3024,-4.188,-4.0967,-4.0749,-4.0754,-4.0966,-4.1803,-4.2257,0.0,0.0,0.0,-4.1572,0.0,0.0,0.0,-4.0397,-4.0487,-4.0816,0.0,0.0,0.0,0.0,0.0,0.0,0.0,0.0,0.0,0.0,0.0,0.0,0.0,0.0,-4.3988,-4.4104,-4.422,-4.4266,-4.4381,-4.4496,-4.4572,-4.461,-4.4761,-4.5142,-4.5515,-4.5877,-4.6269,-4.662,-4.6999,-4.7339,-4.7339,-4.7737,-4.845,-4.8064,-4.8096,-4.845,-4.8064,-4.8096,-4.845,-4.845,-4.8639,-4.9018,-4.9018,-4.9018,-4.9018,-4.9018,-4.9018,-4.9018,-4.9018,-4.9018,-4.9018,-4.9018,-4.9018,-4.9018,-4.9018,-4.9018,-4.9018,-4.9018,-4.9018,-4.9018,-4.9018,-4.9018,-4.9018,-4.9018,-4.9018,-4.9018,-4.9018,-4.9018,-4.9018,-4.9018,-4.9018,-4.8883,-4.8511,-4.8142,-4.753,-4.6413,-4.594,-4.5432,-4.4716,-4.4615,-4.4615,-4.4615,-4.4615,-4.4615,-4.4615,-4.4615,-4.4615,-4.4615,-4.4615,-4.4615,-4.4615,-4.4615,-4.4384,-4.4012,-4.2861,-4.1948,-4.1204,-4.0628,-4.0524,-4.0802,-4.1208,-4.1674,0.0,0.0,0.0,0.0,0.0,-4.1572,0.0,0.0,0.0,0.0,0.0,0.0,0.0,0.0,0.0,0.0,0.0,0.0,0.0,0.0,0.0,0.0,0.0,0.0,0.0,-4.391,-4.4026,-4.4258,-4.4297,-4.4343,-4.4534,-4.4572,-4.461,-4.461,-4.5179,-4.5478,-4.5478,-4.6092,-4.648,-4.6585,-4.6585,-4.6967,-4.7638,-4.7069,-4.7372,-4.8322,-4.7271,-4.7405,-4.8354,-4.7869,-4.8129,-4.8798,-4.8923,-4.9018,-4.9018,-4.9018,-4.9018,-4.9018,-4.9018,-4.9018,-4.9018,-4.9018,-4.9018,-4.9018,-4.9018,-4.9018,-4.9018,-4.9018,-4.9018,-4.9018,-4.9018,-4.9018,-4.9018,-4.9018,-4.9018,-4.9018,-4.9018,-4.9018,-4.9018,-4.9018,-4.9018,-4.9018,-4.9018,-4.8511,-4.7868,-4.7124,-4.638,-4.5635,-4.4919,-4.4716,-4.4615,-4.4615,-4.4615,-4.4615,-4.4615,-4.4615,-4.4615,-4.4615,-4.4615,-4.4615,-4.4615,-4.4615,-4.4282,-4.3639,-4.2895,-4.2151,-4.1407,-4.056,-4.0349,-4.0659,-4.0577,-4.1047,0.0,0.0,0.0,0.0,-4.2351,0.0,0.0,0.0,-4.1422,-4.1422,0.0,0.0,0.0,0.0,0.0,0.0,0.0,0.0,0.0,0.0,0.0,0.0,0.0,0.0,0.0,-4.3596,-4.3832,-4.4026,-4.422,-4.4335,-4.4305,-4.4496,-4.461,-4.461,-4.4685,-4.4723,-4.4723,-4.4836,-4.5179,-4.5841,-4.5841,-4.6234,-4.6898,-4.6862,-4.6518,-4.6095,-4.6588,-4.6518,-4.6127,-4.6692,-4.7339,-4.8096,-4.8767,-4.9018,-4.9018,-4.9018,-4.9018,-4.9018,-4.9018,-4.9018,-4.9018,-4.9018,-4.9018,-4.9018,-4.9018,-4.9018,-4.9018,-4.9018,-4.9018,-4.9018,-4.9018,-4.9018,-4.9018,-4.9018,-4.9018,-4.9018,-4.9018,-4.9018,-4.9018,-4.9018,-4.9018,-4.9018,-4.9018,-4.8951,-4.8612,-4.7902,-4.7158,-4.6413,-4.5669,-4.4993,-4.4615,-4.4615,-4.4615,-4.4615,-4.4615,-4.4615,-4.4615,-4.4615,-4.4615,-4.4615,-4.4615,-4.4615,-4.4581,-4.4479,-4.3673,-4.2929,-4.2151,-4.1414,-4.0756,-4.0179,-4.0343,-4.0802,0.0,0.0,0.0,0.0,0.0,0.0,-4.2581,0.0,-4.2521,0.0,0.0,0.0,0.0,0.0,0.0,0.0,-4.2231,0.0,0.0,0.0,0.0,0.0,0.0,0.0,0.0,0.0,0.0,0.0,-4.391,-4.4065,-4.4297,-4.4297,-4.4343,-4.4572,-4.4496,-4.4458,-4.461,-4.461,-4.4761,-4.5067,-4.5067,-4.5442,-4.6163,-4.5733,-4.5841,-4.6304,-4.5769,-4.5841,-4.634,-4.6234,-4.6588,-4.7272,-4.7605,-4.8258,-4.9018,-4.9018,-4.9018,-4.9018,-4.9018,-4.9018,-4.9018,-4.9018,-4.9018,-4.9018,-4.9018,-4.9018,-4.9018,-4.9018,-4.9018,-4.9018,-4.9018,-4.9018,-4.9018,-4.9018,-4.9018,-4.9018,-4.9018,-4.9018,-4.9018,-4.9018,-4.9018,-4.9018,-4.9018,-4.9018,-4.8748,-4.8007,-4.7259,-4.6515,-4.5805,-4.506,-4.4615,-4.4615,-4.4615,-4.4615,-4.4615,-4.4615,-4.4615,-4.4615,-4.4615,-4.4615,-4.4615,-4.4615,-4.4615,-4.4615,-4.3809,-4.3064,-4.2286,-4.1463,-4.0721,-4.0113,-4.0028,-4.0245,-4.329,0.0,0.0,0.0,0.0,0.0,0.0,0.0,0.0,0.0,0.0,0.0,0.0,0.0,0.0,-4.2201,0.0,-4.1841,0.0,0.0,0.0,0.0,0.0,0.0,0.0,0.0,0.0,0.0,0.0,-4.3832,-4.4143,-4.4065,-4.4143,-4.4419,-4.4374,-4.4343,-4.4496,-4.4572,-4.461,-4.461,-4.4534,-4.4836,-4.54,-4.4799,-4.5142,-4.6163,-4.5067,-4.5216,-4.6163,-4.5624,-4.5805,-4.6445,-4.6445,-4.7171,-4.8257,-4.8576,-4.8829,-4.8954,-4.8767,-4.8704,-4.8736,-4.8923,-4.9018,-4.9018,-4.9018,-4.9018,-4.9018,-4.9018,-4.9018,-4.9018,-4.9018,-4.9018,-4.9018,-4.9018,-4.9018,-4.9018,-4.9018,-4.9018,-4.9018,-4.9018,-4.9018,-4.9018,-4.9018,-4.9018,-4.8815,-4.8277,-4.7394,-4.6616,-4.6075,-4.5162,-4.4615,-4.4615,-4.4615,-4.4615,-4.4615,-4.4615,-4.4615,-4.4615,-4.4615,-4.4615,-4.4615,-4.4615,-4.4615,-4.4615,-4.4012,-4.3341,-4.2537,-4.1687,-4.092,-4.0238,-3.983,-3.985,0.0,0.0,0.0,-4.329,0.0,0.0,0.0,0.0,-4.329,0.0,0.0,0.0,0.0,0.0,-4.288,-4.1624,-4.1414,0.0,0.0,0.0,0.0,0.0,0.0,0.0,0.0,0.0,0.0,0.0,0.0,0.0,-4.3744,-4.391,-4.4026,-4.4026,-4.422,-4.4297,-4.4335,-4.4496,-4.461,-4.461,-4.4381,-4.4419,-4.461,-4.4381,-4.4419,-4.4685,-4.461,-4.461,-4.4685,-4.4648,-4.4955,-4.5442,-4.5442,-4.5809,-4.6419,-4.7539,-4.8386,-4.8892,-4.8161,-4.7934,-4.8064,-4.8767,-4.9018,-4.9018,-4.9018,-4.9018,-4.9018,-4.9018,-4.9018,-4.9018,-4.9018,-4.9018,-4.9018,-4.9018,-4.9018,-4.9018,-4.9018,-4.9018,-4.9018,-4.9018,-4.9018,-4.9018,-4.9018,-4.9018,-4.8984,-4.8984,-4.7733,-4.6786,-4.6752,-4.5495,-4.4615,-4.4615,-4.4615,-4.4615,-4.4615,-4.4615,-4.4615,-4.4615,-4.4615,-4.4615,-4.4615,-4.4615,-4.4615,-4.4615,-4.4581,-4.4125,-4.3182,-4.2442,-4.1567,-4.0594,-3.9834,-3.9833,0.0,0.0,-4.329,-4.329,0.0,0.0,0.0,0.0,0.0,0.0,0.0,0.0,0.0,-4.329,-4.306,-4.2201,-4.1692,-4.1085,0.0,0.0,0.0,0.0,0.0,0.0,0.0,0.0,0.0,0.0,-4.3169,0.0,0.0,-4.3596,-4.3675,-4.3988,-4.3949,-4.3988,-4.4104,-4.4181,-4.422,-4.422,-4.4143,-4.4143,-4.422,-4.4143,-4.4143,-4.422,-4.422,-4.4297,-4.4381,-4.4381,-4.4572,-4.4843,-4.4692,-4.5073,-4.5773,-4.6657,-4.7137,-4.7305,-4.7204,-4.7803,-4.8576,-4.8354,-4.8576,-4.9018,-4.9018,-4.9018,-4.9018,-4.9018,-4.9018,-4.9018,-4.9018,-4.9018,-4.9018,-4.9018,-4.9018,-4.9018,-4.9018,-4.9018,-4.9018,-4.9018,-4.9018,-4.9018,-4.9018,-4.9018,-4.9018,-4.9018,-4.8173,-4.7361,-4.6853,-4.594,-4.5128,-4.4649,-4.4615,-4.4615,-4.4615,-4.4615,-4.4615,-4.4615,-4.4615,-4.4615,-4.4615,-4.4615,-4.4615,-4.4615,-4.4615,-4.4159,-4.3188,-4.2953,-4.2097,-4.0702,-4.0388,-4.0014,-4.329,-4.329,0.0,-4.329,-4.329,0.0,-4.329,0.0,0.0,0.0,0.0,0.0,0.0,0.0,-4.314,-4.2761,-4.2201,-4.1542,0.0,-4.0187,0.0,0.0,0.0,0.0,0.0,0.0,0.0,-4.2381,-4.297,-4.3369,0.0,0.0,-4.3448,-4.3754,-4.3714,-4.3754,-4.391,-4.3949,-4.3988,-4.3988,-4.391,-4.3949,-4.3988,-4.391,-4.3949,-4.3988,-4.3988,-4.4065,-4.422,-4.422,-4.4258,-4.4297,-4.4143,-4.4343,-4.4774,-4.5665,-4.6202,-4.6518,-4.6726,-4.7439,-4.8194,-4.7967,-4.8225,-4.8673,-4.8923,-4.9018,-4.8951,-4.868,-4.8815,-4.8951,-4.868,-4.8815,-4.9018,-4.9018,-4.9018,-4.9018,-4.9018,-4.9018,-4.9018,-4.9018,-4.9018,-4.9018,-4.9018,-4.9018,-4.9018,-4.9018,-4.8376,-4.7631,-4.6887,-4.6143,-4.5432,-4.4682,-4.4615,-4.4615,-4.4615,-4.4615,-4.4615,-4.4615,-4.4615,-4.4615,-4.4615,-4.4615,-4.4615,-4.4615,-4.4525,-4.4176,-4.3507,-4.3211,-4.2328,-4.1021,-4.0673,-4.0093]},{"header":{"parameterUnit":"m.s-1","parameterCategory":1,"la1":30.6,"la2":29.2853,"lo1":-89.7004,"lo2":-87.6739,"dy":0.0162,"dx":0.0183,"nx":112,"ny":82,"refTime":"2024-04-29T12:00:00:Z","depth":0,"parameterNumber":3,"parameterNumberName":"V-component_of_WINDS"},"data":[0.0,0.0,0.0,0.0,0.0,0.0,0.0,0.0,0.0,0.0,0.0,0.0,0.0,0.0,0.0,0.0,0.0,0.0,0.0,0.0,0.0,0.0,0.0,0.0,0.0,0.0,0.0,0.0,0.0,0.0,0.0,0.0,0.0,0.0,0.0,0.0,0.0,0.0,0.0,0.0,0.0,0.0,0.0,0.0,0.0,0.0,0.0,0.0,0.0,0.0,0.0,0.0,0.0,0.0,0.0,0.0,0.0,0.0,0.0,0.0,0.0,0.0,0.0,0.0,0.0,0.0,0.0,0.0,0.0,0.0,0.0,0.0,0.0,0.0,0.0,0.0,0.0,0.0,0.0,0.0,0.0,0.0,0.0,0.0,0.0,0.0,0.0,0.0,0.0,0.0,0.5208,0.5544,0.5624,0.6076,0.7061,0.7231,0.77,0.8645,0.0,0.0,0.0,0.0,0.0,0.0,0.0,0.0,0.0,0.0,0.0,0.0,0.0,0.0,0.0,0.0,0.0,0.0,0.0,0.0,0.0,0.0,0.0,0.0,0.0,0.0,0.0,0.0,0.0,0.0,0.0,0.0,0.0,0.0,0.0,0.0,0.0,0.0,0.0,0.0,0.0,0.0,0.0,0.0,0.0,0.0,0.0,0.0,0.0,0.0,0.0,0.0,0.0,0.0,0.0,0.0,0.0,0.0,0.0,0.0,0.0,0.0,0.0,0.0,0.0,0.0,0.0,0.0,0.0,0.0,0.0,0.0,0.0,0.0,0.0,0.0,0.0,0.0,0.0,0.0,0.0,0.0,0.0,0.0,0.0,0.0,0.0,0.0,0.0,0.0,0.0,0.0,0.0,0.0,0.0,0.0,0.0,0.0,0.0,0.0,0.0,0.0,0.0,0.0,0.5631,0.5901,0.6464,0.697,0.7333,0.7822,0.8285,0.8683,0.0,0.0,0.0,0.0,0.0,0.0,0.0,0.0,0.0,0.0,0.0,0.0,0.0,0.0,0.0,0.0,0.0,0.0,0.0,0.0,0.0,0.0,0.0,0.0,0.0,0.0,0.0,0.0,0.0,0.0,0.0,0.0,0.0,0.0,0.0,0.0,0.0,0.0,0.0,0.0,0.0,0.0,0.0,0.0,0.0,0.0,0.0,0.0,0.0,0.0,0.0,0.0,0.0,0.0,0.0,0.0,0.0,0.0,0.0,0.0,0.0,0.0,0.0,0.0,0.0,0.0,0.0,0.0,0.0,0.0,0.0,0.0,0.0,0.0,0.0,0.0,0.0,0.0,0.0,0.0,0.0,0.0,0.0,0.0,0.0,0.0,0.0,0.0,0.0,0.0,0.0,0.0,0.0,0.0,0.0,0.0,0.0,0.0,0.0,0.0,0.0,0.0,0.0,0.5876,0.6078,0.6222,0.6492,0.6987,0.7764,0.7992,0.8383,0.9154,0.9043,0.0,0.0,0.0,0.0,0.0,0.0,0.0,0.0,0.0,0.0,0.0,0.0,0.0,0.0,0.0,0.0,0.0,0.0,0.0,0.0,0.0,0.0,0.0,0.0,0.0,0.0,0.0,0.0,0.0,0.0,0.0,0.0,0.0,0.0,0.0,0.0,0.0,0.0,0.0,0.0,0.0,0.0,0.0,0.0,0.0,0.0,0.0,0.0,0.0,0.0,0.0,0.0,0.0,0.0,0.0,0.0,0.0,0.0,0.0,0.0,0.0,0.0,0.0,0.0,0.0,0.0,0.0,0.0,0.0,0.0,0.0,0.0,0.0,0.0,0.0,0.0,0.0,0.0,0.0,0.0,0.0,0.0,0.0,0.0,0.0,0.0,0.0,0.0,0.0,0.0,0.0,0.0,0.0,0.0,0.0,0.0,0.0,0.0,0.0,0.0,0.0,0.0,0.616,0.6341,0.6401,0.6651,0.7229,0.8227,0.8391,0.8791,0.9678,0.938,0.0,0.0,0.0,0.0,0.0,0.0,0.0,0.0,0.0,0.0,0.0,0.0,0.0,0.0,0.0,0.0,0.0,0.0,0.0,0.0,0.0,0.0,0.0,0.0,0.0,0.0,0.0,0.0,0.0,0.0,0.0,0.0,0.0,0.0,0.0,0.0,0.0,0.0,0.0,0.0,0.0,0.0,0.0,0.0,0.0,0.0,0.0,0.0,0.0,0.0,0.0,0.0,0.0,0.0,0.0,0.0,0.0,0.0,0.0,0.0,0.0,0.0,0.0,0.0,0.0,0.0,0.0,0.0,0.0,0.0,0.0,0.0,0.0,0.0,0.0,0.0,0.0,0.0,0.0,0.0,0.0,0.0,0.0,0.0,0.0,0.0,0.0,0.0,0.0,0.0,0.0,0.0,0.0,0.0,0.0,0.0,0.0,0.0,0.0,0.0,0.0,0.0,0.6031,0.6181,0.6371,0.7567,0.8428,0.865,0.9464,0.9986,1.0068,0.9537,0.0,0.0,0.0,0.0,0.0,0.0,0.0,0.0,0.0,0.0,0.0,0.0,0.0,0.0,0.0,0.0,0.0,0.0,0.0,0.0,0.0,0.0,0.0,0.0,0.0,0.0,0.0,0.0,0.0,0.0,0.0,0.0,0.0,0.0,0.0,0.0,0.0,0.0,0.0,0.0,0.0,0.0,0.0,0.0,0.0,0.0,0.0,0.0,0.0,0.0,0.0,0.0,0.0,0.0,0.0,0.0,0.0,0.0,0.0,0.0,0.0,0.0,0.0,0.0,0.0,0.0,0.0,0.0,0.0,0.0,0.0,0.0,0.0,0.0,0.0,0.0,0.0,0.0,0.0,0.0,0.0,0.0,0.0,0.0,0.0,0.0,0.0,0.0,0.0,0.0,0.0,0.0,0.0,0.0,0.0,0.0,0.0,0.0,0.0,0.0,0.0,0.0,0.6372,0.65,0.0,0.7138,0.7858,0.8697,0.9036,0.9571,1.0376,0.0,0.0,0.0,0.0,0.0,0.0,0.0,0.0,0.0,0.0,0.0,0.0,0.0,0.0,0.0,0.0,0.0,0.0,0.0,0.0,0.0,0.0,0.0,0.0,0.0,0.0,0.0,0.0,0.0,0.0,0.0,0.0,0.0,0.0,0.0,0.0,0.0,0.0,0.0,0.0,0.0,0.0,0.0,0.0,0.0,0.0,0.0,0.0,0.0,0.0,0.0,0.0,0.0,0.0,0.0,0.0,0.0,0.0,0.0,0.0,0.0,0.0,0.0,0.0,0.0,0.0,0.0,0.0,0.0,0.0,0.0,0.0,0.0,0.0,0.0,0.0,0.0,0.0,0.0,0.0,0.0,0.0,0.0,0.0,0.0,0.0,0.0,0.0,0.0,0.0,0.0,0.0,0.0,0.0,0.0,0.0,0.0,0.0,0.0,0.0,0.0,0.0,0.64,0.6515,0.6646,0.0,0.698,0.7533,0.853,0.8872,0.9457,1.0392,0.0,0.0,0.0,0.0,0.0,0.0,0.0,0.0,0.0,0.0,0.0,0.0,0.0,0.0,0.0,0.0,0.0,0.0,0.0,0.0,0.0,0.0,0.0,0.0,0.0,0.0,0.0,0.0,0.0,0.0,0.0,0.0,0.0,0.0,0.0,0.0,0.0,0.0,0.0,0.0,0.0,0.0,0.0,0.0,0.0,0.0,0.0,0.0,0.0,0.0,0.0,0.0,0.0,0.0,0.0,0.0,0.0,0.0,0.0,0.0,0.0,0.0,0.0,0.0,0.0,0.0,0.0,0.0,0.0,0.0,0.0,0.0,0.0,0.0,0.0,0.0,0.0,0.0,0.0,0.0,0.0,0.0,0.0,0.0,0.0,0.0,0.0,0.0,0.0,0.0,0.0,0.0,0.0,0.0,0.0,0.0,0.0,0.0,0.0,0.0,0.0,0.0,0.6383,0.6383,0.6482,0.6679,0.7284,0.7837,0.8172,0.9177,0.9888,0.0,0.0,0.0,0.0,0.0,0.0,0.0,0.0,0.0,0.0,0.0,0.0,0.0,0.0,0.0,0.0,0.0,0.0,0.0,0.0,0.0,0.0,0.0,0.0,0.0,0.0,0.0,0.0,0.0,0.0,0.0,0.0,0.0,0.0,0.0,0.0,0.0,0.0,0.0,0.0,0.0,0.0,0.0,0.0,0.0,0.0,0.0,0.0,0.0,0.0,0.0,0.0,0.0,0.0,0.0,0.0,0.0,0.0,0.0,0.0,0.0,0.0,0.0,0.0,0.0,0.0,0.0,0.0,0.0,0.0,0.0,0.0,0.0,0.0,0.0,0.0,0.0,0.0,0.0,0.0,0.0,0.0,0.0,0.0,0.0,0.0,0.0,0.0,0.0,0.0,0.0,0.0,0.0,0.0,0.0,0.0,0.0,0.0,0.0,0.0,0.0,0.0,0.0,0.6383,0.6383,0.6416,0.6482,0.6802,0.7479,0.8678,0.9174,0.9926,1.1105,0.0,0.0,0.0,0.0,0.0,0.0,0.0,0.0,0.0,0.0,0.0,0.0,0.0,0.0,0.0,0.0,0.0,0.0,0.0,0.0,0.0,0.0,0.0,0.0,0.0,0.0,0.0,0.0,0.0,0.0,0.0,0.0,0.0,0.0,0.0,0.0,0.0,0.0,0.0,0.0,0.0,0.0,0.0,0.0,0.0,0.0,0.0,0.0,0.0,0.0,0.0,0.0,0.0,0.0,0.0,0.0,0.0,0.0,0.0,0.0,0.0,0.0,0.0,0.0,0.0,0.0,0.0,0.0,0.0,0.0,0.0,0.0,0.0,0.0,0.0,0.0,0.0,0.0,0.0,0.0,0.0,0.0,0.0,0.0,0.0,0.0,0.0,0.0,0.0,0.0,0.0,0.0,0.0,0.0,0.0,0.0,0.0,0.0,0.0,0.0,0.0,0.0,0.6383,0.6383,0.6383,0.6383,0.6515,0.7129,0.8474,0.8956,0.9755,1.1076,0.0,0.0,0.0,0.0,0.0,0.0,0.0,0.0,0.0,0.0,0.0,0.0,0.0,0.0,0.0,0.0,0.0,0.0,0.0,0.0,0.0,0.0,0.0,0.0,0.0,0.0,0.0,0.0,0.0,0.0,0.0,0.0,0.0,0.0,0.0,0.0,0.0,0.0,0.0,0.0,0.0,0.0,0.0,0.0,0.0,0.0,0.0,0.0,0.0,0.0,0.0,0.0,0.0,0.0,0.0,0.0,0.0,0.0,0.0,0.0,0.0,0.0,0.0,0.0,0.0,0.0,0.0,0.0,0.0,0.0,0.0,0.0,0.0,0.0,0.0,0.0,0.0,0.0,0.0,0.0,0.0,0.0,0.0,0.0,0.0,0.0,0.0,0.0,0.0,0.0,0.0,0.0,0.0,0.0,0.0,0.0,0.0,0.0,0.0,0.0,0.0,0.0,0.644,0.6399,0.6383,0.6383,0.6383,0.6835,0.7902,0.8603,0.9416,1.0415,0.0,0.0,0.0,0.0,0.0,0.0,0.0,0.0,0.0,0.0,0.0,0.0,0.0,0.0,0.0,0.0,0.0,0.0,0.0,0.0,0.0,0.0,0.0,0.0,0.0,0.0,0.0,0.0,0.0,0.0,0.0,0.0,0.0,0.0,0.0,0.0,0.0,0.0,0.0,0.0,0.0,0.0,0.0,0.0,0.0,0.0,0.0,0.0,0.0,0.0,0.0,0.0,0.0,0.0,0.0,0.0,0.0,0.0,0.0,0.0,0.8643,0.0,0.0,0.0,0.0,0.0,0.0,0.0,0.0,0.0,0.0,0.0,0.0,0.0,0.0,0.0,0.0,0.0,0.0,0.0,0.0,0.0,0.0,0.0,0.0,0.0,0.0,0.0,0.0,0.0,0.0,0.0,0.0,0.0,0.0,0.0,0.0,0.0,0.0,0.0,0.0,0.0,0.6635,0.6505,0.6383,0.6383,0.6383,0.6778,0.7674,0.8506,0.9372,1.0275,1.1139,0.0,0.0,0.0,0.0,0.0,0.0,0.0,0.0,0.0,0.0,0.0,0.0,0.0,0.0,0.0,0.0,0.0,0.0,0.0,0.0,0.0,0.0,0.0,0.0,0.0,0.0,0.0,0.0,0.0,0.0,0.0,0.0,0.0,0.0,0.0,0.0,0.0,0.0,0.0,0.0,0.0,0.0,0.0,0.0,0.0,0.0,0.0,0.0,0.0,0.0,0.0,0.0,0.0,0.0,0.0,0.0,0.0,0.0,0.0,0.0,0.812,0.0,0.0,0.0,0.0,0.0,0.0,0.0,0.0,0.0,0.0,0.0,0.0,0.0,0.0,0.0,0.0,0.0,0.0,0.0,0.0,0.0,0.0,0.0,0.0,0.0,0.0,0.0,0.0,0.0,0.0,0.0,0.0,0.0,0.0,0.0,0.0,0.0,0.0,0.0,0.0,0.6857,0.6767,0.6643,0.6562,0.6554,0.6847,0.7619,0.8118,0.8924,1.0212,1.0717,0.0,0.0,0.0,0.0,0.0,0.0,0.0,0.0,0.0,0.0,0.0,0.0,0.0,0.0,0.0,0.0,0.0,0.0,0.0,0.0,0.0,0.0,0.0,0.0,0.0,0.0,0.0,0.0,0.0,0.0,0.0,0.0,0.0,0.0,0.0,0.0,0.0,0.0,0.0,0.0,0.0,0.0,0.0,0.0,0.0,0.0,0.0,0.0,0.0,0.0,0.0,0.0,0.0,1.1346,1.0511,0.9603,0.8737,0.823,0.8097,0.7967,0.7788,0.7577,0.0,0.0,0.0,0.0,0.0,0.0,0.0,0.0,0.0,0.0,0.0,0.0,0.0,0.0,0.0,0.0,0.0,0.0,0.0,0.0,0.0,0.0,0.0,0.0,0.0,0.7086,0.7086,0.0,0.0,0.0,0.0,0.0,0.0,0.0,0.0,0.0,0.0,0.0,0.0,0.7037,0.7004,0.6931,0.6757,0.6741,0.6967,0.7489,0.7766,0.8528,0.9926,1.0307,1.0793,0.0,0.0,0.0,0.0,0.0,0.0,0.0,0.0,0.0,0.0,0.0,0.0,0.0,0.0,0.0,0.0,0.0,0.0,0.0,0.0,0.0,0.0,0.0,0.0,0.0,0.0,0.0,0.0,0.0,0.0,0.0,0.0,1.3146,1.3186,0.0,0.0,0.0,0.0,0.0,0.0,0.0,0.0,0.0,0.0,0.0,0.0,0.0,1.3975,1.3975,1.3975,1.3933,1.3794,1.2856,1.2026,1.1258,1.0159,0.9217,0.8531,0.83,0.0,0.7943,0.7943,0.0,0.0,0.0,0.0,0.0,0.0,0.0,0.0,0.0,0.0,0.0,0.0,0.0,0.0,0.0,0.0,0.0,0.0,0.0,0.0,0.0,0.0,0.7453,0.7453,0.7453,0.7453,0.0,0.7208,0.6988,0.6988,0.7082,0.0,0.0,0.0,0.0,0.0,0.0,0.0,0.7188,0.7086,0.698,0.6955,0.6955,0.6917,0.6839,0.8068,0.8843,0.8914,1.0338,1.1202,1.1341,1.1498,0.0,0.0,0.0,0.0,0.0,0.0,0.0,0.0,0.0,0.0,0.0,0.0,0.0,0.0,0.0,0.0,0.0,0.0,0.0,0.0,0.0,0.0,0.0,0.0,0.0,0.0,0.0,0.0,0.0,1.312,1.3267,1.34,1.3413,1.352,0.0,0.0,0.0,0.0,0.0,0.0,0.0,0.0,0.0,1.4093,1.4269,1.4416,1.462,1.462,1.4357,1.3818,1.341,1.2438,1.0995,1.051,0.9795,0.8861,0.8779,0.8698,0.8593,0.8178,0.8016,0.8016,0.0,0.0,0.0,0.0,0.8095,0.8259,0.79,0.802,0.0,0.0,0.0,0.0,0.0,0.0,0.0,0.0,0.0,0.0,0.0,0.0,0.0,0.778,0.778,0.778,0.778,0.7624,0.7412,0.0,0.7317,0.7366,0.7366,0.0,0.0,0.0,0.0,0.7366,0.7366,0.7301,0.7249,0.7114,0.7106,0.7214,0.7521,0.8156,0.8835,0.9491,1.0263,1.0843,1.1153,1.1341,1.1435,0.0,0.0,0.0,0.0,0.0,0.0,0.0,0.0,0.0,0.0,0.0,0.0,0.0,0.0,0.0,0.0,0.0,0.0,0.0,0.0,0.0,0.0,0.0,0.0,0.0,0.0,0.0,0.0,1.344,1.352,1.3693,1.372,1.3841,0.0,0.0,0.0,0.0,0.0,0.0,1.4202,1.4269,1.4416,1.4629,1.4629,1.4736,1.5008,1.5008,1.4636,1.3948,1.3948,1.3065,1.141,1.1405,1.0862,0.995,0.9897,0.9879,0.9835,0.873,0.8387,0.8548,0.8548,0.8655,0.8776,0.8776,0.8864,0.8982,0.8787,0.8705,0.8623,0.8418,0.0,0.8016,0.8016,0.0,0.0,0.0,0.0,0.8016,0.8016,0.8016,0.8016,0.8016,0.8016,0.8016,0.8016,0.791,0.7812,0.0,0.7551,0.748,0.748,0.0,0.0,0.0,0.0,0.748,0.748,0.748,0.7431,0.7301,0.7293,0.7545,0.8174,0.8405,0.9009,1.0199,1.038,1.0647,1.1121,1.1196,1.1279,1.131,0.0,0.0,0.0,0.0,0.0,0.0,0.0,0.0,0.0,0.0,0.0,0.0,0.0,0.0,0.0,0.0,0.0,0.0,0.0,0.0,0.0,0.0,0.0,0.0,0.0,0.0,0.0,0.0,0.0,1.4055,1.4068,0.0,0.0,0.0,0.0,1.4082,1.4349,1.4496,1.4496,1.4763,1.4968,1.4981,1.4981,1.4995,1.5008,1.5008,1.4963,1.4918,1.4918,1.4494,1.3647,1.3513,1.3032,1.2339,1.2124,1.2027,1.1889,0.9881,0.9437,1.0107,1.0107,1.0386,1.0856,1.0856,1.125,1.1702,1.0917,1.0565,1.0323,0.9593,0.8737,0.8016,0.8016,0.8016,0.0,0.0,0.8016,0.8016,0.8016,0.8016,0.8016,0.8016,0.8016,0.8016,0.8016,0.8008,0.7951,0.0,0.7641,0.748,0.748,0.0,0.748,0.748,0.748,0.748,0.748,0.748,0.748,0.7472,0.7472,0.7732,0.8346,0.902,0.9708,1.0343,1.0862,1.1179,1.1198,1.1149,1.1185,1.131,1.131,0.0,0.0,0.0,0.0,0.0,0.0,0.0,0.0,0.0,0.0,0.0,0.0,0.0,0.0,0.0,0.0,0.0,0.0,0.0,0.0,0.0,0.0,0.0,0.0,0.0,0.0,0.0,0.0,1.4082,1.4255,0.0,1.4362,1.4536,1.47,1.47,1.4794,1.4803,1.4803,1.5084,1.5324,1.5511,1.5712,1.5899,1.6086,1.6086,1.6086,1.6086,1.6086,1.5593,1.4703,1.4655,1.4117,1.3199,1.3111,1.2992,1.2802,1.2027,1.1637,1.149,1.149,1.1161,1.0751,1.0751,1.0489,1.0077,0.9811,0.9596,0.9374,0.9,0.8665,0.8365,0.8365,0.8365,0.8365,0.8365,0.8365,0.8365,0.8365,0.8365,0.8365,0.8365,0.8365,0.8365,0.8365,0.8276,0.817,0.8113,0.7951,0.7821,0.7821,0.7821,0.7821,0.7821,0.7732,0.7698,0.7698,0.76,0.748,0.748,0.748,0.78,0.8515,0.9329,0.9999,1.0551,1.1261,1.1485,1.1108,1.1117,1.1095,1.0965,1.1185,1.1341,0.0,0.0,0.0,0.0,0.0,0.0,0.0,0.0,0.0,0.0,0.0,0.0,0.0,0.0,0.0,0.0,0.0,0.0,0.0,0.0,0.0,0.0,0.0,0.0,0.0,0.0,1.4229,1.4229,1.4496,1.471,1.4803,1.499,1.515,1.5244,1.5351,1.545,1.545,1.5685,1.5925,1.6112,1.6313,1.6513,1.67,1.67,1.67,1.67,1.67,1.6349,1.5695,1.5695,1.5329,1.4659,1.4659,1.4565,1.4351,1.4351,1.4107,1.3661,1.2985,1.2459,1.2062,1.2062,1.166,1.0981,1.0334,0.9791,0.9303,0.8914,0.8792,0.8739,0.8674,0.8649,0.8641,0.8629,0.8612,0.8612,0.8612,0.8612,0.8612,0.8612,0.8612,0.8612,0.8612,0.8514,0.8381,0.8381,0.8187,0.8016,0.8016,0.8016,0.8016,0.8016,0.7918,0.7886,0.7886,0.7731,0.7616,0.7616,0.7521,0.7825,0.8627,0.9188,0.9756,1.0377,1.1092,1.1304,1.0929,1.1149,1.1214,1.1108,1.1333,1.1442,1.1404,0.0,0.0,0.0,0.0,0.0,0.0,0.0,0.0,0.0,0.0,0.0,0.0,0.0,0.0,0.0,0.0,0.0,0.0,0.0,0.0,0.0,0.0,0.0,1.4135,1.4349,1.4536,1.4549,1.4816,1.5156,1.5391,1.5431,1.5551,1.5784,1.6126,1.6286,1.6286,1.6567,1.6727,1.6727,1.674,1.6754,1.6767,1.6767,1.6767,1.6767,1.6754,1.6754,1.674,1.674,1.6727,1.6727,1.6727,1.6727,1.6727,1.6727,1.6714,1.652,1.4636,1.4347,1.5003,1.499,1.4945,1.4662,1.2677,1.1395,1.0389,0.9469,0.9143,0.911,0.8885,0.8828,0.8796,0.8633,0.8629,0.8629,0.8629,0.8629,0.8629,0.862,0.862,0.862,0.8612,0.8612,0.8612,0.8612,0.8276,0.8032,0.8032,0.8032,0.8032,0.8032,0.8024,0.0,0.8024,0.787,0.7812,0.7812,0.7641,0.7834,0.8637,0.8742,0.9074,0.9895,1.0462,1.0767,1.0755,1.1166,1.1505,1.1683,1.176,1.1721,1.1591,0.0,0.0,0.0,0.0,0.0,0.0,0.0,0.0,0.0,0.0,0.0,0.0,0.0,0.0,0.0,0.0,0.0,0.0,0.0,0.0,0.0,1.5619,1.4736,1.4442,1.4656,1.4923,1.5124,1.5418,1.5712,1.6005,1.6219,1.638,1.646,1.654,1.658,1.658,1.686,1.7128,1.7328,1.7555,1.7782,1.7996,1.7996,1.7996,1.7996,1.7782,1.7622,1.7622,1.7448,1.7341,1.7341,1.7341,1.7221,1.7072,1.7072,1.6901,1.661,1.5901,1.5246,1.4773,1.4574,1.398,1.3224,1.2574,1.2181,1.1739,1.0557,1.0186,1.0038,0.9263,0.9023,0.9015,0.8966,0.895,0.895,0.895,0.895,0.8917,0.8779,0.8747,0.8714,0.8637,0.8612,0.8612,0.8612,0.8531,0.8414,0.8414,0.8414,0.8414,0.8414,0.83,0.0,0.8211,0.8057,0.7943,0.7943,0.7829,0.8029,0.8843,0.9316,0.9895,1.0732,1.1452,1.1764,1.1592,1.1678,1.1681,1.1548,1.1727,1.1721,0.0,0.0,0.0,0.0,0.0,0.0,0.0,0.0,0.0,0.0,0.0,0.0,0.0,0.0,0.0,0.0,0.0,0.0,0.0,0.0,0.0,0.0,1.5972,1.5271,1.5097,1.5217,1.5431,1.5725,1.6019,1.6313,1.6656,1.6901,1.7128,1.7261,1.7382,1.7448,1.7448,1.7622,1.7836,1.7956,1.8143,1.8317,1.849,1.849,1.849,1.849,1.8317,1.8237,1.8169,1.805,1.7889,0.0,1.7769,1.7609,1.738,1.738,1.7235,0.0,0.0,0.0,0.0,0.0,1.4449,1.3528,1.3326,1.295,1.2453,1.1701,1.1189,1.0754,1.0068,0.9579,0.9194,0.912,0.9096,0.9096,0.9096,0.9096,0.9072,0.8966,0.8934,0.8885,0.8714,0.8674,0.8649,0.8629,0.8612,0.0,0.8612,0.8612,0.8612,0.8612,0.8522,0.8578,0.8914,0.8826,0.887,0.9234,0.9139,0.9249,0.9727,0.9942,0.0,0.0,0.0,1.1894,1.2064,1.2087,0.0,0.0,0.0,1.1811,1.1765,0.0,0.0,0.0,1.1313,1.121,0.0,0.0,0.0,0.0,0.0,0.0,0.0,0.0,0.0,0.0,0.0,0.0,0.0,0.0,0.0,0.0,1.61,1.5899,1.5965,1.5979,1.6072,1.6388,1.6633,1.6927,1.7273,1.7515,1.7796,1.8022,1.8343,1.849,1.849,0.0,0.0,0.0,0.0,1.8557,1.8584,1.8584,1.8584,1.8584,1.8557,1.8544,1.8544,1.8504,1.8343,1.8049,1.8049,1.7916,1.7635,1.7635,1.7609,1.7528,1.6967,1.674,1.6673,1.642,1.5725,1.49,1.4655,0.0,0.0,1.2829,1.2137,1.1365,1.102,1.0284,0.9588,0.9382,0.9341,0.9294,0.92,0.9153,0.9153,0.9129,0.9129,0.908,0.8893,0.8836,0.8779,0.8625,0.862,0.8612,0.8612,0.8612,0.8612,0.8612,0.8612,0.8867,0.9646,0.9652,0.9911,1.0794,0.0,0.0,1.0961,1.07,1.0506,1.059,1.0985,1.1564,1.2268,1.2342,1.234,1.2374,1.213,1.1992,1.1963,1.175,1.1635,1.1591,1.1591,1.156,0.0,0.0,0.0,0.0,0.0,0.0,0.0,0.0,0.0,0.0,0.0,0.0,0.0,0.0,0.0,1.7077,1.651,1.6353,1.6871,1.6938,1.6965,1.7032,1.7235,1.7528,1.7836,1.8143,1.8343,1.8397,1.8464,1.849,1.849,1.849,1.8597,1.8838,1.8838,1.8958,1.9199,1.9256,1.9256,1.9199,0.0,0.0,1.8838,1.8597,1.8464,1.841,1.841,1.8237,1.7902,1.7902,1.7809,1.7542,1.7246,1.6914,1.67,1.6647,1.647,1.6308,1.6255,1.608,1.5581,1.3728,1.2968,1.2579,1.1473,1.1016,0.0,1.0775,1.0766,1.0581,0.9714,0.9527,0.9486,0.9388,0.9355,0.9306,0.908,0.8926,0.8812,0.8779,0.8658,0.8612,0.8612,0.8612,0.8612,0.8612,0.8612,0.8656,0.8823,0.8842,0.9157,1.0014,0.9983,1.0481,1.1899,1.1813,1.1851,1.2286,1.2166,1.2157,1.2305,1.2452,1.2426,1.2148,1.241,1.2307,1.1848,1.1905,1.1809,1.1591,1.1591,1.1279,0.0,0.0,0.0,0.0,0.0,0.0,0.0,0.0,0.0,0.0,0.0,2.0876,2.0145,0.0,1.8489,1.7831,1.719,1.6871,1.7166,1.7408,1.7595,1.7595,1.7729,1.7929,1.8237,1.8531,1.8704,1.8704,1.8851,1.8931,1.8931,1.8931,1.8998,1.9145,1.9145,1.9212,1.943,1.943,1.943,1.943,1.9212,1.9145,1.9145,1.8998,1.8851,1.8704,1.8704,1.8544,1.8263,1.8049,1.7902,1.7782,1.7488,1.7326,1.7128,1.6981,1.6927,1.6901,1.6754,1.67,1.6523,1.532,1.4221,1.3193,1.2525,1.1466,1.0536,1.0536,1.0474,1.0256,0.9723,0.9575,0.9608,0.951,0.9494,0.9445,0.9267,0.9153,0.9064,0.8974,0.8812,0.8868,0.9305,0.9323,0.9087,0.8656,0.8612,0.8744,0.9218,0.9262,0.9602,1.0506,1.0963,1.1525,1.2422,1.2675,1.2816,1.2811,1.2636,1.2452,1.2305,1.2415,1.2421,1.2344,1.2372,1.2347,1.2255,1.1992,1.1858,1.1794,1.1665,1.1404,0.0,0.0,0.0,0.0,0.0,0.0,0.0,2.1493,2.1687,2.1687,2.1742,2.159,2.0725,1.9888,1.9031,1.8271,1.7641,1.7246,1.7353,1.7742,1.8035,1.8155,1.8169,1.8262,1.8557,1.8838,1.9011,1.9011,1.9225,1.943,1.943,1.943,1.943,1.943,1.943,1.943,1.943,1.943,1.943,1.943,1.943,1.943,1.943,1.943,1.9239,1.8998,1.8945,1.8784,1.8557,1.825,1.8075,1.8049,1.7796,1.7675,1.7635,1.7393,1.7286,1.7246,1.6954,1.6874,1.681,1.6555,1.5251,1.381,1.3766,1.2292,1.0594,1.0594,1.0289,0.9971,0.9739,0.9681,0.9665,0.9583,0.9772,0.9878,0.9776,0.9901,0.9975,0.9771,0.9589,0.9668,1.0388,1.0377,0.9945,0.9007,0.8867,0.9043,0.9559,0.9646,1.0072,1.1198,1.18,1.2314,1.2656,1.3262,1.344,1.2985,1.2904,1.2744,1.2398,1.2385,1.2469,1.2599,1.2353,1.238,1.2692,1.2246,1.2058,1.2083,1.1809,1.1556,2.1449,2.1559,2.1559,2.1559,2.1595,2.1632,0.0,2.1668,2.1687,2.1687,2.1961,2.1667,1.9729,1.9606,1.9192,1.7594,1.7282,1.7393,1.7822,1.7955,1.8182,1.8758,1.8824,1.8781,1.8878,1.9145,1.9319,1.9319,1.9403,1.943,1.943,1.943,1.943,1.943,1.943,1.943,1.943,1.943,1.943,1.943,1.943,1.943,1.943,1.943,1.9403,1.9305,1.9038,1.8905,1.8851,1.8557,1.8437,1.841,1.8062,1.7942,1.7902,1.7649,1.7542,1.7528,1.7488,1.7488,1.7278,1.6083,1.5542,1.5287,1.5047,1.4089,1.2997,1.2997,1.226,1.1238,1.0146,0.986,0.9819,0.9665,1.0355,1.1023,1.0995,1.1614,1.2172,1.2104,1.196,1.1783,1.1625,1.1616,1.1178,0.9926,0.9777,0.9515,0.8823,0.8744,0.9384,1.1111,1.0636,1.0895,1.2571,1.3262,1.3573,1.3507,1.3307,1.3026,1.2744,1.273,1.2685,1.2613,1.2755,1.2783,1.2692,1.2796,1.2711,1.2434,1.2098,1.1472,2.165,2.1687,2.1687,2.1687,2.1687,2.1742,2.198,2.2034,2.2108,2.2346,2.2046,2.1501,2.0893,1.9888,1.8944,0.0,1.7962,1.7756,1.7955,1.8288,1.8595,1.8891,1.9078,1.9185,1.9185,1.9292,1.943,1.943,1.943,1.943,1.943,1.943,1.943,1.943,1.943,1.943,1.943,1.943,1.943,1.943,1.943,1.943,1.943,1.943,1.943,1.9417,1.9239,1.9185,1.9158,1.8865,1.8744,1.8718,1.8424,1.8303,1.825,1.7756,1.7582,1.7582,1.7582,1.7582,1.7516,1.6964,1.6336,1.5733,1.5624,1.47,1.3705,1.3705,1.278,1.1681,1.1187,1.0553,0.9998,0.9819,1.0562,1.1321,1.1198,1.1976,1.2624,1.2624,1.2487,1.2524,1.2883,1.2754,1.239,1.1849,1.1152,1.0593,1.0202,1.0159,1.0679,1.1972,1.1757,1.2057,1.3392,1.3765,1.3828,1.3613,1.3493,1.332,1.3026,1.2878,1.2768,1.2709,1.2732,1.2764,1.2819,1.2813,1.2796,1.2804,1.2434,1.1803,2.1687,2.1687,2.1723,2.1833,2.1851,2.1961,2.2364,2.2455,2.2547,2.284,2.2351,2.1821,2.1492,2.0232,1.9118,1.8835,1.8316,1.8022,1.8102,1.8611,1.8958,1.9038,1.9239,1.943,1.943,1.943,1.943,1.943,1.943,1.943,1.943,1.943,1.943,1.943,1.943,1.943,1.943,1.943,1.943,1.943,1.943,1.943,1.943,1.943,1.943,1.943,1.943,1.943,1.9403,1.9132,1.9052,1.9011,1.8731,1.8611,1.8544,1.8023,1.7782,1.7716,1.7716,1.7649,1.7582,1.7582,1.7041,1.6393,1.6393,1.5464,1.447,1.447,1.3509,1.2477,1.2469,1.1836,1.1166,1.0961,1.1475,1.1913,1.1796,1.2531,1.3202,1.3136,1.3315,1.3579,1.4173,1.3977,1.3666,1.3517,1.2754,1.1965,1.1381,1.1542,1.1843,1.2272,1.2796,1.3264,1.3701,1.3955,1.4001,1.3733,1.372,1.36,1.3307,1.3106,1.2998,1.2981,1.2873,1.2871,1.3019,1.2927,1.2963,1.3069,1.2769,1.2349,2.1687,2.1687,2.1778,2.2163,2.2254,2.2382,2.2785,2.2895,2.2895,2.2895,2.3158,2.2784,2.0735,2.0623,2.0143,1.7989,1.7849,1.8089,1.8437,1.8731,1.9025,1.9377,1.9359,1.943,0.0,1.943,1.943,1.943,1.943,1.943,1.943,1.943,1.943,1.943,1.943,1.943,1.943,1.943,1.943,1.943,1.943,1.943,1.943,1.943,1.943,1.943,1.943,1.943,1.943,1.9417,1.9359,1.9319,1.9025,1.8905,1.8878,1.8571,1.8277,1.7982,1.7982,1.7836,1.7582,1.7582,1.7582,1.7529,1.7529,1.6764,1.5849,1.5849,1.4984,1.4008,1.3846,1.3793,1.3728,1.3532,1.3427,1.3322,1.3175,1.3876,1.4496,1.4292,1.5057,1.5631,1.5398,1.5331,1.5132,1.4559,1.4422,1.3653,1.1564,1.21,1.2314,1.1456,1.2966,1.3701,1.2839,1.3574,1.4082,1.4082,1.4068,1.3935,1.36,1.3586,1.3561,1.3488,1.3341,1.3265,1.3303,1.3402,1.3368,1.3171,1.3034,1.2959,2.2016,2.2089,2.2181,2.2602,2.2693,2.2803,2.3206,2.3297,2.337,2.3694,2.3251,2.2379,2.0956,2.0184,1.928,1.7845,1.8009,1.837,1.8477,1.8905,1.9252,1.9417,1.943,0.0,0.0,0.0,0.0,1.943,1.943,1.943,1.943,1.943,1.943,1.943,1.943,1.943,1.943,1.943,1.943,1.943,1.943,1.943,1.943,1.943,1.943,1.943,1.943,1.943,1.943,1.943,1.943,1.9417,1.9252,1.9225,1.9199,1.9105,1.8878,1.8542,1.841,1.8143,1.7889,1.7889,1.7756,1.7582,1.7582,1.7318,1.7041,1.7041,1.618,1.5304,1.5223,1.4604,1.3965,1.3832,1.4245,1.4693,1.455,1.5159,1.5696,1.5654,1.5726,1.5744,1.5698,1.5524,1.519,1.4603,1.4362,1.3976,1.3234,1.3434,1.3519,1.3179,1.3743,1.3955,1.3659,1.3913,1.4082,1.4082,1.4082,1.4041,1.3948,1.3706,1.3587,1.3575,1.3463,1.3416,1.3416,1.3506,1.3538,1.3463,1.3368,1.3042,2.2217,2.2382,2.2602,2.3023,2.3114,2.3224,2.3675,2.3767,2.384,2.4146,2.3637,2.2769,2.1658,2.057,1.9591,1.8878,1.8994,1.914,1.9071,1.9595,1.988,1.943,1.943,1.943,0.0,0.0,0.0,1.943,1.943,1.943,1.943,1.943,1.943,1.943,1.943,1.943,1.943,1.943,1.943,1.943,1.943,1.943,1.943,1.943,1.943,1.943,1.943,1.943,1.943,1.943,1.943,1.943,1.943,1.943,1.943,1.943,1.9239,1.9038,1.8744,1.845,1.821,1.821,1.7996,1.7742,1.7742,1.7675,1.7582,1.7582,1.7041,1.6499,1.6499,1.5914,1.5334,1.5223,1.5398,1.5535,1.5384,1.5695,1.5918,1.5761,1.5871,1.5952,1.5798,1.5591,1.5271,1.4883,1.4496,1.4202,1.4095,1.4082,1.4082,1.4082,1.4082,1.4082,1.4082,1.4082,1.4082,1.4082,1.4082,1.4082,1.4082,1.3908,1.3801,1.387,1.375,1.3706,1.3786,1.3793,1.3734,1.362,1.3681,1.3351,2.2327,2.2638,2.3023,2.3425,2.3535,2.3627,2.411,2.4202,2.4202,2.4202,2.4202,2.3836,2.2736,2.1658,2.0928,2.0826,2.0529,2.0208,2.003,2.0652,2.0673,0.0,0.0,0.0,0.0,0.0,0.0,1.943,0.0,1.943,1.943,1.943,1.943,1.943,1.943,1.943,1.943,1.943,1.943,1.943,1.943,1.943,1.943,1.943,1.943,1.943,1.943,1.943,1.943,1.943,1.943,1.943,1.943,1.943,1.943,1.943,1.943,1.9332,1.9052,1.8758,1.8517,1.8517,1.8317,1.8009,1.7995,1.7836,1.7609,1.7582,1.7582,1.7582,1.7582,1.7582,1.7582,1.7582,1.6776,1.596,1.5756,1.5579,1.5369,1.4923,1.5601,1.6179,1.5885,1.5605,1.5418,1.5404,1.491,1.4442,1.4148,1.4095,1.4082,1.4082,1.4082,1.4082,1.4082,1.4082,1.4082,1.4082,1.4082,1.4082,1.4082,1.4082,1.4208,1.4391,1.409,1.4076,1.4307,1.4197,1.4001,1.3753,1.3943,1.3828,2.3023,2.3261,2.3444,2.3895,2.4005,2.4073,2.4183,2.4202,2.4202,2.4202,2.4202,2.3836,2.2736,2.2266,2.1556,1.9901,1.9929,0.0,1.903,1.9439,0.0,1.943,1.943,1.943,1.943,1.943,0.0,0.0,1.943,1.943,1.943,1.943,1.943,1.943,1.943,1.943,1.943,1.943,1.943,1.943,1.943,1.943,1.943,1.943,1.943,1.943,1.943,1.943,1.943,1.943,1.943,1.943,1.943,1.943,1.943,1.943,1.943,1.9417,1.9279,1.9065,1.8811,1.8811,1.8611,1.833,1.8062,1.7942,1.7876,1.7649,1.7582,1.7582,1.7582,1.7582,1.7582,1.7582,1.7371,1.7134,1.7121,1.6925,1.669,1.6598,1.6418,1.6179,1.5885,1.5718,1.5645,1.5431,1.5084,1.475,1.4442,1.4215,1.4082,1.4082,1.4082,1.4082,1.4082,1.4082,1.4082,1.4082,1.4082,1.4082,1.4082,1.4082,1.4208,1.4391,1.4323,1.4365,1.4615,1.4524,1.4445,1.4359,1.4379,1.4203,2.3316,2.3627,2.3859,2.4146,2.4202,2.4202,2.4202,2.4202,2.4202,2.4202,2.4202,2.4003,2.3338,2.2467,2.1556,0.0,0.0,0.0,1.9291,1.9765,1.9996,0.0,1.943,0.0,1.943,1.943,1.943,0.0,1.943,1.943,1.943,1.943,1.943,1.943,1.943,1.943,1.943,1.943,1.943,1.943,1.943,1.943,1.943,1.943,1.943,1.943,0.0,1.943,1.943,1.943,1.943,1.943,1.943,1.943,1.943,1.943,1.943,1.943,1.943,1.9252,1.9118,1.9118,1.8918,1.8651,1.8422,1.8288,1.8183,1.7876,1.7782,1.7756,1.7622,1.7582,1.7582,1.7582,1.7582,1.7582,1.7582,1.7462,1.7353,1.7233,1.6723,1.6219,1.6046,1.5912,1.5731,1.5605,1.5337,1.5044,1.475,1.4349,1.4082,1.4082,1.4082,1.4082,1.4082,1.4082,1.4082,1.4082,1.4082,1.4082,1.4082,1.4082,1.425,1.4517,1.4433,1.4615,1.4992,1.4862,1.4787,1.4724,1.467,1.4501,2.3462,2.3877,2.4202,2.4202,2.4202,2.4202,2.4202,2.4202,2.4202,2.4202,2.4202,2.4202,2.4202,2.2619,2.1556,2.2165,2.1428,2.0535,1.9975,2.0652,2.073,1.9533,1.943,1.943,1.943,1.943,1.943,1.943,1.943,1.943,1.943,1.943,1.943,1.943,1.943,1.943,1.943,1.943,1.943,1.943,1.943,1.943,1.943,1.943,1.943,1.943,0.0,0.0,1.943,1.943,1.943,1.943,1.943,1.943,1.943,1.943,1.943,1.943,1.943,1.943,1.943,1.943,1.9199,1.8971,1.8931,1.8744,1.849,1.8142,1.8022,1.7929,1.7716,1.7609,1.7582,1.7582,1.7582,1.7582,1.7582,1.7582,1.7502,1.7259,1.6764,1.6326,1.6335,1.6019,1.5784,1.5784,1.5578,1.5311,1.5102,1.4553,1.4135,1.4095,1.4082,1.4082,1.4082,1.4082,1.4082,1.4082,1.4082,1.4082,1.4082,1.4082,1.4292,1.4657,1.4517,1.4741,1.534,1.5215,1.507,1.4973,1.4973,1.4838,2.3932,2.4146,2.4202,2.4202,2.4202,2.4202,2.4202,2.4202,2.4202,2.4202,2.4202,2.4202,2.4202,2.3904,2.3088,2.1454,2.2215,2.2033,1.9181,2.016,2.073,0.0,1.943,1.943,1.943,1.943,0.0,0.0,0.0,1.943,1.943,1.943,1.943,1.943,1.943,1.943,1.943,1.943,1.943,1.943,1.943,1.943,1.943,1.943,1.943,1.943,1.943,0.0,1.943,1.943,1.943,1.943,1.943,1.943,1.943,1.943,1.943,1.943,1.943,1.943,1.943,1.943,1.9332,1.9239,1.8998,1.8891,1.8784,1.849,1.8237,1.7982,1.7929,1.7769,1.7582,1.7582,1.7582,1.7582,1.7582,1.7582,1.7502,1.7259,1.6874,1.6553,1.6362,1.6019,1.5784,1.5784,1.5578,1.5378,1.5324,1.4803,1.4349,1.4108,1.4082,1.4082,1.4082,1.4082,1.4082,1.4082,1.4082,1.4082,1.4082,1.4082,1.4208,1.4433,1.4559,1.4824,1.5131,1.5257,1.5352,1.5309,1.5309,1.5133,2.4036,2.4202,2.4202,2.4202,2.4202,2.4202,2.4202,2.4202,2.4202,2.4202,2.4202,2.4202,2.4202,2.3705,2.2987,2.1912,2.2303,2.191,1.9661,2.0427,2.1002,2.0385,1.9764,1.9649,2.027,1.9764,1.943,0.0,0.0,1.943,1.943,1.943,1.943,1.943,1.943,1.943,1.943,1.943,1.943,1.943,1.943,1.943,1.943,1.943,1.943,1.943,1.943,0.0,1.943,1.943,1.943,1.943,1.943,1.943,1.943,1.943,1.943,1.943,1.943,1.943,1.943,1.943,1.943,1.9345,1.9199,1.9158,1.9092,1.8798,1.8611,1.8382,1.8075,1.7876,1.7782,1.7622,1.7582,1.7582,1.7582,1.7582,1.7542,1.7447,1.7192,1.6847,1.6553,1.6259,1.6005,1.5845,1.5712,1.5565,1.5418,1.5017,1.4643,1.4349,1.4175,1.4082,1.4082,1.4082,1.4082,1.4082,1.4082,1.4082,1.4082,1.4082,1.4208,1.4391,1.4475,1.4741,1.509,1.5215,1.5298,1.5382,1.5382,1.5309,2.3999,2.4202,2.4202,2.4202,2.4202,2.4202,2.4202,2.4202,2.4202,2.4202,2.4202,2.4202,2.4202,2.3488,2.2787,2.2535,2.2497,2.2044,2.0668,2.1249,2.1768,2.1616,2.073,0.0,2.1517,2.073,0.0,0.0,0.0,0.0,1.9417,1.943,1.943,1.943,1.943,1.943,1.943,1.943,1.943,1.943,1.943,1.943,1.943,1.943,1.943,1.943,1.943,0.0,0.0,1.943,1.943,1.943,1.943,1.943,1.943,1.943,1.943,1.943,1.943,1.943,1.943,1.943,1.943,1.943,1.943,1.943,1.9377,1.9078,1.8971,1.8798,1.8222,1.8035,1.7916,1.7662,1.7582,1.7582,1.7582,1.7582,1.7582,1.7582,1.7393,1.7099,1.6754,1.646,1.6179,1.5872,1.5784,1.5704,1.5524,1.5231,1.4963,1.4736,1.4335,1.4082,1.4082,1.4082,1.4082,1.4082,1.4082,1.4082,1.4082,1.4082,1.4208,1.4391,1.4391,1.4615,1.509,1.509,1.5215,1.5382,1.5382,1.5382,2.4073,2.4202,2.4202,2.4202,2.4202,2.4202,2.4202,2.4202,2.4202,2.4202,2.4202,2.4202,2.4202,2.4102,2.3687,2.2686,2.366,2.3894,2.2023,2.3004,2.3656,2.2942,0.0,0.0,2.2805,2.2749,0.0,0.0,0.0,0.0,1.9475,1.943,1.943,1.943,1.943,1.943,1.943,1.943,1.943,1.943,1.943,1.943,1.943,1.943,1.943,1.943,1.943,0.0,0.0,1.943,1.943,1.943,1.943,1.943,1.943,1.943,1.943,1.943,1.943,1.943,1.943,1.943,1.943,1.943,1.943,1.943,1.9417,1.9332,1.9132,1.8851,1.8531,1.825,1.7916,1.7662,1.7582,1.7582,1.7582,1.7582,1.7582,1.7582,1.7393,1.7099,1.6754,1.646,1.6179,1.5872,1.5784,1.5771,1.5792,1.5538,1.5351,1.5324,1.4576,1.4082,1.4082,1.4082,1.4082,1.4082,1.4082,1.4082,1.4082,1.4082,1.4208,1.4391,1.4391,1.4615,1.509,1.509,1.5215,1.5382,1.5382,1.5382,2.3675,2.3969,2.4202,2.4202,2.4202,2.4251,2.435,2.4399,2.4449,2.4597,2.4646,2.4597,2.4381,2.4399,2.4183,2.3637,2.4249,2.434,2.3104,2.3688,2.417,2.4117,2.3424,0.0,0.0,0.0,0.0,0.0,0.0,0.0,2.1574,2.0213,1.943,1.943,1.943,1.943,1.943,1.943,1.943,1.943,1.943,1.943,1.943,1.943,1.943,1.943,1.943,0.0,0.0,1.943,1.943,1.943,1.943,1.943,1.943,1.943,1.943,1.943,1.943,1.943,1.943,1.943,1.943,1.943,1.943,1.943,1.943,1.943,1.9279,1.9118,1.8824,1.8342,1.7916,1.7662,1.7582,1.7582,1.7582,1.7582,1.7582,1.7582,1.7488,1.7367,1.7072,1.6727,1.6433,1.6139,1.5939,1.5784,1.5784,1.5578,1.5391,1.5391,1.4763,1.4349,1.4349,1.4188,1.4082,1.4082,1.4082,1.4166,1.4279,1.4279,1.4363,1.4559,1.4559,1.4741,1.509,1.509,1.5215,1.5382,1.5382,1.5382,2.3389,2.384,2.4202,2.4202,2.4251,2.435,2.448,2.4578,2.4677,2.4892,2.4892,2.4843,2.4529,2.448,2.443,2.4251,2.4459,2.4521,2.4175,2.435,2.4771,2.5278,0.0,2.439,0.0,2.4556,0.0,0.0,0.0,0.0,0.0,2.1402,2.027,1.9938,1.9591,1.943,1.943,1.943,1.943,1.943,1.943,1.943,1.943,1.943,1.943,1.943,0.0,0.0,0.0,1.943,1.943,1.943,1.943,1.943,1.943,1.943,1.943,1.943,1.943,1.943,1.943,1.943,1.943,1.943,1.943,1.943,1.943,1.943,1.9305,1.9172,1.8865,1.8368,1.7916,1.7662,1.7582,1.7582,1.7582,1.7582,1.7582,1.7582,1.7582,1.7488,1.7246,1.6981,1.6714,1.6375,1.6099,1.5925,1.5798,1.5658,1.5524,1.5524,1.5084,1.471,1.4623,1.4464,1.4302,1.4292,1.4292,1.4321,1.4475,1.4475,1.4615,1.4824,1.4741,1.4866,1.5173,1.5131,1.5215,1.5382,1.5382,1.5382,2.3485,2.384,2.4202,2.4202,2.435,2.448,2.448,2.4677,2.4892,2.4892,2.4892,2.4843,2.4529,2.448,2.443,2.4251,2.4202,2.4496,2.5252,2.5362,2.5674,0.0,0.0,2.6591,2.6591,0.0,0.0,0.0,0.0,0.0,0.0,2.2974,2.241,2.1231,2.004,1.943,1.943,1.943,1.943,1.943,1.943,1.943,1.943,1.943,1.943,0.0,0.0,0.0,0.0,1.943,1.943,1.943,1.943,1.943,1.943,1.943,1.943,1.943,1.943,1.943,1.943,1.943,1.943,1.943,1.943,1.943,1.943,1.943,1.9158,1.8865,1.8571,1.8277,1.7916,1.7662,1.7582,1.7582,1.7582,1.7582,1.7582,1.7582,1.7582,1.7488,1.7246,1.7192,1.6991,1.6415,1.6321,1.6166,1.5824,1.5784,1.5784,1.5784,1.5565,1.5241,1.4925,1.4884,1.4833,1.4713,1.4699,1.4699,1.4699,1.4699,1.4824,1.509,1.4824,1.495,1.5382,1.5215,1.5215,1.5382,1.5382,1.5382,2.3799,2.4231,2.4646,2.443,2.4578,2.4843,2.499,2.5137,2.5235,2.5382,2.543,2.5333,2.5088,2.5039,2.499,2.4745,2.4695,2.4927,2.5563,0.0,0.0,2.6554,2.6591,2.6591,0.0,0.0,0.0,0.0,0.0,0.0,0.0,2.4667,2.3648,2.2467,2.1288,2.0615,2.0615,1.9822,1.943,1.943,1.943,1.943,1.943,1.943,0.0,0.0,0.0,0.0,0.0,1.943,1.943,1.943,1.943,1.943,1.943,1.943,1.943,1.943,1.943,1.943,1.943,1.943,1.943,1.943,1.943,1.943,1.943,1.943,1.9305,1.9118,1.8624,1.8424,1.8223,1.7702,1.7582,1.7582,1.7582,1.7582,1.7582,1.7582,1.7582,1.7555,1.7514,1.7326,1.7072,1.6633,1.6393,1.6166,1.5824,1.5784,1.5784,1.5784,1.5704,1.5538,1.5287,1.5191,1.5078,1.4833,1.4977,1.5007,1.4964,1.495,1.509,1.5298,1.5215,1.5257,1.5382,1.534,1.534,1.5382,1.5382,1.5382,2.4181,2.4474,2.4892,2.4677,2.4824,2.5088,2.5235,2.5382,2.5479,2.5693,2.5693,2.5645,2.5333,2.5284,2.5235,2.4941,2.4843,2.5026,2.582,0.0,0.0,2.6554,0.0,0.0,0.0,0.0,0.0,0.0,0.0,0.0,0.0,2.5916,2.511,2.439,2.2749,2.1858,2.1858,2.1117,2.0558,2.0111,2.0111,1.9822,1.943,1.943,0.0,0.0,0.0,0.0,0.0,1.943,1.943,1.943,1.943,1.943,1.943,1.943,1.943,1.943,1.943,1.943,1.943,1.943,1.943,1.943,1.943,1.943,1.943,1.943,1.943,1.9252,1.8771,1.8571,1.837,1.7876,1.7662,1.7582,1.7582,1.7582,1.7582,1.7582,1.7582,1.7582,1.7582,1.7487,1.7259,1.6914,1.662,1.6326,1.6032,1.5899,1.5784,1.5784,1.5784,1.5704,1.5578,1.5604,1.5528,1.5325,1.5403,1.5476,1.5402,1.5273,1.5257,1.5382,1.5382,1.5382,1.5382,1.5382,1.5382,1.5382,1.5382,1.5382,0.0,2.4638,2.4941,2.4941,2.5137,2.5333,2.5333,2.5528,0.0,2.5693,2.5693,2.5645,2.5382,2.5333,2.5235,2.499,2.4763,2.4995,0.0,2.5815,0.0,0.0,2.6591,0.0,0.0,0.0,0.0,0.0,0.0,0.0,0.0,2.6591,2.6591,2.6591,2.4445,2.3199,2.3143,2.303,2.241,2.1345,2.1345,2.073,1.9533,1.9533,0.0,0.0,0.0,0.0,0.0,1.943,1.943,1.943,1.943,1.943,1.943,1.943,1.943,1.943,1.943,1.943,1.943,1.943,1.943,1.943,1.943,1.943,1.943,1.943,1.943,1.9292,1.8998,1.8704,1.8424,1.8062,1.7809,1.7582,1.7582,1.7582,1.7582,1.7582,1.7582,1.7582,1.7582,1.7582,1.7488,1.7246,1.6914,1.662,1.6362,1.6032,1.5845,1.5784,1.5832,1.5832,1.5832,1.6044,1.612,1.5988,1.5966,1.5979,1.595,1.5657,1.5455,1.5455,1.5425,1.5425,1.5425,1.5396,1.5382,1.5382,1.5382,1.5382,2.5412,0.0,2.543,2.5235,2.5382,2.5596,0.0,2.5645,2.5693,2.5693,2.5693,2.5693,2.5645,2.5596,2.5596,2.5528,2.5553,2.5786,2.6404,0.0,0.0,2.6627,2.6591,0.0,0.0,0.0,0.0,0.0,0.0,0.0,0.0,2.6591,2.6591,2.6591,2.6081,2.5293,2.439,2.348,2.2862,2.258,2.258,2.1957,2.0788,2.0788,0.0,0.0,0.0,0.0,2.073,1.9764,1.943,1.943,1.943,1.943,1.943,1.943,1.943,1.943,1.943,1.943,1.943,1.943,1.943,1.943,1.943,1.943,1.943,1.943,1.943,1.9292,1.8998,1.8704,1.8424,1.8062,1.7809,1.7582,1.7582,1.7582,1.7582,1.7582,1.7582,1.7582,1.7582,1.7582,1.7488,1.7246,1.7139,1.6911,1.6388,1.6206,1.6086,1.5811,1.5974,1.613,1.613,1.6331,1.6397,1.6074,1.6442,1.6565,1.6272,1.6184,1.614,1.614,1.5921,1.5761,1.5761,1.5513,1.5382,1.5382,1.5382,1.5382,2.5693,2.5693,2.5693,2.5528,2.5577,2.5693,2.5693,2.5693,2.5693,2.5693,2.5693,2.5693,2.5693,2.5693,2.5693,2.5693,2.5847,0.0,0.0,0.0,2.7098,2.6954,2.6755,0.0,0.0,0.0,0.0,0.0,0.0,0.0,0.0,2.6591,2.6591,2.6591,2.6591,2.63,2.5624,2.5,2.439,2.3815,2.3815,2.3199,2.2013,2.2013,2.2013,0.0,0.0,0.0,2.1174,2.05,1.988,1.943,1.943,1.943,1.943,1.943,1.943,1.943,1.943,1.943,1.943,1.943,1.943,1.943,1.943,1.943,1.943,1.943,1.943,1.939,1.9172,1.8811,1.845,1.829,1.7903,1.7582,1.7582,1.7582,1.7582,1.7582,1.7582,1.7582,1.7582,1.7582,1.7528,1.742,1.7389,1.7252,1.6927,1.6742,1.6594,1.643,1.6388,1.6353,1.6353,1.6636,1.6706,1.6536,1.6762,1.6815,1.6639,1.6492,1.6419,1.6419,1.6213,1.6126,1.6126,1.595,1.5862,1.5862,1.5862,1.5862,2.5693,2.5693,2.5693,2.5693,2.5693,2.5693,2.5693,2.5693,2.5693,2.5693,2.5693,2.5693,2.5693,2.5693,2.5713,0.0,0.0,0.0,2.6816,2.7214,2.7476,2.7441,0.0,0.0,0.0,0.0,0.0,0.0,0.0,0.0,0.0,2.6682,2.6627,2.6627,2.6646,2.6591,2.6591,2.6591,2.6081,2.5055,2.5055,2.4445,2.3255,2.3255,2.3255,2.3255,0.0,0.0,2.1744,2.1574,2.0773,1.9649,1.9649,1.9649,1.9649,1.9533,1.9591,1.9707,1.9533,1.9417,1.943,1.943,1.943,1.9475,1.9475,1.9475,1.9475,1.9475,1.9417,1.943,1.943,1.8931,1.849,1.849,1.8023,1.7582,1.7582,1.7582,1.7582,1.7582,1.7582,1.7582,1.7582,1.7582,1.7582,1.7582,1.7642,1.7633,1.763,1.7377,1.7197,1.7113,1.686,1.6692,1.6636,1.6871,1.7073,1.7073,1.6985,1.6976,1.6976,1.6712,1.6565,1.6565,1.6507,1.6492,1.6492,1.6433,1.6419,1.6419,1.6419,1.6419,2.5693,2.5693,2.5693,2.5693,2.5693,2.5693,2.5693,2.5693,2.5693,2.5693,2.5693,2.5693,2.5693,2.5693,2.581,0.0,0.0,2.7428,0.0,0.0,2.7691,0.0,0.0,0.0,0.0,0.0,0.0,0.0,0.0,0.0,0.0,2.7043,2.6935,2.6935,2.6736,2.6591,2.6591,2.6591,2.6537,2.63,2.63,2.5679,2.4501,2.4501,2.4501,2.4445,0.0,2.348,2.4167,2.3143,2.2013,2.0888,2.0888,2.0888,2.0831,2.004,2.0385,2.1117,2.0097,1.9591,1.943,1.943,1.9533,1.9764,1.9764,1.9764,1.9764,1.9764,1.9591,1.943,1.943,1.8931,1.849,1.849,1.8023,1.7582,1.7582,1.7582,1.7582,1.7582,1.7582,1.7582,1.7582,1.7582,1.7582,1.7582,1.7818,1.7866,1.7606,1.7738,1.7674,1.7155,1.7202,1.717,1.6947,1.7153,1.7232,1.7232,1.7235,1.7252,1.7252,1.7208,1.7179,1.7179,1.6961,1.6829,1.6829,1.6551,1.6419,1.6419,1.6419,1.6419,2.5868,2.5693,2.5693,2.5693,2.5693,2.5693,2.5693,2.5693,2.5693,2.5693,2.5693,2.5693,2.5693,2.5693,2.5908,2.6621,0.0,2.776,2.7849,2.7906,0.0,0.0,0.0,0.0,0.0,0.0,0.0,0.0,0.0,0.0,0.0,0.0,2.7206,2.7206,2.7116,2.7008,2.7008,2.6899,2.6736,2.6591,2.6591,2.63,2.5789,2.5898,2.599,2.599,0.0,2.5313,2.5203,2.4467,2.3463,2.2394,2.224,2.224,2.2281,2.1388,2.1402,2.1672,2.05,1.9982,1.988,1.9707,1.9822,2.004,1.9866,1.9924,2.004,1.9866,1.9591,1.943,1.943,1.9045,1.8698,1.8698,1.8239,1.7806,1.7806,1.7687,1.7582,1.7582,1.7582,1.7582,1.7582,1.7582,1.7582,1.7582,1.7859,1.8014,1.8033,1.8138,1.811,1.7787,1.7683,1.75,1.7182,1.7246,1.7279,1.7279,1.7279,1.7279,1.7279,1.7279,1.7279,1.7279,1.7179,1.7106,1.7106,1.696,1.6887,1.6887,1.6887,1.6887,2.6332,2.6062,2.6014,2.5791,2.5693,2.5693,2.5693,2.5693,2.5693,2.5693,2.5693,2.5693,2.5693,2.5849,0.0,2.7051,2.7539,2.793,2.8242,0.0,0.0,0.0,0.0,0.0,0.0,0.0,0.0,0.0,0.0,0.0,0.0,0.0,2.753,2.753,2.7422,2.7368,2.7368,2.7206,2.6954,2.6682,2.6646,2.6591,2.6591,2.6899,2.6989,2.6989,2.726,2.6862,2.6027,2.579,2.5003,2.3894,2.3687,2.3631,2.3559,2.3183,2.2692,2.207,2.1117,2.0615,2.027,1.9982,2.0155,2.0328,2.0097,2.0213,2.0328,2.0097,1.9822,1.9591,1.943,1.9145,1.8919,1.8919,1.8508,1.8069,1.8016,1.7859,1.7687,1.7687,1.7687,1.7687,1.7793,1.774,1.7687,1.7687,1.7859,1.8122,1.837,1.8485,1.8484,1.8402,1.813,1.7765,1.7355,1.7279,1.7279,1.7279,1.7279,1.7279,1.7279,1.7279,1.7279,1.7279,1.7279,1.7279,1.7279,1.7279,1.7279,1.7279,1.7279,1.7279,2.7389,2.7105,2.6867,2.5917,2.5693,2.5693,2.5693,2.5693,2.5693,2.5693,2.5693,2.5693,2.5693,2.6337,2.707,2.7591,2.7969,2.8262,0.0,0.0,0.0,0.0,0.0,0.0,0.0,0.0,0.0,0.0,0.0,0.0,0.0,0.0,0.0,2.7853,2.7584,2.7368,2.7368,2.7368,2.726,2.6989,2.6736,2.6591,2.6591,2.6899,2.6989,2.6989,2.726,2.7368,2.726,2.726,2.6536,2.5461,2.5406,2.4948,2.4339,2.5406,2.4411,2.2467,2.2353,2.146,2.027,2.027,2.0443,2.0658,2.0658,2.0658,2.0658,2.0658,2.0443,2.0111,1.9546,1.9145,1.8919,1.8919,1.8616,1.8318,1.8069,1.7964,1.7964,1.7964,1.7964,1.8069,1.8318,1.8108,1.7964,1.7964,1.7964,1.8122,1.837,1.8684,1.8815,1.8789,1.8467,1.8013,1.7337,1.7279,1.7279,1.7279,1.7279,1.7279,1.7279,1.7279,1.7279,1.7279,1.7279,1.7279,1.7279,1.7279,1.7279,1.7279,1.7279,1.7279,2.7652,2.7179,2.6962,2.5965,2.5693,2.5693,2.5693,2.5693,2.5693,2.5693,2.5957,2.6211,2.6484,0.0,2.748,2.7689,2.8027,2.8301,0.0,0.0,0.0,0.0,0.0,0.0,0.0,0.0,0.0,0.0,0.0,0.0,0.0,0.0,0.0,2.8121,2.8014,2.796,2.796,2.7799,2.7638,2.7584,2.7279,2.7116,2.7116,2.7422,2.7584,2.7584,2.7853,2.796,2.7979,2.7799,2.7457,2.7025,2.7025,2.6844,2.6518,2.6409,2.5753,2.4799,2.3311,2.2467,2.1786,2.0831,2.0788,2.096,2.0773,2.0845,2.096,2.0773,2.0601,2.0385,1.9822,1.9678,1.9654,1.9223,1.9024,1.8886,1.865,1.8279,1.8069,1.8227,1.8122,1.8069,1.837,1.8318,1.8279,1.8279,1.8279,1.8384,1.8646,1.8817,1.8844,1.8818,1.8321,1.7896,1.7647,1.7395,1.7279,1.7279,1.7279,1.7279,1.7279,1.7279,1.7279,1.7279,1.7279,1.7279,1.7279,1.7279,1.7279,1.7279,1.7279,1.7279,2.8121,2.7416,2.6962,2.5965,2.5693,2.5693,2.5693,2.5693,2.5732,2.5869,2.6289,2.6719,2.7148,2.7461,0.0,0.0,2.8105,0.0,0.0,0.0,0.0,0.0,0.0,0.0,0.0,0.0,0.0,0.0,0.0,0.0,0.0,2.8301,2.8301,0.0,2.8301,2.8301,2.8301,2.8121,2.8014,2.8014,2.7799,2.7584,2.7422,2.7745,2.7906,2.7906,2.8174,2.8301,2.8301,2.8121,2.8014,2.8014,2.8014,2.8014,2.796,2.7295,2.6808,2.6245,2.4633,2.3855,2.3295,2.19,2.1574,2.1702,2.1517,2.1303,2.1203,2.1402,2.1174,2.073,2.0213,2.0174,2.0145,1.9596,1.9448,1.9362,1.8993,1.8608,1.8331,1.8541,1.8384,1.8384,1.8646,1.8579,1.8541,1.8541,1.8475,1.8541,1.8869,1.8921,1.8844,1.8818,1.8394,1.8043,1.7838,1.7618,1.7395,1.7293,1.7279,1.7279,1.7279,1.7279,1.7279,1.7279,1.7279,1.7279,1.7279,1.7279,1.7279,1.7279,1.7279,1.7279,2.9004,2.7981,2.6962,2.5965,2.5742,2.5742,2.5742,2.5693,2.581,2.6309,2.6738,2.7148,2.765,2.7728,0.0,2.8223,0.0,0.0,0.0,0.0,0.0,0.0,0.0,0.0,0.0,0.0,0.0,0.0,0.0,0.0,0.0,2.8301,2.8301,2.8301,2.8301,2.8301,2.8301,2.8301,2.8301,2.8301,2.8301,2.796,2.7422,2.7745,2.7906,2.7906,2.8174,2.8301,2.8301,2.8301,2.8301,2.8301,2.8301,2.8301,2.8301,2.8301,2.7511,2.6518,2.6518,2.5735,2.4505,2.3368,2.303,2.303,2.303,2.2199,2.1489,2.2708,2.2157,2.1146,2.0831,2.0501,2.0215,1.9886,1.9787,1.9628,1.9045,1.8921,1.8921,1.8921,1.8921,1.8974,1.9272,1.9078,1.8921,1.8921,1.8646,1.8527,1.8869,1.8921,1.8896,1.8833,1.8789,1.8525,1.7882,1.7823,1.7677,1.7355,1.7279,1.7279,1.7279,1.7279,1.7279,1.7279,1.7279,1.7279,1.7279,1.7279,1.7279,1.7279,1.7279,1.7279,3.0034,2.9004,2.8168,2.7887,2.7295,2.6825,2.7171,2.6714,2.6406,2.7129,2.7383,2.7598,2.8027,2.8105,0.0,2.8262,0.0,0.0,0.0,0.0,0.0,0.0,0.0,0.0,0.0,0.0,0.0,0.0,0.0,0.0,0.0,2.8301,2.8301,2.8301,2.8301,2.8301,2.8301,2.8301,2.8301,2.8301,2.8301,2.8194,2.8033,2.814,2.8174,2.8194,2.8301,2.8301,2.8301,2.8301,2.8301,2.8301,2.8301,2.8301,2.8301,2.8301,2.8067,2.7638,2.6808,2.6245,2.579,2.4561,2.4172,2.4172,2.4172,2.395,2.3743,2.4117,2.3351,2.2425,2.2353,2.1448,2.0424,1.9941,1.9787,1.9681,1.9293,1.9026,1.8974,1.913,1.9026,1.8974,1.9272,1.922,1.9182,1.9182,1.9116,1.9063,1.9168,1.9182,1.919,1.914,1.8921,1.8716,1.8511,1.8072,1.7779,1.7677,1.741,1.7279,1.7279,1.7279,1.7279,1.7279,1.7279,1.7279,1.7279,1.7279,1.7279,1.7279,1.7279,1.7279,3.026,2.9189,2.8215,2.8588,2.8262,2.7889,2.8077,2.7492,2.7051,2.7611,2.7845,2.7988,2.8242,2.8301,0.0,0.0,0.0,0.0,0.0,0.0,0.0,0.0,0.0,0.0,0.0,0.0,0.0,0.0,0.0,0.0,0.0,2.8301,2.8301,2.8301,2.8301,2.8301,2.8301,2.8301,2.8301,2.8301,2.8301,2.8301,2.8301,2.8301,2.8301,2.8301,2.8301,2.8301,2.8301,2.8301,2.8301,2.8301,2.8301,2.8301,2.8301,2.8301,2.8301,2.8174,2.7457,2.7241,2.7025,2.579,2.5406,2.5406,2.5406,2.5058,2.4782,2.5278,2.4578,2.3654,2.3468,2.2663,2.1541,2.0281,1.9895,1.972,1.9345,1.9532,1.9635,1.9324,1.9532,1.962,1.9324,1.9272,1.9272,1.9272,1.9272,1.9272,1.9272,1.9272,1.9272,1.9272,1.9096,1.8935,1.8803,1.8423,1.8086,1.7838,1.7633,1.7457,1.734,1.7279,1.7279,1.7279,1.7279,1.7279,1.7279,1.7279,1.7279,1.7279,1.7279,1.7279,3.0079,2.8958,2.7699,2.8727,2.8978,2.8911,2.8676,2.8237,2.7872,2.7767,2.8027,2.8301,2.8301,2.8301,2.8301,0.0,0.0,0.0,0.0,0.0,0.0,0.0,0.0,0.0,0.0,0.0,0.0,0.0,0.0,0.0,0.0,2.8301,2.8301,2.8301,2.8301,2.8301,2.8301,2.8301,2.8301,2.8301,2.8301,2.8301,2.8301,2.8301,2.8301,2.8301,2.8301,2.8301,2.8301,2.8301,2.8301,2.8301,2.8301,2.8301,2.8301,2.8301,2.8301,2.8301,2.8301,2.8301,2.8121,2.7025,2.6645,2.6645,2.6645,2.5899,2.5278,2.6354,2.579,2.4751,2.439,2.3941,2.3068,2.0939,2.016,1.9849,1.9487,2.0225,2.0637,1.9635,2.0328,2.0688,1.962,1.9428,1.9428,1.9324,1.9272,1.9272,1.9272,1.9272,1.9272,1.9272,1.9272,1.9155,1.8862,1.8803,1.854,1.794,1.7852,1.7677,1.7337,1.7293,1.7279,1.7279,1.7279,1.7279,1.7279,1.7279,1.7279,1.7279,1.7279,1.7279,3.1339,3.0486,2.9806,3.0824,3.102,3.0746,2.9905,2.9564,2.9161,2.8357,2.8223,2.8301,2.8301,2.8301,0.0,0.0,0.0,0.0,0.0,0.0,0.0,0.0,0.0,0.0,0.0,0.0,0.0,0.0,0.0,0.0,2.8301,2.8301,2.8301,2.8301,2.8301,2.8301,2.8301,2.8301,2.8301,0.0,2.8301,2.8301,2.8301,2.8301,2.8301,2.8301,2.8301,2.8301,2.8301,2.8301,2.8301,2.8301,2.8301,2.8301,2.8301,2.8301,2.8301,2.8301,2.8301,2.8301,2.8247,2.8014,2.7906,2.7906,2.7906,2.7726,2.7565,2.7853,2.7025,2.6046,2.5595,2.4544,2.337,2.2576,2.1502,2.0628,2.055,2.0739,2.0826,2.0585,2.1438,2.1844,2.0739,2.0585,2.0277,1.9428,1.9272,1.9272,1.9272,1.9272,1.9272,1.9272,1.9272,1.9242,1.9184,1.8935,1.873,1.8584,1.8101,1.7779,1.7721,1.7425,1.7279,1.7279,1.7279,1.7279,1.7279,1.7279,1.7279,1.7279,1.7279,1.7279,3.1761,3.1092,3.0531,3.1472,3.1667,3.1447,3.0871,3.0335,2.9723,2.9164,2.8654,2.8301,2.8301,0.0,0.0,0.0,0.0,0.0,0.0,0.0,0.0,0.0,0.0,0.0,0.0,0.0,0.0,0.0,0.0,2.8301,2.8301,2.8301,2.8301,2.8301,2.8301,2.8301,2.8301,2.8301,2.8301,2.8301,2.8301,2.8301,2.8301,2.8301,2.8301,2.8301,2.8301,2.8301,2.8301,2.8301,2.8301,2.8301,2.8301,2.8301,2.8301,2.8301,2.8301,2.8301,2.8301,2.8301,2.8301,2.8301,2.8301,2.8301,2.8301,2.8301,2.8301,2.8301,2.7699,2.6971,2.6555,2.5707,2.482,2.4418,2.2941,2.1692,2.1692,2.2097,2.2282,2.1794,2.2534,2.2935,2.1828,2.1234,2.0534,1.948,1.9724,1.9879,1.9376,1.9724,1.9879,1.9324,1.9272,1.9272,1.9272,1.9125,1.895,1.8803,1.8467,1.8145,1.7823,1.7647,1.7439,1.7279,1.7279,1.7279,1.7279,1.7279,1.7279,1.7279,1.7279,1.7279,3.1849,3.1383,3.0869,3.1516,3.1804,3.1851,3.1661,3.1014,3.038,2.9984,2.9059,2.8335,2.8548,0.0,0.0,0.0,0.0,0.0,0.0,0.0,0.0,0.0,0.0,0.0,0.0,0.0,0.0,0.0,0.0,2.8301,2.8301,2.8301,2.8301,2.8301,2.8301,2.8301,2.8301,2.8301,2.8301,2.8301,2.8301,2.8301,2.8301,2.8301,2.8301,2.8301,2.8301,2.8301,2.8301,2.8301,2.8301,2.8301,2.8301,2.8301,2.8301,2.8301,2.8301,2.8301,2.8301,2.8301,2.8301,2.8301,2.8301,2.8301,2.8301,2.8301,2.8301,2.8301,2.7988,2.7559,2.7129,2.6699,2.6269,2.5791,2.4313,2.2985,2.2835,2.3484,2.3831,2.2935,2.3484,2.3831,2.2935,2.1895,2.0826,1.9724,2.0483,2.079,1.9724,2.0328,2.0585,1.9672,1.9428,1.9272,1.9272,1.9272,1.9155,1.8891,1.8818,1.854,1.8013,1.7882,1.7691,1.7366,1.7308,1.7279,1.7279,1.7279,1.7279,1.7279,1.7279,1.7279,3.2025,3.1761,3.156,3.1673,3.2376,3.2794,3.1851,3.2173,3.2224,0.0,2.9059,2.8601,0.0,0.0,0.0,0.0,0.0,0.0,0.0,0.0,0.0,0.0,0.0,0.0,0.0,0.0,0.0,0.0,2.8301,2.8301,2.8301,2.8301,2.8301,2.8301,2.8301,2.8301,2.8301,2.8301,2.8301,2.8301,2.8301,2.8301,2.8301,2.8301,2.8301,2.8301,2.8301,2.8301,2.8301,2.8301,2.8301,2.8301,2.8301,2.8301,2.8301,2.8301,2.8301,2.8301,2.8301,2.8301,2.8301,2.8301,2.8301,2.8301,2.8301,2.8301,2.8301,2.8301,2.7988,2.7559,2.7129,2.6699,2.6269,2.5791,2.5479,2.502,2.4097,2.3998,2.4048,2.3881,2.3998,2.4029,2.3881,2.2985,2.1929,2.0842,2.1591,2.1878,2.0842,2.0826,2.0842,2.0688,1.9828,1.9272,1.9272,1.9272,1.9257,1.9213,1.895,1.8745,1.8657,1.8116,1.7794,1.775,1.7425,1.7279,1.7279,1.7279,1.7279,1.7279,1.7279,1.7279,3.2356,3.2025,3.1849,3.1717,3.2274,3.2785,3.2582,3.2669,3.256,3.1876,3.0897,0.0,0.0,0.0,0.0,0.0,0.0,0.0,0.0,0.0,0.0,0.0,0.0,0.0,0.0,0.0,0.0,0.0,2.8301,2.8301,2.8301,2.8301,2.8301,2.8301,2.8301,2.8301,2.8301,2.8301,2.8301,2.8301,2.8301,2.8301,2.8301,2.8301,2.8301,2.8301,2.8301,2.8301,2.8301,2.8301,2.8301,2.8301,2.8301,2.8301,2.8301,2.8301,2.8301,2.8301,2.8301,2.8301,2.8301,2.8301,2.8301,2.8301,2.8301,2.8301,2.8301,2.8301,2.7812,2.7266,2.707,2.6523,2.5977,2.5732,2.5693,2.5577,2.5118,2.502,2.502,2.502,2.502,2.4805,2.4196,2.3683,2.2835,2.1132,2.2333,2.2785,2.1132,2.1946,2.2232,2.103,2.0483,1.9931,1.9324,1.9272,1.9583,2.0189,2.0036,2.0171,2.0552,1.9535,1.8887,1.8703,1.7769,1.7279,1.7279,1.7279,1.7279,1.7279,1.7279,1.7279,3.255,3.2288,3.2025,3.1849,3.2216,3.2747,3.3042,0.0,3.2948,0.0,0.0,0.0,0.0,0.0,0.0,0.0,0.0,0.0,0.0,0.0,0.0,0.0,0.0,0.0,0.0,0.0,0.0,0.0,2.8301,2.8301,2.8301,2.8301,2.8301,2.8301,2.8301,2.8301,2.8301,2.8301,2.8301,2.8301,2.8301,2.8301,2.8301,2.8301,2.8301,2.8301,2.8301,2.8301,2.8301,2.8301,2.8301,2.8301,2.8301,2.8301,2.8301,2.8301,2.8301,2.8301,2.8301,2.8301,2.8301,2.8301,2.8301,2.8301,2.8301,2.8301,2.8301,2.8301,2.7754,2.7148,2.7051,2.6465,2.583,2.5713,2.5693,2.5693,2.5693,2.5693,2.5693,2.5693,2.5693,2.543,2.4658,2.4492,2.385,2.1979,2.3302,2.385,2.1946,2.3085,2.3484,2.1895,2.1234,2.0585,1.9776,1.948,1.9776,2.0826,2.0877,2.1257,2.2073,2.1031,2.028,1.9906,1.8534,1.7774,1.7699,1.7419,1.7419,1.7699,1.7419,1.7279,3.268,3.255,3.2313,3.2025,3.2572,3.3032,0.0,0.0,3.3935,0.0,0.0,0.0,0.0,0.0,0.0,0.0,0.0,0.0,0.0,0.0,0.0,0.0,0.0,0.0,0.0,0.0,0.0,0.0,2.8301,2.8301,2.8301,2.8301,2.8301,2.8301,2.8301,2.8301,2.8301,2.8301,2.8301,2.8301,2.8301,2.8301,2.8301,2.8301,2.8301,2.8301,2.8301,2.8301,2.8301,2.8301,2.8301,2.8301,2.8301,2.8301,2.8301,2.8301,2.8301,2.8301,2.8301,2.8301,2.8301,2.8301,2.8301,2.8301,2.8301,2.8301,2.8301,2.8301,2.7969,2.7539,2.7129,2.668,2.625,2.5791,2.5693,2.5693,2.5693,2.5693,2.5693,2.5693,2.5693,2.5693,2.5645,2.5645,2.5216,2.4097,2.4922,2.5216,2.4097,2.4029,2.4048,2.3949,2.208,2.0877,2.0842,1.9879,1.9776,2.0826,2.0877,2.1371,2.2416,2.209,2.1713,2.1306,1.997,1.9113,1.8703,1.7731,1.7777,1.8703,1.7731,1.7279,3.2766,3.2636,3.255,3.2313,3.2479,3.2725,3.2914,3.3457,3.3879,3.372,0.0,0.0,0.0,0.0,0.0,0.0,0.0,0.0,0.0,0.0,0.0,0.0,0.0,0.0,0.0,0.0,0.0,0.0,0.0,2.9775,2.8408,2.8953,2.9006,2.8301,2.8301,2.8301,2.8301,2.8301,2.8301,2.8301,2.8301,2.8301,2.8301,2.8301,2.8301,2.8301,2.8301,2.8301,2.8301,2.8301,2.8301,2.8301,2.8301,2.8301,2.8301,2.8301,2.8301,2.8301,2.8301,2.8301,2.8301,2.8301,2.8301,2.8301,2.8301,2.8301,2.8301,2.8301,2.7988,2.7689,2.748,2.7109,2.6758,2.6582,2.6512,2.6512,2.6512,2.6083,2.5693,2.5693,2.5693,2.5693,2.5693,2.5693,2.5333,2.4245,2.502,2.5333,2.4245,2.4707,2.4854,2.4196,2.3384,2.2685,2.1996,2.0928,2.1081,2.2835,2.2282,2.2702,2.4461,2.3566,2.2859,2.2416,2.1088,2.0155,1.9695,1.8102,1.7839,1.8796,1.7792,1.7279,3.3171,3.2978,3.2766,3.255,3.2574,3.2692,3.2887,0.0,3.3692,3.4184,0.0,0.0,0.0,0.0,0.0,0.0,0.0,0.0,0.0,0.0,0.0,0.0,0.0,0.0,0.0,0.0,0.0,0.0,0.0,0.0,2.9481,3.0089,2.9984,2.8847,2.8495,2.8301,2.8301,2.8301,2.8301,2.8301,2.8301,2.8301,2.8301,2.8301,2.8301,2.8301,2.8301,2.8301,2.8301,2.8301,2.8301,2.8301,2.8301,2.8301,2.8301,2.8301,2.8301,2.8301,2.8301,2.8301,2.8301,2.8301,2.8301,2.8301,2.8301,2.8301,2.8301,2.8301,2.8086,2.7904,2.7748,2.7344,2.7012,2.7012,2.7012,2.7012,2.7012,2.6562,2.6083,2.5977,2.5908,2.5849,2.5713,2.5693,2.5479,2.4756,2.5216,2.543,2.4707,2.5265,2.543,2.4707,2.4295,2.3782,2.3085,2.203,2.2181,2.3998,2.3434,2.385,2.5645,2.4802,2.4031,2.3467,2.224,2.1476,2.1186,1.9239,1.8596,1.9239,1.8241,1.7606,0.0,0.0,0.0,3.2766,3.2896,3.2982,3.2531,0.0,3.3603,0.0,0.0,0.0,0.0,0.0,0.0,0.0,0.0,0.0,0.0,0.0,0.0,0.0,0.0,0.0,0.0,0.0,0.0,0.0,3.1688,3.1688,3.1586,3.1586,3.1051,2.9932,2.89,2.8354,2.8301,2.8301,2.8301,2.8301,2.8301,2.8301,2.8301,2.8301,2.8301,2.8301,2.8301,2.8301,2.8301,2.8301,2.8301,2.8301,2.8301,2.8301,2.8301,2.8301,2.8301,2.8301,2.8301,2.8301,2.8301,2.8301,2.8301,2.8301,2.8301,2.8301,2.8301,2.8301,2.8301,2.8203,2.7845,2.7363,2.7051,2.7051,2.7051,2.7051,2.7051,2.7051,2.6934,2.6484,2.6406,2.6269,2.5791,2.5713,2.5713,2.5693,2.5693,2.5693,2.5693,2.5693,2.5693,2.5693,2.4756,2.4146,2.4146,2.3135,2.2985,2.4097,2.4146,2.4609,2.5645,2.5693,2.5284,2.4453,2.3514,2.3072,2.312,2.1141,2.0195,2.0195,1.9193,1.8241,3.3997,0.0,0.0,0.0,0.0,0.0,3.2939,3.3233,3.3648,0.0,0.0,0.0,0.0,0.0,0.0,0.0,0.0,0.0,0.0,0.0,0.0,0.0,0.0,0.0,0.0,0.0,0.0,0.0,3.3449,3.325,3.1666,3.1586,3.1051,2.9932,2.9618,2.9059,2.8281,2.8301,2.8301,2.8301,2.8301,2.8301,2.8301,2.8301,2.8301,2.8301,2.8301,2.8301,2.8301,2.8301,2.8301,2.8301,2.8301,2.8301,2.8301,2.8301,2.8301,2.8301,2.8301,2.8301,2.8301,2.8301,2.8301,2.8301,2.8301,2.8301,2.8301,2.8301,2.8301,2.8262,2.8144,2.8027,2.793,2.793,2.793,2.793,2.793,2.793,2.7715,2.6992,2.6836,2.6699,2.6289,2.6211,2.6094,2.5732,2.5693,2.5693,2.5693,2.5693,2.5693,2.5693,2.543,2.5265,2.5265,2.4245,2.4097,2.5167,2.4559,2.4609,2.5645,2.5693,2.5469,2.4902,2.4338,2.3866,2.3613,2.1329,2.0195,2.015,1.8519,1.7559,3.4675,3.4248,3.3822,3.3495,0.0,0.0,3.3111,3.3233,3.3477,0.0,0.0,0.0,0.0,0.0,0.0,0.0,0.0,0.0,0.0,0.0,0.0,0.0,0.0,0.0,0.0,3.4775,3.4531,3.3918,3.4482,3.4262,3.3001,3.2499,3.1971,3.1308,3.038,2.9618,2.8953,2.8495,2.8301,2.8301,2.8301,2.8301,2.8301,2.8301,2.8301,2.8301,2.8301,2.8301,2.8301,2.8301,2.8301,2.8301,2.8301,2.8301,2.8301,2.8301,2.8301,2.8301,2.8301,2.8301,2.8301,2.8301,2.8301,2.8301,2.8301,2.8301,2.8301,2.8301,2.8301,2.8301,2.8301,2.8301,2.8301,2.8301,2.8301,2.8301,2.8301,2.8301,2.8086,2.7422,2.7285,2.7148,2.6719,2.6504,2.6309,2.6055,2.581,2.5693,2.5693,2.5693,2.5693,2.5693,2.5693,2.5693,2.5693,2.5118,2.502,2.5645,2.5118,2.5069,2.5693,2.5693,2.5527,2.5125,2.4648,2.4121,2.3516,2.2117,2.1006,2.015,1.8642,1.7699,3.5508,3.4781,3.4048,3.3922,3.352,0.0,3.3093,3.3111,3.3244,3.3796,0.0,0.0,0.0,0.0,0.0,0.0,0.0,0.0,0.0,0.0,0.0,0.0,0.0,0.0,3.492,3.4872,3.4823,3.4823,3.4823,3.4775,3.4775,3.3918,3.33,3.3201,3.1308,3.0224,3.0089,2.9164,2.8601,2.8495,2.8495,2.8388,2.8301,2.8301,2.8335,2.8441,2.8335,2.8388,2.8441,2.8354,2.8301,2.8301,2.8301,2.8301,2.8301,2.8301,2.8301,2.8301,2.8301,2.8301,2.8301,2.8301,2.8301,2.8301,2.8301,2.8301,2.8301,2.8301,2.8301,2.8301,2.8301,2.8301,2.8301,2.8301,2.8301,2.8301,2.8301,2.8301,2.8184,2.7865,2.7787,2.7598,2.7168,2.6777,2.6504,2.6406,2.6055,2.5752,2.5693,2.5693,2.5693,2.5693,2.5693,2.5693,2.5693,2.5693,2.5693,2.5693,2.5693,2.5693,2.5693,2.5693,2.5547,2.5156,2.4668,2.4023,2.3159,2.3033,2.205,2.0331,1.9285,1.8334,3.5608,3.5332,3.4956,0.0,0.0,0.0,3.3212,3.3111,3.3244,0.0,0.0,0.0,0.0,0.0,0.0,0.0,0.0,0.0,0.0,0.0,0.0,0.0,0.0,0.0,3.5476,3.5259,3.5114,3.5114,3.492,3.4775,3.4775,3.458,3.4066,3.325,3.2801,3.2123,3.1278,3.1073,3.0505,2.9565,2.9565,2.9164,2.8301,2.8301,2.8761,2.9513,2.8654,2.8794,2.9513,2.8654,2.8301,2.8301,2.8301,2.8301,2.8301,2.8301,2.8301,2.8301,2.8301,2.8301,2.8301,2.8301,2.8301,2.8301,2.8301,2.8301,2.8301,2.8301,2.8301,2.8301,2.8301,2.8301,2.8301,2.8301,2.8301,2.8301,2.8301,2.8301,2.8262,2.8184,2.8164,2.8027,2.7617,2.7532,2.7187,2.6484,2.6309,2.6133,2.5732,2.5693,2.5693,2.5693,2.5693,2.5693,2.5693,2.5693,2.5693,2.5693,2.5693,2.5693,2.5693,2.5693,2.5654,2.5557,2.4777,2.418,2.3652,2.2529,2.1784,2.1382,1.9604,1.8703,0.0,0.0,0.0,3.4806,0.0,0.0,0.0,3.3897,3.3972,3.4248,0.0,0.0,0.0,0.0,0.0,0.0,0.0,0.0,0.0,0.0,0.0,0.0,0.0,0.0,3.562,3.5476,3.5332,3.5211,3.5066,3.492,3.4823,3.4775,3.458,3.4017,3.3449,3.2951,3.2398,3.1891,3.133,3.0742,3.0742,3.0193,2.9112,2.967,2.9618,2.9112,2.967,2.9618,2.9112,2.9112,2.8794,2.8301,2.8301,2.8301,2.8301,2.8301,2.8301,2.8301,2.8301,2.8301,2.8301,2.8301,2.8301,2.8301,2.8301,2.8301,2.8301,2.8301,2.8301,2.8301,2.8301,2.8301,2.8301,2.8301,2.8301,2.8301,2.8301,2.8301,2.8301,2.8301,2.8301,2.8223,2.8008,2.7865,2.7441,2.6797,2.6523,2.623,2.5752,2.5693,2.5693,2.5693,2.5693,2.5693,2.5693,2.5693,2.5693,2.5693,2.5693,2.5693,2.5693,2.5693,2.5625,2.541,2.4746,2.4219,2.3789,2.2986,2.229,2.1695,2.0827,1.9877,0.0,0.0,0.0,0.0,0.0,3.4806,0.0,0.0,0.0,0.0,0.0,0.0,0.0,0.0,0.0,0.0,0.0,0.0,0.0,0.0,0.0,0.0,0.0,0.0,0.0,3.5716,3.5572,3.5284,3.5235,3.5114,3.4872,3.4823,3.4775,3.4775,3.3967,3.3499,3.3499,3.265,3.2095,3.1942,3.1942,3.1308,3.0276,3.1154,3.0764,2.9323,3.0918,3.0712,2.927,2.9984,2.9565,2.8601,2.8388,2.8301,2.8301,2.8301,2.8301,2.8301,2.8301,2.8301,2.8301,2.8301,2.8301,2.8301,2.8301,2.8301,2.8301,2.8301,2.8301,2.8301,2.8301,2.8301,2.8301,2.8301,2.8301,2.8301,2.8301,2.8301,2.8301,2.8301,2.8301,2.8301,2.8301,2.8008,2.7637,2.7207,2.6777,2.6348,2.5869,2.5752,2.5693,2.5693,2.5693,2.5693,2.5693,2.5693,2.5693,2.5693,2.5693,2.5693,2.5693,2.5693,2.5566,2.5195,2.4766,2.4336,2.3906,2.3654,2.3003,2.1961,2.2031,2.1141,0.0,0.0,0.0,0.0,3.5458,0.0,0.0,0.0,3.468,3.468,0.0,0.0,0.0,0.0,0.0,0.0,0.0,0.0,0.0,0.0,0.0,0.0,0.0,0.0,0.0,3.6098,3.5812,3.5572,3.5332,3.5187,3.5163,3.492,3.4775,3.4775,3.4677,3.4628,3.4628,3.4482,3.3967,3.3001,3.3001,3.2448,3.141,3.1534,3.1971,3.2577,3.1869,3.1971,3.26,3.1717,3.0742,2.9618,2.8654,2.8301,2.8301,2.8301,2.8301,2.8301,2.8301,2.8301,2.8301,2.8301,2.8301,2.8301,2.8301,2.8301,2.8301,2.8301,2.8301,2.8301,2.8301,2.8301,2.8301,2.8301,2.8301,2.8301,2.8301,2.8301,2.8301,2.8301,2.8301,2.8301,2.8301,2.8262,2.8066,2.7656,2.7226,2.6797,2.6367,2.5977,2.5693,2.5693,2.5693,2.5693,2.5693,2.5693,2.5693,2.5693,2.5693,2.5693,2.5693,2.5693,2.5674,2.5615,2.5215,2.4785,2.4336,2.3971,2.3471,2.2906,2.2536,2.1695,0.0,0.0,0.0,0.0,0.0,0.0,3.573,0.0,3.568,0.0,0.0,0.0,0.0,0.0,0.0,0.0,3.5357,0.0,0.0,0.0,0.0,0.0,0.0,0.0,0.0,0.0,0.0,0.0,3.5716,3.5524,3.5235,3.5235,3.5114,3.4823,3.492,3.4969,3.4775,3.4775,3.458,3.4115,3.4115,3.3549,3.2549,3.3151,3.3001,3.2348,3.3101,3.3001,3.2297,3.2448,3.1869,3.0845,3.0401,2.9428,2.8301,2.8301,2.8301,2.8301,2.8301,2.8301,2.8301,2.8301,2.8301,2.8301,2.8301,2.8301,2.8301,2.8301,2.8301,2.8301,2.8301,2.8301,2.8301,2.8301,2.8301,2.8301,2.8301,2.8301,2.8301,2.8301,2.8301,2.8301,2.8301,2.8301,2.8144,2.7787,2.7285,2.6855,2.6445,2.6016,2.5693,2.5693,2.5693,2.5693,2.5693,2.5693,2.5693,2.5693,2.5693,2.5693,2.5693,2.5693,2.5693,2.5693,2.5293,2.4863,2.4414,2.412,2.3688,2.3101,2.3169,2.2711,3.6405,0.0,0.0,0.0,0.0,0.0,0.0,0.0,0.0,0.0,0.0,0.0,0.0,0.0,0.0,3.5332,0.0,3.5031,0.0,0.0,0.0,0.0,0.0,0.0,0.0,0.0,0.0,0.0,0.0,3.5812,3.5428,3.5524,3.5428,3.5017,3.5138,3.5114,3.492,3.4823,3.4775,3.4775,3.4872,3.4482,3.3671,3.4531,3.4017,3.2549,3.4115,3.3918,3.2549,3.33,3.3051,3.2145,3.2145,3.1,2.9355,2.89,2.8548,2.8335,2.8654,2.8761,2.8708,2.8388,2.8301,2.8301,2.8301,2.8301,2.8301,2.8301,2.8301,2.8301,2.8301,2.8301,2.8301,2.8301,2.8301,2.8301,2.8301,2.8301,2.8301,2.8301,2.8301,2.8301,2.8301,2.8301,2.8184,2.7943,2.7363,2.6914,2.6602,2.6074,2.5693,2.5693,2.5693,2.5693,2.5693,2.5693,2.5693,2.5693,2.5693,2.5693,2.5693,2.5693,2.5693,2.5693,2.541,2.5086,2.4683,2.4433,2.4044,2.3584,2.3814,2.3474,0.0,0.0,0.0,3.6405,0.0,0.0,0.0,0.0,3.6405,0.0,0.0,0.0,0.0,0.0,3.5981,3.4926,3.4751,0.0,0.0,0.0,0.0,0.0,0.0,0.0,0.0,0.0,0.0,0.0,0.0,0.0,3.598,3.5716,3.5572,3.5572,3.5332,3.5235,3.5187,3.492,3.4775,3.4775,3.5066,3.5017,3.4775,3.5066,3.5017,3.4677,3.4775,3.4775,3.4677,3.4726,3.4262,3.3549,3.3549,3.2978,3.1977,3.0432,2.9217,2.8441,2.9513,2.988,2.967,2.8654,2.8301,2.8301,2.8301,2.8301,2.8301,2.8301,2.8301,2.8301,2.8301,2.8301,2.8301,2.8301,2.8301,2.8301,2.8301,2.8301,2.8301,2.8301,2.8301,2.8301,2.8301,2.8301,2.8281,2.8281,2.7559,2.7012,2.6992,2.62,2.5693,2.5693,2.5693,2.5693,2.5693,2.5693,2.5693,2.5693,2.5693,2.5693,2.5693,2.5693,2.5693,2.5693,2.5674,2.5604,2.5436,2.5,2.4791,2.4815,2.441,2.358,0.0,0.0,3.6405,3.6405,0.0,0.0,0.0,0.0,0.0,0.0,0.0,0.0,0.0,3.6405,3.6132,3.5332,3.4906,3.4474,0.0,0.0,0.0,0.0,0.0,0.0,0.0,0.0,0.0,0.0,3.6063,0.0,0.0,3.6098,3.6003,3.562,3.5668,3.562,3.5476,3.538,3.5332,3.5332,3.5428,3.5428,3.5332,3.5428,3.5428,3.5332,3.5332,3.5235,3.5066,3.5066,3.4823,3.4409,3.4605,3.4042,3.3028,3.1768,3.1051,3.0794,3.0949,3.0089,2.89,2.927,2.89,2.8301,2.8301,2.8301,2.8301,2.8301,2.8301,2.8301,2.8301,2.8301,2.8301,2.8301,2.8301,2.8301,2.8301,2.8301,2.8301,2.8301,2.8301,2.8301,2.8301,2.8301,2.8301,2.8301,2.7812,2.7344,2.7051,2.6523,2.6055,2.5713,2.5693,2.5693,2.5693,2.5693,2.5693,2.5693,2.5693,2.5693,2.5693,2.5693,2.5693,2.5693,2.5693,2.5624,2.5503,2.5364,2.5045,2.4638,2.4629,2.4341,3.6405,3.6405,0.0,3.6405,3.6405,0.0,3.6405,0.0,0.0,0.0,0.0,0.0,0.0,0.0,3.6279,3.5881,3.5332,3.4781,0.0,3.3721,0.0,0.0,0.0,0.0,0.0,0.0,0.0,3.5483,3.6056,3.631,0.0,0.0,3.6216,3.5908,3.5955,3.5908,3.5716,3.5668,3.562,3.562,3.5716,3.5668,3.562,3.5716,3.5668,3.562,3.562,3.5524,3.5332,3.5332,3.5284,3.5235,3.5428,3.5114,3.4434,3.3178,3.2426,3.1971,3.1666,3.066,2.9533,2.9828,2.9408,2.8814,2.8388,2.8301,2.8262,2.8105,2.8184,2.8262,2.8105,2.8184,2.8301,2.8301,2.8301,2.8301,2.8301,2.8301,2.8301,2.8301,2.8301,2.8301,2.8301,2.8301,2.8301,2.8301,2.793,2.75,2.707,2.6641,2.623,2.5732,2.5693,2.5693,2.5693,2.5693,2.5693,2.5693,2.5693,2.5693,2.5693,2.5693,2.5693,2.5693,2.5771,2.5827,2.5884,2.5772,2.5496,2.5015,2.4985,2.481]}]]